GFSSGP_con_mucape_000.txt.gz
CAPE
0 0 0 0 0 0 0 0 0 0 46 211 259 250 281 375 434 375 939 824 757 607 423 724 1082 1416 1804 2037 2182 2300 2568 2585 2448 2225 1952 1712 1426 1280 1198 1146 564 448 290 200 263 699 830 930 594
0 0 0 0 0 0 0 0 0 5 291 170 262 408 555 868 1002 1076 1046 868 836 834 733 914 1145 1528 1788 1860 2029 2103 2176 2181 2437 2189 2025 1866 1577 1516 1413 796 595 325 276 335 601 442 230 530 144
0 0 0 0 0 0 0 0 0 33 78 0 540 609 652 876 1188 1228 1114 1092 1050 1004 925 999 1020 1438 1852 1880 2020 2000 2029 2161 2398 2178 2071 1999 1743 1631 1285 525 361 245 281 389 526 742 353 200 44
0 0 0 0 0 0 0 0 0 0 140 394 530 761 817 913 1187 1311 1160 1156 1221 919 953 1092 1184 1439 1916 2003 1894 1960 1984 1906 2133 2410 2188 1907 1696 1355 1331 572 438 463 592 652 744 490 800 171 126
0 0 0 0 0 0 0 0 21 68 168 258 228 569 978 1063 1383 1392 1255 1276 1399 936 1143 1202 1258 1413 1631 1525 1648 1811 1913 1980 2053 2146 2244 1805 1504 1075 545 458 594 832 577 787 757 1195 555 410 415
0 0 0 0 0 0 0 0 0 1 85 187 313 565 864 1107 1352 1524 1505 1569 1477 1139 1303 1308 1446 1359 1319 1365 1345 1356 1541 1800 1980 1872 1769 1748 1540 1345 1180 1010 998 594 422 230 185 178 318 105 107
0 0 0 0 0 0 0 0 0 0 0 2 121 559 1379 1420 1099 1461 1698 1749 1768 1595 1556 1424 1461 1195 1021 946 873 849 1203 1523 1746 1540 1306 1105 1075 1160 809 618 547 437 569 716 771 300 238 383 450
0 0 0 0 0 0 0 0 0 0 0 51 139 215 365 1562 1486 1445 1439 1885 1995 2061 1930 1701 1621 1492 1254 584 686 785 846 1154 1515 1254 960 647 706 626 348 238 298 230 185 113 181 339 395 334 267
0 0 0 0 0 0 0 0 0 0 0 0 308 267 347 1700 1590 1384 1247 1377 1860 2249 2231 1946 1904 1618 1353 1023 890 858 916 1001 1319 1418 768 412 203 117 98 9 115 70 11 0 0 79 163 146 187
0 0 0 0 0 0 0 0 0 0 0 158 562 233 701 1621 1350 1345 1151 1079 1119 1363 1356 1611 1798 1650 1431 1193 976 1040 861 791 762 936 917 578 328 36 11 2 20 0 0 0 0 0 0 0 0
0 0 0 0 0 0 0 0 0 0 0 0 504 418 622 1436 925 817 939 1076 930 1135 854 326 576 973 1109 799 834 1059 791 797 776 576 420 398 264 9 0 0 0 0 0 0 0 0 0 0 0
0 0 0 0 0 0 0 0 0 0 0 0 218 673 1019 1041 880 868 674 499 879 509 42 221 305 749 660 658 1145 1072 755 805 580 264 190 0 0 0 15 0 0 0 0 0 0 0 0 0 0
0 0 0 0 0 0 0 0 0 0 0 0 0 373 730 827 535 510 110 116 0 0 0 0 30 171 275 197 622 566 636 530 168 17 0 0 0 0 0 0 0 0 0 0 0 0 1 2 1
0 0 0 0 0 0 0 0 0 0 0 0 0 0 0 0 0 0 5 4 0 0 0 0 0 8 29 3 2 5 8 4 0 0 0 0 0 0 0 0 0 0 0 0 0 0 0 0 0
0 0 0 0 0 0 0 0 0 0 0 0 0 0 0 0 0 0 0 0 0 0 0 0 0 0 0 0 0 0 0 0 0 0 0 0 0 0 0 0 0 0 0 0 0 0 0 0 0
0 0 0 0 0 0 0 0 0 0 0 0 0 0 0 0 0 0 0 0 0 0 0 0 0 0 0 0 0 0 0 0 0 0 0 0 0 0 0 0 0 0 0 0 0 0 0 0 0
0 0 0 0 0 0 0 0 0 0 0 0 0 0 0 0 0 0 0 0 0 0 0 0 0 0 0 0 0 0 0 0 0 0 0 0 0 0 0 0 0 0 0 0 0 0 0 0 0
0 0 0 0 0 0 0 0 0 0 0 0 0 0 0 0 0 0 0 0 0 0 0 0 0 0 0 0 0 0 0 0 0 0 0 0 0 0 0 0 0 0 0 0 0 0 0 0 0
0 0 0 0 0 0 0 0 0 0 0 0 0 0 0 0 0 0 0 0 0 0 0 0 0 0 0 0 0 0 0 0 0 0 0 0 0 0 0 0 0 0 0 0 0 0 0 0 0
0 0 0 0 0 0 0 0 0 0 0 0 0 0 0 0 0 0 0 0 0 0 0 0 0 0 0 0 0 0 0 0 0 0 0 0 0 0 0 0 0 0 0 0 0 0 0 0 0
0 0 0 0 0 0 0 0 0 0 0 0 0 0 0 0 0 0 0 0 0 0 0 0 0 0 0 0 0 0 0 0 0 0 0 0 0 0 0 0 0 0 0 0 0 0 0 0 0
0 0 0 0 0 0 0 0 0 0 0 0 0 0 0 0 0 0 0 0 0 0 0 0 0 0 0 0 0 0 0 0 0 0 0 0 0 0 0 0 0 0 0 0 0 0 0 0 0
0 0 0 0 0 0 0 0 0 0 0 0 0 0 0 0 0 0 0 0 0 0 0 0 0 0 0 0 0 0 0 0 0 0 0 0 0 0 0 0 0 0 0 0 0 0 0 0 0
0 0 0 0 0 0 0 0 0 0 0 0 0 0 0 0 0 0 0 0 0 0 0 0 0 0 0 0 1 0 0 0 0 0 2 21 25 23 0 0 0 0 0 0 0 0 0 0 0
0 0 0 0 0 0 0 0 0 0 0 0 1 0 0 0 0 0 0 0 0 0 0 0 0 0 5 3 0 0 0 0 0 0 0 2 41 29 3 4 4 1 1 0 0 0 0 0 0
0 0 0 0 0 0 0 0 0 0 0 0 0 1 0 0 0 0 0 0 0 0 1 1 0 0 2 0 0 0 0 0 0 0 0 0 11 37 11 0 0 0 0 0 0 0 0 0 0
0 0 0 0 0 0 0 0 0 0 0 0 0 0 0 0 0 0 0 2 0 0 2 0 0 0 0 0 0 0 0 0 0 0 0 0 0 12 37 29 5 0 0 0 0 0 0 0 0
0 0 0 0 0 0 0 0 0 0 1 0 0 0 0 0 0 0 0 1 1 0 0 0 0 0 0 0 0 0 0 0 0 0 0 0 2 11 21 32 3 0 0 0 0 0 0 0 0
0 0 0 0 0 0 0 0 0 0 0 19 6 0 0 1 0 0 0 4 0 0 0 0 0 0 0 0 0 0 0 0 0 0 0 0 2 8 5 0 0 0 0 0 0 0 0 0 0
0 0 0 0 0 0 0 0 0 0 0 0 0 0 0 3 2 8 0 0 0 0 0 0 0 0 0 0 0 0 0 0 0 0 0 0 0 0 0 0 0 0 0 0 0 0 0 0 0

GFSSGP_con_mucape_003.txt.gz
CAPE
0 0 0 0 0 0 0 0 0 0 164 183 158 157 204 314 211 81 622 529 327 219 500 741 1232 1757 2015 2096 2354 2645 2730 2363 2013 1966 1761 1574 1369 1354 1142 1122 494 315 322 386 910 943 1275 1241 868
0 0 0 0 0 0 0 0 0 41 271 291 376 460 567 740 716 846 671 736 683 399 600 829 1376 1672 1839 1932 2121 2459 2618 2493 2289 2148 2024 1822 1668 1499 1472 869 710 742 648 591 273 497 1020 1036 1200
0 0 0 0 0 0 0 0 27 143 122 14 516 657 666 834 944 956 840 798 751 665 558 840 1380 1582 1763 1920 1978 2101 2307 2572 2375 2280 2185 1981 1760 1596 1414 802 488 398 272 319 435 583 390 303 247
0 0 0 0 0 0 0 0 1 45 143 411 558 686 762 916 1128 1067 1002 948 666 597 671 801 1256 1627 1824 1751 1765 1830 1987 2195 2422 2247 1995 1821 1636 1265 1243 585 411 486 468 446 502 566 1022 648 286
0 0 0 0 0 0 0 0 0 0 61 157 179 744 841 988 1105 1049 1095 1164 595 758 893 853 1077 1407 1789 1635 1662 1849 1940 1983 2190 2338 2113 1857 1562 1164 484 712 815 693 752 728 892 1269 872 703 394
0 0 0 0 0 0 0 0 0 2 21 85 311 525 766 1157 1242 1190 1230 1396 764 854 1029 1019 1206 1220 1382 1620 1678 1654 1809 1878 1799 1830 1940 1708 1285 1091 905 722 819 827 675 394 380 309 257 183 82
0 0 0 0 0 0 0 0 0 0 0 0 191 765 961 1190 1367 1419 1468 1561 993 1097 1091 1038 948 937 1081 990 1071 1239 1532 1746 1654 1457 1404 1313 1169 1147 781 734 679 564 694 759 543 478 254 224 512
0 0 0 0 0 0 0 0 0 0 0 39 12 133 1111 1197 1339 1661 1659 1543 1350 1423 1318 1326 1221 1095 696 568 775 797 1135 1400 1385 1121 884 641 765 751 402 237 274 182 150 30 46 123 254 332 276
0 0 0 0 0 0 0 0 0 0 0 0 153 39 266 1149 1238 1601 1733 1694 1775 1741 1626 1470 1420 1320 996 573 398 732 904 1172 1326 956 686 389 158 51 10 21 87 124 23 0 0 0 36 84 53
0 0 0 0 0 0 0 0 0 0 3 143 231 131 651 1364 1351 1158 1302 1714 1904 1961 1772 1637 1624 1506 1266 877 733 635 573 630 981 1087 511 353 119 20 0 0 5 0 0 0 0 0 0 0 0
0 0 0 0 0 0 0 0 0 0 0 47 64 249 1257 1603 1339 1194 1118 1309 1443 1762 1886 1892 1772 1567 1175 1013 908 802 654 552 523 531 592 287 199 0 0 0 0 0 0 0 0 0 0 0 0
0 0 0 0 0 0 0 0 0 0 0 0 15 266 1167 1353 1260 613 428 813 875 1128 834 248 334 673 648 700 613 838 713 538 535 433 210 153 18 0 0 0 0 0 0 0 0 0 0 0 0
0 0 0 0 0 0 0 0 0 0 0 0 2 20 386 896 613 296 313 307 620 586 69 41 68 460 216 347 752 883 643 605 535 167 32 0 0 0 0 0 0 0 0 0 0 0 0 0 0
0 0 0 0 0 0 0 0 0 0 0 0 1 143 501 587 357 252 392 174 353 140 0 0 0 36 82 34 60 93 252 378 316 14 0 0 0 0 0 0 0 0 0 0 0 0 0 0 0
0 0 0 0 0 0 0 0 0 0 0 0 0 70 271 394 95 0 0 69 6 0 0 0 0 0 0 0 0 0 0 0 0 0 0 0 0 0 0 0 0 0 0 0 0 0 0 0 0
0 0 0 0 0 0 0 0 0 0 0 0 0 0 0 0 0 0 0 0 0 0 0 0 0 0 0 0 0 0 0 0 0 0 0 0 0 0 0 0 0 0 0 0 0 0 0 0 0
0 0 0 0 0 0 0 0 0 0 0 0 0 0 0 0 0 0 0 0 0 0 0 0 0 0 0 0 0 0 0 0 0 0 0 0 0 0 0 0 0 0 0 0 0 0 0 0 0
0 0 0 0 0 0 0 0 0 0 0 0 0 0 0 0 0 0 0 0 0 0 0 0 0 0 0 0 0 0 0 0 0 0 0 0 0 0 0 0 0 0 0 0 0 0 0 0 0
0 0 0 0 0 0 0 0 0 0 0 0 0 0 0 0 0 0 0 0 0 0 0 0 0 0 0 0 0 0 0 0 0 0 0 0 0 0 0 0 0 0 0 0 0 0 0 0 0
0 0 0 0 0 0 0 0 0 0 0 0 0 0 0 0 0 0 0 0 0 0 0 0 0 0 0 0 0 0 0 0 0 0 0 0 0 0 0 0 0 0 0 0 0 0 0 0 0
0 0 0 0 0 0 0 0 0 0 0 0 0 0 0 0 0 0 0 0 0 0 0 0 0 0 0 0 0 0 0 0 0 0 0 0 0 0 0 0 0 0 0 0 0 0 0 0 0
0 0 0 0 0 0 0 0 0 0 0 0 0 0 0 0 0 0 0 0 0 0 0 0 0 0 0 0 0 0 0 0 0 0 0 0 0 0 1 1 1 6 1 0 0 0 0 0 0
0 0 0 0 0 0 0 0 0 0 0 0 0 0 0 0 0 0 0 0 0 0 0 0 0 0 0 0 0 0 0 0 0 0 0 0 0 0 0 5 24 14 1 0 0 0 0 0 0
0 0 0 0 0 0 0 0 0 0 0 0 0 0 0 0 0 0 0 0 0 0 0 0 0 0 0 0 0 0 0 0 0 0 0 0 0 0 0 2 20 12 0 0 0 1 1 0 0
0 0 0 0 0 0 0 0 0 0 0 0 0 0 0 0 0 0 0 0 0 0 0 0 0 0 0 1 0 0 0 0 0 0 0 0 0 0 0 0 0 6 12 29 1 0 0 1 0
0 0 0 0 0 0 0 0 0 0 0 3 0 0 0 0 0 0 0 0 0 0 0 0 0 0 0 0 0 0 0 0 0 0 0 0 0 0 0 0 2 25 33 13 41 1 0 0 0
0 0 0 0 0 0 0 0 0 0 0 0 0 0 0 0 0 0 0 0 0 0 0 0 0 0 0 0 0 0 0 0 0 0 0 0 0 0 0 0 5 16 6 12 0 0 0 0 0
0 0 0 0 0 0 0 0 0 0 0 0 0 0 0 0 0 0 0 0 0 0 0 0 0 0 0 0 0 0 0 0 0 0 0 0 0 0 1 7 17 24 5 0 0 0 0 0 0
0 0 0 0 0 0 0 0 0 0 0 0 0 0 0 0 0 1 1 0 0 0 0 0 0 0 0 0 0 0 0 0 0 0 0 0 0 0 0 8 7 16 0 0 0 0 0 0 0
0 0 0 0 0 0 0 0 0 0 0 0 0 0 0 0 0 1 2 0 0 0 0 0 0 0 0 0 0 0 0 0 0 0 0 0 0 0 0 0 0 0 0 0 0 0 0 0 0

GFSSGP_con_mucape_006.txt.gz
CAPE
0 0 0 0 0 0 0 0 0 0 45 64 59 54 198 313 154 109 488 561 102 303 570 852 1328 1609 1922 2226 2269 2204 2183 2171 2134 1985 1757 1596 1346 1351 1490 1045 677 425 311 398 775 1068 1429 1654 1435
0 0 0 0 0 0 0 0 0 57 199 234 266 282 411 574 615 542 492 559 315 333 503 900 1282 1532 1798 2028 2383 2537 2594 2362 2290 2168 2021 1857 1701 1653 1511 1106 852 659 748 822 690 576 1243 1347 1160
0 0 0 0 0 0 0 0 91 222 145 210 420 469 535 711 734 655 656 636 561 427 551 1062 1242 1409 1711 1799 1931 2252 2557 2639 2563 2396 2267 2076 1844 1663 1633 988 581 450 538 451 606 872 843 975 686
0 0 0 0 0 0 0 19 134 157 209 369 531 553 602 817 868 781 755 680 429 351 472 1066 1211 1420 1700 1717 1629 1825 2078 2213 2199 2163 2140 1960 1688 1304 1221 865 590 727 765 793 887 888 1139 1238 720
0 0 0 0 0 0 0 0 0 10 63 133 241 572 732 889 974 845 839 558 311 390 473 848 1167 1466 1749 1638 1566 1771 1843 1989 2178 2241 2110 1922 1628 1224 470 471 850 777 993 868 711 748 591 769 504
0 0 0 0 0 0 0 0 0 0 31 192 273 432 654 972 898 936 948 478 412 539 624 647 979 1209 1519 1583 1492 1506 1589 1631 1673 1847 1992 1676 1316 1178 1040 950 945 865 940 933 838 736 401 265 255
0 0 0 0 0 0 0 0 0 0 0 8 258 508 787 1080 944 1013 1200 562 590 658 658 586 660 746 909 978 1046 1174 1400 1498 1357 1237 1364 1248 1129 972 687 586 534 404 370 154 175 224 397 438 324
0 0 0 0 0 0 0 0 0 0 0 0 77 425 544 1117 1168 1197 1312 813 816 772 809 849 689 591 325 424 639 806 1060 1309 1154 884 643 528 646 535 305 59 201 146 99 53 24 10 80 207 234
0 0 0 0 0 0 0 0 0 0 0 0 44 107 201 934 1372 1365 1484 1241 1083 1137 1108 1101 949 887 521 234 266 556 844 1081 1071 768 497 201 34 3 0 2 25 83 9 0 0 0 0 2 31
0 0 0 0 0 0 0 0 0 0 0 7 38 53 526 978 1178 1485 1581 1414 1451 1373 1356 1244 1189 1080 775 534 332 212 265 558 906 748 348 104 62 0 0 0 0 0 0 0 0 0 0 0 0
0 0 0 0 0 0 0 0 0 0 0 0 0 88 769 978 1065 1404 1574 1562 1555 1622 1606 1357 1314 1271 1037 868 434 412 349 306 306 567 397 175 113 14 0 0 0 0 0 0 0 0 0 0 0
0 0 0 0 0 0 0 0 0 0 0 0 0 127 689 1172 1151 1098 1132 1282 1394 1497 1556 1590 1440 1345 1049 779 684 553 465 359 297 289 216 152 65 5 0 0 0 0 0 0 0 0 0 0 0
0 0 0 0 0 0 0 0 0 0 0 0 0 138 720 1139 1177 1076 828 952 1100 1079 1321 776 429 278 342 343 376 385 567 555 396 350 266 36 15 0 0 0 0 0 0 0 0 0 0 0 0
0 0 0 0 0 0 0 0 0 0 0 0 0 17 682 901 891 535 107 120 409 551 485 0 3 111 85 13 101 225 323 331 295 402 142 0 0 0 0 0 0 0 0 0 0 0 0 0 0
0 0 0 0 0 0 0 0 0 0 0 0 0 0 4 129 174 0 25 47 182 214 204 0 0 0 0 0 0 0 0 0 9 27 0 0 0 0 0 0 0 0 0 0 0 0 0 0 0
0 0 0 0 0 0 0 0 0 0 0 0 0 0 0 64 151 190 0 0 0 101 18 0 0 0 0 0 0 0 0 0 0 0 0 0 0 0 0 0 0 0 0 0 0 0 0 0 0
0 0 0 0 0 0 0 0 0 0 0 0 0 0 0 0 4 0 0 0 0 3 0 0 0 0 0 0 0 0 0 0 0 0 0 0 0 0 0 0 0 0 0 0 0 0 0 0 0
0 0 0 0 0 0 0 0 0 0 0 0 0 0 0 0 0 0 0 0 0 0 0 0 0 0 0 0 0 0 0 0 0 0 0 0 0 0 0 0 0 0 0 0 0 0 0 0 0
0 0 0 0 0 0 0 0 0 0 0 0 0 0 0 0 0 0 0 0 0 0 0 0 0 0 0 0 0 0 0 0 0 0 0 0 0 0 0 0 0 0 0 0 0 0 0 0 0
0 0 0 0 0 0 0 0 0 0 0 0 0 0 0 0 0 0 0 0 0 0 0 0 0 0 0 0 0 0 0 0 0 0 0 0 0 0 0 0 0 0 0 0 0 0 0 0 0
0 0 0 0 0 0 0 0 0 0 0 0 0 0 0 0 0 0 0 0 0 0 0 0 0 0 0 0 0 0 0 0 0 0 0 0 0 0 0 0 0 0 0 0 0 0 0 0 0
0 0 0 0 0 0 0 0 0 0 0 0 0 0 0 0 0 0 0 0 0 0 0 0 0 0 0 0 0 0 0 0 2 0 0 0 0 0 0 0 0 0 0 0 2 0 2 1 0
0 0 0 0 0 0 0 0 0 0 0 0 0 0 0 0 0 0 0 0 0 0 0 0 0 0 0 0 0 0 1 7 0 0 0 0 0 0 0 0 0 0 0 0 11 5 3 1 0
0 0 0 0 0 0 0 0 0 0 0 0 0 0 0 0 0 0 0 0 0 0 0 0 0 0 0 0 1 8 1 0 0 0 0 0 0 0 0 0 0 0 0 0 0 1 1 1 6
0 0 0 0 0 0 0 0 0 0 0 0 0 0 0 0 0 0 0 0 0 0 0 0 0 0 4 3 1 0 0 0 0 0 0 0 0 0 0 0 0 0 0 0 0 7 24 13 12
0 0 0 0 0 0 0 0 0 0 0 0 0 0 0 0 0 0 0 0 0 0 0 0 1 0 0 0 0 0 0 0 0 0 0 0 0 0 0 0 0 0 0 0 6 34 53 17 4
0 0 0 0 0 0 0 0 0 0 0 0 0 0 0 0 0 0 2 5 1 0 0 0 0 0 0 0 0 0 0 0 0 0 0 0 0 0 0 0 0 0 5 19 35 36 27 35 0
0 0 0 0 0 0 0 0 0 0 0 0 0 0 0 0 0 0 0 0 0 0 1 0 0 0 0 0 0 0 0 0 0 0 0 0 0 0 0 0 1 8 13 5 5 4 1 0 0
0 0 0 0 0 0 0 0 0 0 0 0 0 0 0 0 0 0 0 0 0 0 1 0 0 0 0 0 0 0 0 0 0 0 0 0 0 0 3 1 0 0 2 1 0 0 0 0 0
0 0 0 0 0 0 0 0 0 0 0 0 0 0 0 0 0 0 0 0 0 0 0 0 0 0 0 0 0 0 0 0 0 0 0 0 0 0 0 0 0 0 0 0 0 0 0 0 0

GFSSGP_con_mucape_009.txt.gz
CAPE
0 0 0 0 0 0 0 0 0 9 73 56 51 44 155 249 90 82 347 336 178 478 707 986 1159 1489 1708 1869 1845 1813 2148 2044 1948 1872 1715 1556 1559 1455 1423 1154 1095 865 508 549 725 690 1485 1864 1573
0 0 0 0 0 0 0 0 0 42 179 153 170 243 354 276 502 403 420 222 164 354 657 991 1154 1426 1753 2092 2152 2293 2295 2213 2136 1982 1806 1665 1609 1645 1448 1335 762 653 619 648 809 1089 936 1040 785
0 0 0 0 0 0 0 17 93 116 24 184 370 329 410 564 540 463 404 366 240 372 665 1054 1125 1275 1550 1841 2172 2433 2555 2521 2471 2259 2126 1961 1839 1677 1596 1035 912 765 825 869 958 957 1170 1199 850
0 0 0 0 0 0 0 71 150 70 169 315 360 360 440 544 683 631 513 456 317 345 695 911 1024 1245 1423 1544 1671 1867 1971 1999 2036 2101 2029 1853 1616 1350 1051 868 803 869 974 1130 1025 1219 1078 1057 819
0 0 0 0 0 0 34 75 62 22 78 239 196 456 548 757 798 608 520 401 232 286 543 830 904 1148 1401 1354 1413 1545 1691 1844 1971 1978 1852 1741 1400 890 531 417 735 893 1023 995 1016 800 515 397 347
0 0 0 0 0 0 0 0 0 15 68 133 303 361 544 694 674 643 523 345 243 232 461 689 946 1139 1254 1311 1307 1311 1393 1420 1482 1615 1737 1499 1254 1079 946 907 761 662 454 381 494 593 641 632 560
0 0 0 0 0 0 0 0 0 0 0 0 173 265 608 774 731 761 573 352 404 456 462 599 645 732 858 812 840 973 1142 1102 1032 1083 1105 961 945 697 484 409 405 268 184 139 132 148 117 204 230
0 0 0 0 0 0 0 0 0 0 0 11 97 170 676 874 788 859 806 514 596 675 593 671 688 532 538 620 452 656 878 1019 823 652 404 322 393 235 137 0 45 84 57 23 6 0 0 1 39
0 0 0 0 0 0 0 0 0 0 0 0 0 180 133 965 845 1013 1161 832 819 743 768 726 668 454 295 292 382 402 644 877 806 579 256 146 228 92 4 0 0 3 0 0 0 0 0 0 0
0 0 0 0 0 0 0 0 0 0 0 0 0 1 334 995 1047 1251 1411 1281 1184 1128 1119 850 824 747 403 153 337 492 428 763 1041 934 644 329 179 30 2 0 0 0 0 0 0 0 0 0 0
0 0 0 0 0 0 0 0 0 0 0 0 0 78 616 1005 1182 1374 1575 1493 1466 1402 1367 1007 1058 996 681 403 353 347 308 465 627 924 796 338 116 63 27 0 0 0 0 0 0 0 0 0 0
0 0 0 0 0 0 0 0 0 0 0 0 0 261 694 813 996 1395 1553 1634 1448 1416 1622 1567 1210 1093 1124 883 736 483 411 384 505 490 515 518 324 110 3 0 0 0 0 0 0 0 0 0 0
0 0 0 0 0 0 0 0 0 0 0 0 0 168 756 905 854 1080 1323 1396 1337 1304 1355 1580 1391 1016 579 248 412 540 556 554 573 495 347 216 183 131 0 0 0 0 0 0 0 0 0 0 0
0 0 0 0 0 0 0 0 0 0 0 0 0 27 598 945 1008 837 858 858 833 977 1072 1248 695 122 58 14 98 197 298 411 365 424 368 258 90 68 0 0 0 0 0 0 0 0 0 0 0
0 0 0 0 0 0 0 0 0 0 0 0 0 0 135 588 706 841 739 299 42 375 717 800 6 0 8 0 0 0 0 0 20 125 94 65 33 30 17 25 29 32 18 0 0 0 0 0 0
0 0 0 0 0 0 0 0 0 0 0 0 0 0 0 310 374 149 0 16 0 11 107 355 0 0 0 0 0 0 0 0 0 0 0 0 0 5 27 22 26 39 44 11 0 0 0 0 0
0 0 0 0 0 0 0 0 0 0 0 0 0 0 0 0 0 14 17 0 0 0 85 112 0 0 0 0 0 0 0 0 0 0 0 0 0 0 16 6 0 0 0 0 0 0 0 0 0
0 0 0 0 0 0 0 0 0 0 0 0 0 0 0 0 0 0 0 0 0 4 29 0 0 0 0 0 0 0 0 0 0 0 0 0 0 0 0 0 0 0 0 0 0 0 0 0 0
0 0 0 0 0 0 0 0 0 0 0 0 0 0 0 0 0 0 0 0 0 0 0 0 0 0 0 0 0 0 0 0 0 0 0 0 0 0 0 0 0 0 0 0 0 0 0 0 0
0 0 0 0 0 0 0 0 0 0 0 0 0 0 0 0 0 0 0 0 0 0 0 0 0 0 0 0 0 0 0 0 0 0 0 0 0 0 0 0 0 0 0 0 0 0 0 0 0
0 0 0 0 0 0 0 0 0 0 0 0 0 0 0 0 0 0 0 0 0 0 0 0 0 0 0 0 0 0 0 2 5 3 1 0 0 0 0 0 0 0 0 0 0 0 0 0 0
0 0 0 0 0 0 0 0 0 0 0 0 0 0 0 0 0 0 0 0 0 0 0 0 0 0 0 0 0 0 0 0 0 0 0 0 0 0 0 0 0 0 0 0 0 0 0 2 4
0 0 0 0 0 0 0 0 0 0 0 0 0 0 0 0 0 0 0 0 0 0 0 0 0 0 0 0 0 1 2 3 4 0 0 0 0 0 0 0 0 0 0 0 0 0 0 0 1
0 0 0 0 0 0 0 0 0 0 0 0 0 0 0 0 0 0 0 0 0 0 0 0 0 0 1 0 3 8 14 1 0 0 0 0 0 0 0 0 0 0 0 0 0 0 0 0 0
0 0 0 0 0 0 0 0 0 0 0 0 0 0 0 0 0 0 0 0 0 0 0 0 2 3 5 13 13 4 0 0 0 0 0 0 0 0 0 0 0 0 0 0 0 0 0 0 0
0 0 0 0 0 0 0 0 0 0 0 0 0 0 0 0 1 1 0 0 4 9 4 0 0 0 1 0 0 0 0 0 0 0 0 0 0 0 0 0 0 0 0 0 0 0 0 9 7
0 0 0 0 0 0 0 0 0 0 0 0 0 0 1 6 0 0 0 0 2 0 0 0 0 0 0 0 0 0 0 0 0 0 0 0 0 0 0 0 0 0 0 0 0 2 17 21 0
0 0 0 0 0 0 0 0 0 0 0 0 0 0 0 0 0 0 0 1 2 5 2 0 0 0 0 0 0 0 0 0 0 0 0 0 0 0 0 0 0 0 0 1 3 1 0 0 0
0 0 0 0 0 0 0 0 0 0 0 0 0 0 0 0 0 0 0 0 2 1 0 0 0 0 0 0 0 0 0 0 0 0 0 0 0 0 0 0 0 0 4 0 0 0 0 0 0
0 0 0 0 0 0 0 0 0 0 0 0 0 0 0 0 0 0 0 0 0 0 0 0 0 0 0 0 0 0 0 0 0 0 0 0 0 0 0 0 4 1 0 0 0 0 0 0 0

GFSSGP_con_mucape_012.txt.gz
CAPE
0 0 0 0 0 0 0 0 0 71 70 113 80 54 160 303 237 352 445 301 92 378 838 1062 1099 1503 1673 1731 1687 1788 1781 1801 1876 1798 1532 1472 1605 1479 1298 1209 1003 878 737 715 914 1048 1627 1480 1077
0 0 0 0 0 0 0 0 0 51 120 122 134 172 103 119 285 401 410 190 104 385 784 1083 1038 1465 1952 1909 2006 2143 2038 1965 1845 1747 1655 1589 1618 1568 1516 1004 734 741 827 864 914 1206 1376 1324 1002
0 0 0 0 0 0 0 0 67 141 98 191 230 298 296 189 326 384 288 83 48 289 583 949 996 1270 1651 1840 2010 2170 2174 2150 2071 2067 2009 1887 1689 1439 1232 891 995 968 1092 1239 1320 1488 1473 1200 901
0 0 0 0 0 0 0 6 21 96 231 239 71 132 329 548 520 496 335 166 20 107 342 674 871 1109 1304 1348 1552 1685 1751 1781 1867 1912 1872 1727 1476 1154 521 608 858 900 1113 1049 1061 936 691 636 522
0 0 0 0 0 0 0 40 80 59 141 266 212 225 335 727 779 536 518 285 108 131 300 366 730 919 1151 1128 1182 1325 1483 1592 1694 1707 1593 1536 1042 850 837 705 896 962 973 846 925 765 554 457 747
0 0 0 0 0 0 0 4 0 0 29 118 122 129 339 804 610 577 491 241 100 173 330 295 555 862 1081 1097 1060 1153 1145 1133 1239 1430 1501 1261 1063 875 811 688 573 486 332 366 420 677 635 424 284
0 0 0 0 0 0 0 0 0 0 0 0 50 57 376 696 540 546 289 172 164 111 205 405 441 602 697 618 714 854 957 875 810 879 860 792 739 475 334 272 247 179 115 62 48 57 39 16 40
0 0 0 0 0 0 0 0 0 0 0 113 71 4 147 450 727 652 374 258 290 420 405 638 799 663 696 619 303 484 661 769 597 462 245 213 311 112 13 0 5 21 2 0 0 0 0 0 0
0 0 0 0 0 0 0 0 0 0 0 0 0 17 122 613 904 881 744 565 631 767 996 1096 1049 953 764 507 462 162 373 667 555 470 167 277 458 426 99 0 0 0 0 0 0 0 0 0 0
0 0 0 0 0 0 0 0 0 0 0 0 0 70 459 962 1107 1172 1115 808 1055 1124 1309 1472 1559 1379 1040 227 695 709 621 692 961 1047 1167 830 852 641 53 0 0 0 0 0 0 0 0 0 0
0 0 0 0 0 0 0 0 0 0 0 0 0 24 586 1005 1178 1160 966 317 632 1034 1393 1550 1892 1819 1431 562 536 409 401 539 769 1329 1438 1038 975 734 522 382 39 2 0 0 0 0 0 0 0
0 0 0 0 0 0 0 0 0 0 0 0 0 0 304 699 732 522 498 303 311 834 1398 1770 1906 2023 1883 951 508 442 493 486 654 759 1419 1261 932 677 572 217 12 0 0 0 0 0 0 0 0
0 0 0 0 0 0 0 0 0 0 0 0 0 3 12 185 237 384 327 271 626 1282 1694 2094 2236 2192 1469 1160 506 780 859 526 790 777 669 1192 751 501 286 54 0 0 0 0 0 0 0 0 0
0 0 0 0 0 0 0 0 0 0 0 0 0 0 13 43 12 168 522 676 1120 1363 1616 2143 2386 2123 729 434 614 454 473 384 485 229 196 720 824 229 60 3 0 0 0 0 0 0 0 0 0
0 0 0 0 0 0 0 0 0 0 0 0 0 0 0 35 32 71 204 672 1016 1022 1169 1836 2001 1026 516 279 138 27 8 33 7 13 77 224 322 96 87 29 1 0 0 0 0 0 0 0 0
0 0 0 0 0 0 0 0 0 0 0 0 0 0 0 26 170 413 792 644 252 241 562 1163 895 398 325 67 35 8 4 15 10 12 23 38 56 79 83 43 28 25 31 0 0 0 0 0 0
0 0 0 0 0 0 0 0 0 0 0 0 0 0 0 0 337 152 0 0 14 1 132 704 709 195 75 38 27 33 47 51 11 14 3 1 19 31 64 28 23 59 46 4 0 0 0 0 0
0 0 0 0 0 0 0 0 0 0 0 0 0 0 0 0 14 0 0 0 0 3 142 461 244 54 29 3 0 0 0 0 0 0 0 0 0 0 0 0 6 29 37 20 2 7 0 0 0
0 0 0 0 0 0 0 0 0 0 0 0 0 0 0 0 0 0 0 0 0 0 17 23 2 0 0 0 0 0 0 0 0 0 0 0 0 0 0 0 0 2 2 15 31 24 19 12 5
0 0 0 0 0 0 0 0 0 0 0 0 0 0 0 0 0 0 0 0 0 0 0 0 0 0 0 0 0 0 0 0 0 0 0 0 0 0 0 0 0 0 0 0 16 35 49 37 16
0 0 0 0 0 0 0 0 0 0 0 0 0 0 0 0 0 0 0 0 0 0 0 0 0 0 0 0 0 0 0 1 4 6 7 4 0 0 0 0 0 0 0 0 0 0 13 34 60
0 0 0 0 0 0 0 0 0 0 0 0 0 0 0 0 0 0 0 0 0 0 0 0 0 0 0 0 0 0 0 5 4 3 3 4 1 0 0 0 0 0 0 0 0 0 3 14 21
0 0 0 0 0 0 0 0 0 0 0 0 0 0 0 0 0 0 0 0 0 0 0 0 0 0 0 0 0 0 2 6 9 6 0 0 0 0 0 0 0 0 0 0 0 0 3 12 30
0 0 0 0 0 0 0 0 1 0 0 0 0 0 0 0 0 0 0 0 0 0 0 0 0 0 0 0 0 8 7 0 0 0 0 0 0 0 0 0 0 0 0 1 2 6 12 9 7
0 0 0 1 1 0 0 0 0 0 0 0 0 0 0 0 0 0 0 0 0 0 0 1 4 3 0 0 1 0 0 0 0 0 0 0 0 0 0 0 1 4 6 6 9 0 0 0 0
0 0 0 0 0 0 0 0 0 0 0 0 0 0 0 0 0 4 0 0 0 0 0 0 4 0 0 0 0 0 0 0 0 0 0 0 0 0 0 6 12 15 15 17 27 27 0 0 0
0 0 0 0 0 0 0 0 0 0 0 0 0 0 1 4 1 0 0 0 0 1 10 5 0 0 0 0 0 0 0 0 0 0 0 0 0 0 7 17 27 23 0 0 0 0 1 1 0
0 0 0 0 0 0 0 0 0 0 0 0 0 0 0 0 0 0 0 0 5 3 0 0 0 0 2 0 0 0 0 0 0 0 0 0 5 19 14 14 0 0 0 2 0 3 0 0 0
0 0 0 0 0 0 0 0 0 0 0 0 0 0 0 0 0 0 0 0 0 0 2 6 5 1 0 0 0 0 0 0 0 0 0 7 16 5 8 0 0 2 1 1 0 0 0 0 0
0 0 0 0 0 0 0 0 0 0 0 0 0 0 0 2 11 4 0 0 3 0 0 0 0 0 0 0 0 0 0 0 0 17 16 25 30 35 36 33 3 8 2 0 0 0 0 0 0

GFSSGP_con_mucape_015.txt.gz
CAPE
0 0 0 0 0 0 0 8 23 14 11 1 0 7 10 130 304 327 156 35 273 722 772 972 1237 1565 1446 1409 1422 1595 1540 1579 1594 1437 1431 1529 1386 1347 1274 1021 867 883 881 897 1016 1308 1499 1396 1135
0 0 0 0 0 0 2 0 37 45 1 0 0 13 13 65 200 240 69 64 304 663 870 1067 1128 1674 1828 1887 1896 1861 1739 1583 1495 1497 1498 1507 1485 1510 1198 800 807 925 1055 1242 1275 1200 1445 1168 915
0 0 0 0 0 4 0 1 43 7 0 39 11 31 79 89 125 148 44 61 202 395 736 900 1001 1355 1727 1862 1958 2002 1904 1815 1840 1839 1778 1690 1506 1317 956 772 873 987 1156 1178 1204 1289 1280 1234 1029
0 0 0 0 5 0 4 39 28 0 29 44 0 29 265 225 193 144 27 17 92 177 418 634 916 1141 1330 1354 1450 1536 1523 1642 1730 1746 1685 1593 1337 692 461 697 848 1026 1068 1048 1000 769 546 416 414
0 0 0 0 0 3 31 23 20 74 57 21 1 0 268 490 322 145 49 0 1 11 86 406 689 949 955 891 997 1142 1234 1352 1438 1448 1466 1206 902 872 786 818 815 619 483 552 714 839 812 781 636
0 0 2 4 3 1 0 1 1 14 5 0 16 63 358 446 249 204 60 0 0 36 90 70 438 739 839 751 815 861 846 894 1035 1264 1241 994 750 605 539 492 380 310 219 203 261 340 259 174 93
0 0 7 3 0 0 0 0 0 0 0 0 0 22 220 234 229 85 1 0 0 24 92 145 195 351 592 578 659 728 675 611 577 588 595 622 454 265 162 135 126 103 60 25 5 7 3 0 0
0 0 0 0 0 0 0 0 0 0 0 0 0 0 152 217 145 13 0 0 15 66 310 402 413 354 544 643 415 515 582 566 404 288 145 179 324 157 30 5 15 1 0 0 0 0 0 0 0
0 0 0 0 0 0 0 0 0 0 0 0 0 1 76 276 216 79 32 37 283 345 616 562 572 409 241 85 325 104 407 586 482 441 350 393 524 366 257 0 0 0 0 0 0 0 0 0 0
0 0 0 0 0 0 0 0 0 0 0 0 0 0 205 334 254 188 119 181 328 534 622 812 1071 725 353 2 213 261 170 430 511 633 827 582 650 514 188 24 5 0 0 0 0 0 0 0 0
0 0 0 0 0 0 0 0 0 0 0 0 0 0 211 309 398 375 300 165 215 541 379 707 1768 1324 610 221 51 117 136 211 363 682 882 622 681 565 380 237 118 81 4 13 2 5 6 1 0
0 0 0 0 0 0 0 0 0 0 0 0 0 0 101 236 343 374 341 39 75 281 396 657 1683 1855 1119 354 81 119 121 284 235 536 519 439 326 295 214 21 2 4 4 1 4 2 5 4 0
0 0 0 0 0 0 0 0 0 0 0 0 0 0 13 161 181 84 168 167 103 271 446 648 1351 2323 1024 537 133 206 300 296 441 290 192 219 182 135 7 0 0 0 2 4 2 0 0 0 0
0 0 0 0 0 0 0 0 0 0 0 0 0 0 0 1 19 59 162 216 301 412 519 695 1240 2282 998 107 166 215 270 224 179 27 29 58 141 127 61 37 16 1 0 0 0 0 0 0 0
0 0 0 0 0 0 0 0 0 0 0 0 0 0 0 0 0 24 82 226 245 366 465 909 1516 2047 788 161 79 34 4 1 0 0 10 29 71 74 92 57 65 47 66 114 36 6 7 6 2
0 0 1 0 0 0 0 3 0 0 0 0 0 0 0 0 0 6 1 114 230 218 209 497 1439 1682 722 41 27 15 4 5 14 19 20 24 50 52 82 45 59 117 127 44 62 6 6 9 7
0 22 0 0 0 0 0 18 0 0 0 0 0 0 0 0 2 65 284 142 27 13 20 297 1397 1161 363 71 39 50 46 66 35 36 11 0 4 0 23 31 62 197 106 175 126 91 96 43 22
2 0 0 0 0 0 0 0 0 0 0 0 0 0 0 0 9 149 0 0 0 3 129 493 1135 557 154 56 29 2 0 0 2 0 0 0 1 0 0 2 58 60 7 44 86 225 119 199 147
0 0 0 0 0 0 0 0 0 0 0 0 0 0 0 0 0 0 0 0 0 82 286 460 212 102 27 0 0 0 0 1 1 10 4 3 0 0 0 0 0 1 0 21 95 113 149 125 240
0 0 0 0 0 0 0 0 0 0 0 0 0 0 0 0 0 0 0 0 0 0 0 0 0 0 0 0 0 0 0 1 3 16 0 0 0 0 1 1 4 0 0 5 37 90 81 118 200
0 0 0 0 0 0 0 0 0 0 0 0 0 0 0 0 0 0 0 0 0 0 0 0 0 0 0 0 0 0 0 0 0 0 0 0 0 0 0 0 0 0 0 0 21 32 63 47 72
0 0 0 0 0 8 0 106 0 0 0 0 0 0 0 0 0 0 0 0 0 0 0 0 0 0 0 0 0 0 0 0 0 1 4 0 0 0 0 0 0 2 1 6 15 11 93 107 58
0 0 0 0 0 0 0 0 3 0 0 0 0 0 0 0 0 0 0 0 0 0 0 0 0 0 0 0 0 0 1 0 0 0 0 0 0 0 0 0 0 0 0 3 9 8 19 21 27
0 0 0 0 27 27 29 12 150 11 0 0 0 0 0 0 0 0 0 0 0 0 0 0 0 0 1 5 5 0 0 0 0 0 0 0 0 0 0 0 0 6 10 22 23 16 5 9 8
0 1 163 186 148 207 0 0 74 0 0 0 0 0 0 0 0 0 0 0 0 0 0 0 0 2 3 0 0 1 1 0 0 0 0 0 0 0 0 0 0 0 27 43 34 14 9 0 0
0 1 113 1 48 49 0 0 29 0 0 0 0 0 0 0 0 0 0 0 1 2 1 0 0 0 1 7 8 5 2 0 0 0 0 0 0 0 0 11 33 32 43 9 7 9 9 12 0
3 0 0 0 0 2 0 5 0 0 0 0 0 0 0 0 0 0 2 12 4 2 3 0 0 0 0 1 8 9 5 0 0 0 0 0 0 1 19 17 26 28 2 4 19 12 0 0 0
0 0 21 1 0 0 10 0 80 18 16 2 12 12 10 5 10 15 17 19 11 1 0 1 1 0 0 6 20 15 15 0 0 0 3 7 15 24 24 43 54 11 4 9 13 4 0 42 74
2 4 0 0 0 0 0 0 2 9 3 0 0 1 8 21 25 29 28 20 18 27 21 0 0 0 12 9 3 8 7 2 5 12 24 31 29 29 40 34 40 30 12 26 41 39 45 12 3
0 0 0 0 0 0 0 0 0 0 1 0 0 22 4 17 33 20 19 12 18 15 3 0 0 0 0 7 3 2 6 13 30 24 22 23 32 39 62 65 21 42 58 48 37 45 34 0 0

GFSSGP_con_mucape_018.txt.gz
CAPE
0 0 0 0 0 0 0 6 31 8 3 0 0 0 0 42 223 85 81 304 609 577 758 929 1276 1428 1450 1570 1665 1547 1611 1557 1490 1565 1566 1425 1282 1226 989 861 895 992 1152 1252 1179 1399 1504 1247 996
0 0 0 0 0 0 0 7 8 0 0 0 1 16 1 28 53 8 69 373 583 813 843 1067 1255 1491 1644 1781 1792 1627 1510 1425 1573 1510 1365 1316 1344 1168 869 761 919 1019 1131 1174 1259 1400 1353 1210 1049
0 0 0 0 0 0 0 14 3 0 0 25 1 40 19 35 13 0 55 252 411 664 736 881 1087 1327 1580 1684 1767 1740 1739 1767 1790 1769 1574 1410 1231 742 560 684 820 963 979 972 879 737 582 564 511
0 0 0 1 0 0 0 29 0 0 0 28 22 61 61 20 13 0 12 89 146 380 523 553 799 1068 1278 1395 1490 1451 1465 1575 1616 1625 1384 1152 700 465 564 774 824 648 566 656 729 687 626 660 617
0 0 0 5 3 14 27 5 0 4 7 0 24 79 151 73 36 0 0 0 3 151 326 387 626 887 1002 1046 972 1158 1229 1295 1341 1327 1044 821 709 645 594 490 359 296 237 293 504 537 415 273 135
0 0 0 0 3 1 1 0 7 57 12 0 42 90 218 83 4 0 0 0 0 34 38 68 668 830 810 901 907 873 887 972 1191 1213 911 651 467 385 363 291 223 131 77 49 47 61 70 40 2
0 0 0 1 0 0 0 0 0 2 0 0 3 74 153 79 27 0 0 0 0 0 0 24 49 379 541 543 616 633 648 611 666 663 588 507 372 279 172 120 82 33 2 0 0 0 0 0 0
0 0 0 0 0 0 0 0 0 0 0 0 0 48 103 116 0 0 0 0 0 34 116 203 288 345 349 123 417 513 530 449 390 297 204 269 278 215 77 114 20 0 0 0 0 0 0 0 0
0 0 0 0 0 0 0 0 0 0 0 0 0 0 135 87 0 0 0 0 10 113 491 394 279 311 451 340 243 434 605 491 360 362 275 381 313 283 105 0 1 0 0 0 0 0 0 0 0
0 0 0 0 0 0 0 0 0 0 0 0 0 197 221 94 46 0 0 0 168 455 473 730 727 518 235 1 194 586 580 459 603 727 792 715 672 489 148 97 25 2 0 4 0 0 0 0 0
0 0 0 0 0 0 0 0 0 0 0 0 0 196 263 171 68 18 0 20 154 307 414 873 1496 1031 588 507 13 414 417 482 1032 1340 684 864 550 869 409 310 130 11 8 16 0 4 1 17 0
0 0 0 0 0 0 0 0 0 0 0 0 0 24 230 144 91 129 114 67 82 389 245 1236 1579 1606 898 522 267 315 433 342 585 534 697 533 367 418 165 58 0 0 0 1 8 0 20 3 13
0 0 0 0 0 0 0 0 0 0 0 0 0 0 93 53 129 176 225 58 68 165 409 577 1640 2033 1398 682 646 629 578 804 497 486 454 369 250 352 222 81 25 0 0 0 0 0 0 0 0
0 0 0 0 0 0 0 0 0 0 0 0 0 0 8 88 158 113 196 268 262 345 652 1068 1402 2334 1289 318 325 529 711 743 634 182 46 96 160 271 184 77 65 21 0 0 0 0 0 0 0
0 0 0 0 0 0 0 0 0 0 0 0 0 0 0 3 36 81 193 456 409 390 405 853 372 2083 1113 256 201 196 95 1 35 60 37 42 71 89 129 93 69 78 96 77 26 1 0 0 0
0 0 0 0 0 0 0 0 0 0 0 0 0 0 0 8 12 63 240 227 204 290 159 472 1029 1903 1210 507 145 79 81 63 44 53 85 32 37 87 100 92 97 119 130 86 80 61 26 0 0
0 0 5 0 0 0 0 0 0 0 0 0 0 0 0 0 19 54 87 272 148 38 92 160 1705 1583 1060 283 85 109 79 68 99 27 30 9 2 61 15 14 41 81 37 27 27 5 12 17 3
0 1 0 0 0 0 0 0 1 0 0 0 0 0 0 0 28 325 165 38 0 206 210 487 1024 917 442 131 49 32 21 15 23 9 4 3 0 2 0 0 11 57 0 0 0 4 4 12 21
0 0 0 1 0 0 0 0 0 0 0 0 0 0 0 17 8 65 71 66 123 390 242 534 557 294 58 31 9 0 0 0 8 5 38 0 0 0 0 0 0 0 0 0 0 0 0 0 1
0 0 0 0 0 0 0 0 0 0 0 0 0 0 0 0 0 2 25 26 0 14 28 83 47 0 0 0 0 0 0 7 2 9 1 3 0 0 0 0 0 0 0 0 0 0 0 0 2
0 0 1 0 0 0 0 0 0 0 0 0 0 0 0 0 0 0 0 0 0 0 0 0 0 0 0 0 0 0 0 0 0 0 1 0 0 0 0 0 0 0 0 0 0 0 0 0 0
0 0 0 0 0 1 1 2 0 0 4 0 0 0 0 0 0 0 0 0 0 0 0 0 0 0 0 0 0 0 4 10 12 1 0 0 0 0 0 0 0 0 0 0 0 3 3 5 0
0 0 0 0 0 0 0 35 58 5 0 0 0 0 0 0 0 0 0 0 0 0 0 0 0 0 0 0 0 0 2 0 0 0 0 0 0 0 0 0 0 0 0 0 20 2 0 9 0
0 2 0 0 10 310 19 77 52 6 0 0 0 0 0 0 0 0 0 0 0 0 0 0 0 0 0 1 0 0 1 0 0 0 0 0 0 0 0 0 0 2 12 1 9 6 7 2 5
0 13 426 433 571 510 63 6 96 15 27 11 0 0 0 0 0 1 1 0 3 3 1 0 0 0 0 11 8 12 0 0 0 0 0 0 0 0 0 3 4 10 13 7 13 12 17 15 4
0 0 451 62 149 80 0 5 0 4 10 1 0 0 0 0 0 0 0 0 3 12 10 18 1 0 0 0 0 0 0 0 0 0 0 0 0 0 5 3 26 4 7 21 28 20 3 3 0
4 3 0 12 2 21 3 101 15 2 2 0 0 0 2 5 16 32 21 22 14 0 3 7 0 0 0 0 0 0 0 0 0 0 0 0 2 0 0 4 13 5 16 19 17 9 4 1 24
0 0 9 205 38 0 0 5 47 22 11 1 0 2 0 1 24 14 9 10 6 1 15 20 4 4 1 0 0 0 0 0 0 0 2 0 0 0 0 12 19 17 13 7 8 16 2 13 32
0 4 0 0 11 9 0 0 0 0 15 5 7 0 11 12 0 0 0 0 0 0 6 6 12 4 0 0 0 0 0 0 5 5 0 0 0 0 5 28 27 27 16 22 27 28 11 24 9
0 0 0 32 0 83 25 0 0 0 0 2 0 1 6 5 0 0 0 0 6 11 10 0 0 0 0 0 0 0 0 4 11 1 0 0 3 5 21 28 26 21 40 43 46 39 50 35 30

GFSSGP_con_mucape_021.txt.gz
CAPE
0 0 0 0 0 11 9 12 11 56 53 40 0 38 34 50 53 33 415 445 488 608 852 940 961 1185 1364 1338 1379 1409 1394 1241 1224 1164 1360 1328 951 777 726 771 951 972 1018 1121 1193 1285 1331 1167 1052
0 0 0 0 0 3 7 0 0 0 29 63 37 0 0 0 28 252 334 587 640 746 872 937 1045 1257 1429 1360 1314 1300 1322 1278 1433 1328 1155 1102 949 720 627 672 844 811 833 912 795 750 638 606 544
0 0 0 0 0 3 0 1 0 1 1 32 13 0 0 0 13 333 552 690 616 740 868 940 1051 1202 1367 1406 1449 1472 1530 1531 1517 1520 1249 896 551 467 500 671 932 650 615 556 522 446 422 490 535
0 0 0 0 25 43 8 29 33 11 2 2 0 0 0 17 67 183 335 328 442 661 778 818 841 993 1201 1277 1272 1305 1349 1332 1345 1312 893 615 520 535 612 515 325 300 293 385 450 479 387 243 153
0 0 9 4 5 2 29 18 2 20 7 15 2 12 18 36 4 68 130 142 237 266 353 488 619 801 968 1009 924 1098 1132 1108 1173 1069 966 621 548 437 332 264 165 102 76 85 88 77 74 43 20
0 0 0 0 0 2 5 8 30 9 2 79 51 49 25 11 0 0 20 11 93 109 119 285 568 617 681 751 717 702 768 939 985 942 855 459 446 441 243 148 66 19 2 0 0 0 0 0 0
6 7 2 3 0 0 18 23 2 0 0 111 54 58 17 0 0 0 0 0 0 0 0 87 184 313 344 355 359 368 423 532 572 543 534 359 301 262 286 139 31 4 0 0 0 0 0 0 0
0 1 0 0 0 0 0 0 0 0 0 50 55 99 54 24 0 0 0 0 0 0 17 29 19 165 25 58 185 172 176 188 131 168 246 194 181 129 107 98 60 1 0 0 0 0 0 0 0
0 6 3 0 0 0 0 0 0 0 0 15 52 117 76 35 0 0 0 0 0 71 89 136 198 195 57 0 106 248 259 225 170 171 265 172 185 122 45 42 45 25 0 0 0 0 0 0 0
0 0 0 0 0 0 0 0 0 0 0 72 93 149 134 17 0 0 0 0 48 167 185 193 105 256 158 1 34 22 122 192 324 363 306 324 163 221 102 57 13 4 0 0 0 0 0 0 0
0 0 0 0 0 0 0 0 0 0 0 93 171 147 115 2 0 0 0 23 96 240 302 262 110 22 49 46 60 118 129 279 475 430 183 57 197 51 2 43 23 0 3 0 0 0 0 0 0
0 0 0 0 0 0 0 0 0 0 0 0 255 251 127 27 0 0 0 31 179 303 500 446 231 113 187 14 0 11 96 225 418 249 129 27 13 0 0 0 0 0 0 0 0 0 0 0 0
0 0 0 0 0 0 0 0 0 0 0 0 247 207 124 40 17 35 77 151 167 268 613 810 560 378 317 20 20 42 204 101 112 112 24 8 31 0 0 2 0 0 0 0 0 0 0 0 0
0 0 0 0 0 0 0 0 0 0 0 0 178 188 116 66 58 89 118 120 130 186 800 1018 1021 948 518 155 79 142 187 82 129 6 0 11 0 18 10 0 5 0 0 12 0 0 0 0 0
0 0 0 0 0 0 0 0 0 0 0 0 0 100 19 36 100 148 145 94 170 85 841 1026 529 59 575 302 38 44 180 25 1 0 0 0 0 0 0 7 14 6 12 1 0 0 0 0 0
0 0 0 0 0 0 0 0 0 0 0 0 0 0 4 63 79 157 87 78 147 430 746 861 621 361 504 147 76 20 8 0 0 0 0 0 0 0 0 0 0 0 0 0 0 0 0 0 0
0 0 0 0 0 0 0 0 0 0 0 0 0 0 0 5 27 72 130 96 44 62 597 639 979 634 443 78 70 66 18 0 2 7 7 22 7 0 0 0 0 0 0 0 0 0 0 0 0
1 0 0 1 0 0 0 0 0 0 0 0 0 0 0 2 17 36 6 19 66 242 700 850 612 476 124 107 79 57 22 6 0 0 0 0 0 0 0 0 0 0 0 0 0 0 0 0 0
0 0 0 0 0 0 0 0 0 0 0 0 0 0 0 0 8 43 98 115 104 217 337 572 574 341 154 91 39 21 5 0 0 0 0 0 0 0 0 0 0 0 0 0 0 0 0 0 0
0 0 0 0 0 0 0 0 0 0 0 0 0 0 0 0 48 154 181 140 69 71 233 346 258 106 2 0 0 0 0 0 0 0 0 0 0 0 0 0 0 0 0 0 0 0 0 0 0
0 0 0 0 0 0 0 0 0 0 0 0 0 0 0 0 0 52 71 76 59 20 0 0 0 0 0 0 0 0 0 0 0 0 2 1 0 0 0 0 0 0 0 0 0 0 0 0 0
1 0 0 0 0 0 0 0 0 0 0 0 0 0 0 0 0 0 0 2 0 0 0 0 0 0 0 0 0 0 0 0 0 7 1 0 0 0 0 0 0 0 0 0 0 0 6 17 17
0 0 0 0 0 0 0 0 14 0 0 0 0 0 0 0 0 0 0 0 0 0 0 0 0 0 0 0 0 0 0 0 0 0 0 0 0 0 0 0 0 0 0 0 4 10 6 9 5
0 0 0 0 0 2 39 6 0 4 2 0 0 0 0 0 0 0 0 0 0 0 0 0 0 0 0 0 0 0 0 0 0 0 0 0 0 0 0 0 0 0 0 0 0 0 8 12 12
0 0 38 21 53 34 51 33 18 6 0 0 4 3 0 0 0 0 0 0 0 0 0 0 0 0 0 0 0 0 0 0 0 0 0 0 0 0 0 0 0 1 0 0 1 18 28 19 7
0 0 0 0 0 3 2 16 13 40 30 16 8 1 0 0 0 0 0 0 0 0 0 0 0 0 0 0 0 0 0 0 0 0 0 0 0 0 0 0 0 5 7 11 16 10 0 0 0
0 0 0 0 0 0 2 7 20 21 25 22 0 0 0 1 4 0 0 0 0 0 0 0 0 0 3 1 0 0 0 0 0 0 0 0 0 0 0 0 0 18 26 17 17 6 4 0 0
0 0 0 0 0 0 0 12 4 0 1 2 3 0 2 2 1 0 2 2 0 0 1 0 0 1 3 0 0 0 0 0 0 0 0 0 0 2 0 0 9 22 23 25 27 0 2 5 17
0 0 0 0 0 0 0 0 0 30 47 10 2 2 0 0 0 0 0 0 0 0 0 0 0 0 0 0 0 0 0 0 0 0 0 0 0 0 0 0 0 4 24 33 39 24 24 30 34
0 0 0 0 0 0 0 0 0 0 0 2 2 0 0 0 0 0 0 0 0 0 0 0 0 0 0 0 0 0 0 0 0 0 0 0 0 0 0 0 0 0 0 0 0 0 0 1 10

GFSSGP_con_mucape_024.txt.gz
CAPE
0 0 0 0 0 0 5 22 49 18 24 56 32 46 50 70 79 85 354 411 597 694 654 717 945 1150 1254 1270 1337 1354 1315 1031 959 978 909 784 669 634 660 686 699 700 749 751 683 616 626 583 487
0 0 0 0 0 0 0 14 0 11 8 26 36 25 34 212 380 377 405 454 628 701 676 829 1023 1076 1131 1165 1236 1204 1113 1046 1012 978 895 745 575 476 456 635 723 637 486 337 290 287 308 351 395
0 0 0 0 0 0 7 30 29 0 0 4 62 41 40 154 307 388 452 601 662 679 768 942 1005 1040 1142 1196 1239 1253 1291 1302 1335 1203 746 500 410 438 525 462 360 264 255 261 284 290 290 192 135
0 0 0 23 33 5 11 18 2 0 0 0 0 5 40 239 473 543 597 555 555 681 771 866 917 1013 1141 1201 1183 1241 1229 1187 1178 956 614 435 457 427 258 213 147 81 74 78 75 68 48 32 22
0 0 0 76 85 48 43 45 30 0 2 0 0 8 22 282 635 546 433 513 599 656 676 660 722 848 982 937 922 1022 1038 1051 948 930 817 500 337 261 180 90 37 14 4 2 0 0 0 0 3
0 0 0 1 11 26 6 3 77 43 0 0 8 37 26 396 207 111 184 317 411 364 362 416 581 678 741 803 800 764 776 763 781 824 743 419 369 276 147 66 21 0 0 0 0 0 0 0 0
0 0 0 0 0 0 0 3 4 28 37 14 4 0 0 109 43 4 5 24 48 71 101 180 271 363 343 325 350 402 590 702 697 642 505 403 299 303 240 75 8 0 0 0 0 0 0 0 0
0 0 0 4 16 0 0 0 0 68 61 71 34 0 0 0 0 0 0 0 0 0 0 0 29 10 8 48 189 217 279 287 322 322 222 128 105 128 143 85 29 0 0 0 0 0 0 0 0
0 0 0 0 11 0 0 0 0 118 105 70 92 6 0 0 0 0 0 0 13 27 0 7 7 0 0 0 67 203 266 181 136 231 178 104 122 63 32 23 0 36 0 0 0 0 0 0 0
0 0 0 0 0 0 0 0 0 1 63 81 78 39 5 0 0 0 0 0 60 77 65 94 39 18 0 7 55 67 73 171 215 231 221 139 154 183 85 30 75 97 16 6 9 9 0 0 0
0 0 0 0 0 0 0 0 0 0 48 102 113 92 78 2 0 0 0 3 113 175 150 163 83 82 24 44 102 86 160 261 332 269 279 198 198 229 181 31 0 0 0 0 0 0 0 0 0
0 0 0 0 0 0 0 0 0 0 31 79 112 131 107 22 0 0 0 8 172 289 221 214 142 215 139 114 91 149 169 376 517 331 17 0 0 0 0 0 0 0 0 0 0 0 0 0 0
0 0 0 0 0 0 0 0 0 0 86 162 182 152 64 0 0 0 44 61 221 312 281 222 95 120 63 56 53 85 187 465 440 144 45 0 1 0 0 0 0 0 0 0 0 0 0 0 0
0 0 0 0 0 0 0 0 0 0 193 225 203 162 30 6 0 66 99 146 191 413 383 369 332 360 42 3 17 108 106 130 161 85 22 2 5 2 0 0 0 0 0 0 0 0 0 0 0
0 0 0 0 0 0 0 0 0 0 254 287 258 159 77 51 61 86 143 199 157 484 688 582 520 301 410 296 96 107 133 105 132 35 9 0 0 0 0 0 0 0 0 0 0 0 0 0 0
0 0 0 2 0 0 0 0 0 0 101 261 260 195 122 108 125 162 200 192 158 833 949 890 648 366 131 296 177 61 199 20 0 2 0 1 7 5 0 0 0 0 0 0 0 0 0 0 0
0 0 3 7 0 0 0 0 0 0 0 21 154 113 108 82 128 195 156 112 393 893 1124 966 670 432 303 302 124 55 36 24 8 6 3 4 23 29 12 1 0 1 0 0 0 0 0 0 0
1 0 0 0 0 0 0 0 0 0 0 0 0 0 1 3 60 139 170 290 520 696 900 795 622 421 200 83 57 67 55 23 19 3 0 0 3 5 10 12 1 0 0 0 0 0 0 0 0
0 0 0 0 0 0 0 0 0 0 0 0 0 0 0 0 7 134 77 227 491 611 541 296 194 77 67 69 72 47 32 5 0 0 0 5 18 23 8 2 6 1 0 0 0 0 0 0 0
0 0 0 0 0 0 0 0 0 0 0 0 0 0 0 2 45 108 113 58 66 125 84 83 57 38 5 0 0 0 0 0 0 0 0 1 7 9 12 4 0 0 0 0 0 0 0 0 0
0 0 0 0 0 0 0 0 0 0 0 0 0 0 2 8 48 97 106 70 53 30 27 11 0 0 0 0 0 0 0 0 0 0 0 0 0 0 0 0 0 0 0 0 0 0 1 8 7
0 0 0 0 0 0 0 0 0 0 0 0 0 0 0 44 114 85 66 44 24 2 0 0 0 0 0 0 0 0 0 0 0 0 0 0 0 0 0 0 0 0 0 0 0 5 5 8 0
0 0 0 0 0 0 0 0 0 0 0 0 0 0 0 0 3 0 1 0 0 0 0 0 0 0 0 0 0 0 0 0 0 0 0 1 0 0 0 0 0 0 0 0 0 0 0 0 1
0 0 0 0 0 0 7 0 0 0 0 0 0 0 0 0 0 0 0 0 0 0 0 0 0 0 0 0 0 0 0 0 0 0 0 0 0 0 0 0 0 0 0 0 1 3 2 0 0
0 0 0 0 26 5 0 3 2 2 0 0 0 0 0 0 0 0 0 0 0 0 0 0 0 0 0 0 0 0 0 0 0 1 0 0 0 0 0 0 0 0 0 5 17 11 0 0 0
0 0 0 0 0 4 0 0 0 0 1 0 0 0 0 0 0 0 0 0 0 0 0 0 0 1 0 0 0 0 0 0 0 0 0 0 0 0 0 0 0 0 0 1 3 6 4 4 17
0 0 0 0 0 0 0 0 1 3 14 25 19 0 0 0 0 0 0 0 0 0 1 3 7 5 0 0 0 0 0 0 0 0 0 0 0 0 0 0 0 0 0 6 10 10 7 14 18
0 0 0 0 0 0 0 0 0 0 12 0 0 0 0 0 1 0 0 0 0 8 1 0 0 0 0 0 0 0 0 0 0 0 0 0 0 0 0 0 0 0 0 2 5 12 15 13 20
0 0 0 0 0 0 0 0 0 0 2 4 0 0 1 1 0 0 0 7 8 15 2 0 0 0 0 0 0 0 0 0 0 0 0 0 0 0 0 0 0 0 0 0 0 0 0 0 0
0 0 0 0 0 0 0 0 0 1 24 17 3 0 1 3 4 11 7 3 0 0 0 0 0 0 0 0 0 0 0 0 0 0 0 0 0 6 0 12 0 0 0 0 0 0 0 0 0

GFSSGP_con_mucape_027.txt.gz
CAPE
0 0 0 0 0 0 0 0 16 1 49 91 83 62 80 104 53 67 263 261 546 532 534 725 890 1108 1205 1198 1110 1161 894 814 826 734 660 616 590 525 450 499 525 442 284 203 190 208 196 218 250
0 0 0 0 0 0 6 1 71 47 29 53 50 57 136 373 349 530 354 579 569 497 581 767 970 1091 1222 1227 1199 1139 923 841 826 751 687 595 443 402 474 470 319 160 132 127 127 148 140 91 34
0 0 0 0 0 0 0 5 36 68 42 15 0 5 69 448 360 356 360 636 599 565 712 808 814 939 1125 1119 1122 1113 1103 1089 954 775 532 383 411 420 301 256 169 100 74 66 48 30 21 14 0
0 0 0 0 0 0 11 52 64 35 10 0 7 1 53 329 454 436 548 650 642 615 755 725 791 922 1084 1156 1127 1135 1140 1111 950 731 426 447 388 219 173 130 58 31 16 6 0 0 0 0 0
0 0 2 47 18 18 5 48 64 57 26 10 1 48 154 488 563 530 646 571 741 737 714 704 763 893 1049 978 981 1006 989 907 840 800 701 392 277 178 99 47 16 7 0 0 0 0 0 0 0
0 0 92 28 60 55 45 55 53 30 24 12 47 167 448 673 585 560 491 548 604 636 621 597 696 770 849 927 911 825 830 739 753 786 732 402 335 257 96 34 3 0 0 0 0 0 0 0 0
0 0 26 4 67 72 32 46 28 19 15 34 57 180 646 706 444 471 497 539 494 429 370 408 418 493 541 515 498 473 520 542 577 592 593 467 374 237 169 45 14 0 0 0 0 0 0 0 0
0 0 0 0 0 0 12 15 101 116 69 13 13 83 446 192 289 317 264 192 136 96 66 73 112 129 87 119 235 289 360 383 397 347 226 88 102 109 109 49 40 2 0 0 0 0 0 0 0
0 0 0 0 0 0 0 12 130 151 58 20 88 10 141 42 36 3 0 0 0 0 0 0 1 0 0 0 27 170 265 252 233 183 120 56 27 19 12 35 29 62 21 1 4 9 0 0 0
0 0 0 2 4 0 4 22 144 149 78 40 41 36 49 0 0 0 0 0 0 0 1 0 0 0 0 0 3 0 58 47 131 205 117 91 131 126 44 6 60 185 172 146 97 42 19 0 0
0 0 0 0 0 0 0 33 16 97 45 20 0 3 0 0 0 0 0 4 34 30 34 27 0 0 4 16 28 21 78 127 199 251 237 203 148 147 175 108 0 0 0 0 0 0 0 0 0
0 0 0 0 0 0 0 0 31 0 52 27 4 28 14 0 0 0 0 49 96 104 127 158 26 0 1 34 96 67 115 266 291 282 237 69 64 0 0 0 0 0 0 0 0 0 0 0 0
0 0 0 0 0 0 0 0 0 0 109 36 19 66 43 41 0 0 1 90 167 220 248 248 82 133 40 90 85 148 164 237 440 450 84 8 0 0 0 0 0 0 0 0 0 0 0 0 0
0 0 0 0 0 0 0 0 0 0 124 80 84 95 96 38 0 0 91 142 185 287 329 305 171 139 48 78 126 174 259 255 485 334 38 2 0 0 0 0 0 0 0 0 0 0 0 0 0
0 0 0 0 0 0 0 0 0 28 132 162 141 123 104 5 7 39 61 176 156 320 385 398 215 193 70 38 35 122 159 326 85 200 46 12 0 0 0 0 0 0 0 0 0 0 0 0 0
0 0 0 0 0 0 0 0 0 58 192 213 171 163 111 36 91 175 228 189 207 409 427 349 247 137 184 187 108 53 117 77 30 81 27 1 5 8 12 5 0 0 0 0 0 0 0 0 0
0 2 11 0 0 0 0 0 0 22 204 187 184 166 142 75 107 163 218 240 242 521 485 342 134 273 94 199 109 89 62 7 14 29 14 8 14 29 30 30 17 5 5 4 0 0 0 0 0
5 0 0 0 0 0 0 0 0 0 196 141 220 238 229 198 166 169 231 261 729 733 609 363 305 236 209 193 136 71 21 56 46 43 35 6 6 12 25 19 16 9 1 0 0 0 0 0 0
0 0 0 0 0 0 0 0 0 0 0 0 11 77 195 187 241 311 383 526 871 918 781 532 373 304 125 117 93 68 68 35 38 13 16 21 14 7 9 5 4 5 1 0 0 0 0 0 0
0 0 0 0 0 0 0 0 0 0 0 0 0 0 14 93 213 322 483 620 673 529 206 103 91 59 50 49 47 11 0 0 8 7 0 0 0 0 0 0 0 0 0 0 0 0 0 0 0
0 0 0 0 0 0 0 0 0 0 0 0 0 1 18 32 46 77 83 63 52 46 14 0 0 0 0 0 0 0 0 0 0 0 0 0 0 0 0 0 0 0 0 0 0 0 0 0 0
0 0 0 0 0 0 0 0 0 0 0 0 0 0 1 18 29 44 23 18 8 0 0 0 0 0 0 0 0 0 0 0 0 0 0 0 0 0 0 0 0 0 0 0 0 0 0 0 0
0 0 0 0 0 0 0 0 0 0 0 0 0 0 1 5 10 2 6 0 0 0 0 0 0 0 0 0 0 0 0 0 0 0 0 3 0 0 0 0 0 0 0 0 0 0 0 0 0
0 0 0 0 0 0 0 0 0 0 0 0 0 0 0 0 0 0 0 0 0 0 0 0 0 0 0 0 0 0 0 0 0 0 0 0 0 0 0 0 0 0 0 0 0 0 0 0 0
0 0 0 0 0 0 0 0 0 0 0 0 0 0 1 0 0 1 0 0 0 0 0 0 0 0 0 0 0 0 0 0 0 0 0 0 0 0 0 0 0 0 0 0 0 0 0 0 0
0 0 0 0 0 0 0 0 0 0 0 0 0 0 0 0 0 0 3 5 0 0 0 0 0 0 0 0 0 0 0 0 0 0 0 0 0 0 0 0 0 0 0 0 0 0 7 6 0
0 0 0 0 0 0 0 0 0 0 0 0 0 0 3 0 0 0 0 0 0 0 0 0 0 0 0 0 0 0 0 0 0 0 0 0 0 0 0 0 2 3 2 1 8 14 18 8 0
0 0 0 0 0 0 0 0 0 0 0 0 1 8 0 0 0 0 0 0 0 0 0 0 0 0 0 0 0 0 0 0 0 0 0 0 0 0 5 14 5 8 1 1 0 0 0 0 0
0 0 0 0 0 0 0 0 0 0 0 0 0 0 0 0 0 0 2 3 9 2 0 1 0 0 0 0 0 0 0 0 0 0 0 1 4 12 17 7 8 0 1 0 0 0 0 0 0
0 0 0 0 0 0 0 0 0 0 0 0 0 13 4 5 12 20 24 21 19 4 0 0 0 0 0 0 0 0 0 0 0 0 0 0 4 14 11 26 23 7 5 0 0 0 0 0 0

GFSSGP_con_mucape_030.txt.gz
CAPE
0 0 0 0 0 0 0 2 1 31 95 84 63 102 114 193 79 41 303 314 514 463 579 737 921 1094 1093 1048 977 998 794 711 636 578 544 532 438 353 410 371 186 103 88 63 78 60 15 1 0
0 0 0 0 0 0 0 1 56 42 115 114 63 22 126 395 411 311 369 710 474 498 671 790 989 1076 1140 1108 1060 886 778 719 637 581 546 394 362 353 252 158 134 81 20 7 0 0 0 0 0
0 0 0 0 0 0 0 14 102 66 50 51 31 0 58 422 489 286 473 649 486 567 696 862 935 1001 1092 1052 1013 966 951 851 724 592 384 361 332 190 125 86 83 24 3 0 0 0 0 0 0
0 0 0 0 0 0 0 41 50 53 53 68 17 0 0 204 410 440 676 578 517 634 709 767 790 870 1029 1069 1024 958 956 902 730 578 377 323 198 112 54 43 23 4 0 0 0 0 0 0 0
0 0 0 0 0 0 0 94 67 26 14 10 0 0 20 460 539 610 639 571 509 726 569 611 685 843 1016 963 920 980 899 786 696 657 584 271 148 80 31 14 0 0 0 0 0 0 0 0 0
0 0 0 0 0 34 87 108 70 25 25 9 59 66 176 671 553 769 939 1108 764 1012 580 606 705 841 926 977 950 834 737 685 715 742 646 365 297 194 31 0 0 0 0 0 0 0 0 0 0
7 3 19 50 38 59 93 81 38 5 0 12 121 299 504 515 439 688 987 827 812 591 573 568 641 685 735 706 598 566 528 533 574 577 499 439 251 147 59 27 12 0 0 21 76 64 33 58 11
0 1 7 32 38 33 42 17 0 3 42 51 207 327 524 520 635 653 593 592 530 492 381 393 416 415 337 310 318 328 348 340 376 383 256 118 49 15 19 0 15 80 118 130 216 176 131 105 64
0 0 22 0 0 1 15 21 11 68 74 16 24 285 462 554 523 504 494 348 250 146 113 95 66 16 0 10 136 308 360 299 285 224 102 20 1 0 0 0 76 164 256 208 173 199 64 27 0
0 0 2 0 31 30 24 0 0 116 69 25 54 168 478 424 523 319 134 34 3 0 0 0 0 0 0 0 3 0 33 67 90 80 55 56 71 45 21 10 15 30 0 0 0 0 0 0 0
0 0 0 0 0 11 49 38 40 152 66 48 23 278 202 275 118 3 0 0 0 0 0 0 0 0 0 0 0 0 11 52 159 149 132 116 110 122 77 59 0 0 0 0 0 0 0 0 0
0 0 0 0 0 7 35 18 147 110 33 55 139 133 41 16 0 0 0 0 5 27 9 0 0 0 0 0 3 28 123 142 232 239 252 208 110 2 0 0 0 0 0 0 0 0 0 0 0
0 0 0 0 0 0 2 79 24 0 37 22 133 73 0 0 0 0 0 12 44 107 101 54 12 0 0 6 63 98 161 259 300 402 293 61 6 0 0 0 0 0 0 0 0 0 0 0 0
0 0 0 0 0 0 0 0 0 0 83 23 77 37 1 9 0 0 0 72 74 214 282 266 88 25 3 39 96 127 169 240 348 493 257 25 1 0 0 0 0 1 0 0 0 0 0 0 0
0 0 0 0 0 0 0 0 0 12 75 25 14 58 73 67 20 0 49 149 155 243 335 409 222 135 87 61 89 131 232 283 425 444 229 43 5 0 0 0 0 12 1 0 0 0 0 0 0
0 0 0 0 0 0 0 0 0 93 101 40 47 70 100 77 110 49 82 166 207 223 355 315 276 82 35 21 42 108 173 129 108 229 180 46 10 1 0 12 23 14 13 6 1 0 0 0 0
0 0 0 0 0 0 0 0 0 108 131 93 128 108 122 114 115 148 212 262 269 250 241 280 84 51 36 41 41 22 89 122 46 46 37 31 23 10 24 26 17 9 5 2 0 0 0 0 0
0 0 0 0 0 0 0 0 0 8 147 121 147 174 184 178 75 172 151 195 173 242 245 259 84 84 100 50 46 67 29 32 37 36 34 29 14 16 12 11 1 0 0 0 0 0 0 0 0
0 0 0 0 0 0 0 0 0 0 120 133 177 183 197 213 195 168 189 211 343 443 428 293 195 100 50 38 82 79 56 27 2 0 0 4 13 3 0 0 0 0 0 0 0 0 0 0 0
0 0 0 0 0 0 0 0 0 0 0 35 51 122 199 221 242 326 572 659 640 445 254 131 59 28 0 0 0 0 0 0 0 0 0 0 0 0 0 0 0 0 0 0 0 0 0 0 0
0 0 0 0 0 0 0 0 0 0 0 0 0 0 173 345 426 438 421 335 279 94 6 1 0 0 0 0 0 0 0 0 0 0 0 0 0 0 0 0 0 0 0 0 0 0 0 0 0
0 0 0 0 0 0 0 0 0 0 0 0 0 25 83 55 40 37 27 2 0 0 0 0 0 0 0 0 0 0 0 0 0 0 0 0 0 0 0 0 0 0 0 0 0 0 0 0 0
0 0 0 0 0 0 0 0 0 0 0 0 0 0 0 4 15 0 0 0 0 0 0 0 0 0 0 0 0 0 0 0 0 0 0 0 0 0 0 0 0 0 0 0 0 0 0 0 0
0 0 0 0 0 0 0 0 0 0 0 0 0 0 0 0 0 0 0 0 0 3 0 0 0 0 0 0 0 0 0 0 0 0 0 0 0 0 0 0 0 0 0 0 0 0 0 0 0
0 0 0 0 0 0 0 0 0 0 0 0 0 0 0 0 0 0 0 0 0 0 0 0 0 0 0 0 0 0 0 0 0 0 0 0 0 0 0 0 0 0 0 0 0 0 1 0 0
0 0 0 0 0 0 0 0 0 0 0 0 0 0 0 0 0 0 0 5 12 1 0 0 0 0 0 0 0 0 0 0 0 0 0 0 0 0 0 0 0 0 0 0 1 2 0 0 0
0 0 0 0 0 0 0 0 0 0 0 0 0 0 0 1 3 0 0 0 0 0 0 0 2 0 0 0 0 0 0 0 0 0 0 0 0 0 0 0 1 19 18 12 12 2 39 7 0
0 0 0 0 0 0 0 0 0 0 0 0 0 0 5 8 4 0 0 0 0 0 0 8 3 0 0 0 0 0 0 0 0 0 0 0 0 0 1 16 25 38 6 26 21 11 0 0 0
0 0 0 0 0 0 0 0 0 0 0 0 0 0 0 0 0 2 9 9 11 11 10 2 0 0 0 0 0 0 0 0 0 0 0 0 0 0 0 4 16 26 19 13 8 0 0 0 0
0 0 0 0 0 0 0 0 0 0 0 0 0 0 0 2 18 16 16 21 22 18 12 7 3 0 0 0 0 0 0 0 0 0 0 0 0 0 0 0 11 28 31 3 1 0 0 0 0

GFSSGP_con_mucape_033.txt.gz
CAPE
0 0 0 0 0 0 0 0 3 65 72 74 85 73 68 130 91 44 256 454 671 651 815 763 782 1139 1147 1048 1043 1044 827 608 542 513 500 391 323 355 235 107 233 54 0 0 0 0 0 0 0
0 0 0 0 0 0 0 0 0 82 92 99 115 91 56 43 414 386 446 723 685 721 852 826 850 1100 1155 1114 1086 1019 735 620 564 536 376 312 307 208 120 102 243 84 0 0 0 0 0 0 0
0 0 0 0 0 0 0 45 147 90 69 43 25 56 57 59 447 343 696 743 785 882 923 994 968 1055 1188 1110 962 969 885 800 734 584 357 332 202 96 74 58 147 14 0 0 0 0 0 0 0
0 0 0 0 0 0 0 101 121 31 17 1 15 3 195 295 405 467 875 803 801 909 982 943 952 1028 1164 1142 1079 1008 921 809 705 586 446 229 109 23 29 23 28 0 0 0 0 0 0 0 0
0 0 0 0 0 0 0 98 67 56 3 0 15 12 131 542 604 829 852 790 783 780 1011 1089 882 961 1141 1025 928 989 880 729 689 683 563 325 48 12 0 0 0 0 0 0 0 0 0 0 5
0 0 0 0 13 68 73 103 68 73 10 0 8 103 215 820 918 780 848 818 743 693 901 929 755 857 968 1051 1037 860 699 671 697 712 588 396 225 143 0 0 0 0 0 0 0 0 0 3 0
0 0 0 13 54 64 113 84 47 51 19 33 58 270 422 875 545 591 452 534 590 803 687 790 779 844 860 892 713 559 538 565 610 601 528 370 225 164 163 144 90 37 55 59 39 36 56 25 7
0 0 2 46 87 44 121 81 43 21 16 84 170 351 727 944 1067 525 679 910 1110 796 722 747 775 760 788 693 470 392 388 395 395 396 247 88 49 58 138 1 141 193 167 133 106 122 52 0 0
0 12 0 8 52 11 51 37 36 2 24 82 158 437 482 752 700 975 920 1139 735 543 493 435 488 501 439 378 382 306 341 303 291 261 58 31 98 90 69 22 113 132 7 3 0 0 0 0 0
0 0 1 0 16 14 8 29 36 90 76 53 37 359 584 931 879 862 859 570 492 425 249 165 210 185 102 47 301 327 284 247 278 240 279 173 171 153 118 33 0 0 0 0 0 0 0 0 0
0 0 0 0 11 2 18 22 125 111 98 49 66 515 696 834 638 662 482 305 186 117 66 27 55 22 2 12 110 74 189 172 168 200 166 193 158 170 224 20 0 0 0 0 0 0 0 0 0
0 0 0 0 0 4 25 80 159 154 71 51 136 626 404 418 397 348 149 24 0 0 0 0 0 0 0 0 0 0 64 130 236 300 370 291 104 5 0 0 0 0 0 0 0 0 0 0 0
0 0 0 0 1 24 65 130 187 167 4 62 295 343 339 355 184 65 0 0 0 1 16 1 0 0 0 2 10 31 100 175 240 326 291 32 3 0 0 0 0 0 0 0 0 0 0 0 0
0 0 0 0 3 44 116 125 148 17 41 156 313 144 132 100 20 0 1 1 40 104 146 78 9 0 0 9 73 82 114 198 329 370 406 138 9 0 0 0 0 0 0 3 0 0 0 0 0
0 0 0 0 3 33 44 10 0 3 52 161 237 123 12 9 0 0 0 47 74 146 212 279 134 81 77 95 78 113 158 169 230 268 236 155 65 10 0 0 1 5 6 4 0 0 0 0 0
0 0 0 0 0 0 0 0 0 31 5 61 190 118 69 54 5 0 6 104 134 149 236 286 254 131 92 64 30 59 32 101 171 143 126 98 50 17 7 2 4 5 2 0 0 0 0 0 0
0 0 0 0 0 0 0 0 0 104 19 0 65 85 128 92 70 20 26 79 154 246 141 186 178 121 75 1 0 42 34 61 79 67 29 34 38 22 4 0 1 1 0 0 0 0 0 0 0
0 0 0 0 0 0 0 0 0 116 85 4 17 39 109 133 103 161 152 129 159 171 121 147 214 151 52 6 38 38 63 45 39 49 26 7 2 0 0 0 0 0 0 0 0 0 0 0 0
0 0 0 0 0 0 0 0 0 0 122 102 68 119 96 116 151 114 169 214 156 131 104 156 171 152 90 101 51 16 14 0 0 0 0 0 0 0 0 0 0 0 0 0 0 0 0 0 0
0 0 0 0 0 0 0 0 0 0 14 102 109 125 137 171 204 248 372 330 322 291 244 60 167 41 23 4 0 0 0 0 0 0 0 0 0 0 0 0 0 0 0 0 0 0 0 0 0
0 0 0 0 0 0 0 0 0 0 0 1 51 76 115 147 285 494 468 214 244 305 264 139 14 0 0 0 0 0 0 0 0 0 0 0 0 0 0 0 0 0 0 0 0 0 0 0 0
1 0 0 0 0 0 0 0 0 0 0 0 0 7 224 321 262 206 111 30 0 1 0 0 0 0 0 0 0 0 0 0 0 0 0 0 0 0 0 0 0 0 0 0 0 0 0 0 0
6 0 0 0 0 0 0 0 0 0 0 0 0 149 222 86 37 25 10 0 0 0 0 0 0 0 0 0 0 0 0 0 0 0 0 0 0 0 0 0 0 0 0 0 0 0 2 4 0
0 0 0 0 0 0 0 0 0 0 0 0 0 8 3 0 9 0 3 0 0 0 0 2 1 0 0 0 0 0 0 0 0 0 0 0 0 0 0 0 0 0 0 0 0 12 24 37 23
0 0 0 12 0 0 0 0 0 0 0 0 0 0 0 0 0 4 3 0 0 2 7 2 0 0 0 0 0 0 0 0 0 0 0 0 0 0 0 0 0 0 0 1 5 15 37 64 32
0 0 0 0 0 0 0 0 0 0 0 0 0 0 0 0 0 0 0 1 0 0 0 0 0 0 0 14 0 0 0 0 0 0 0 0 0 0 0 0 0 0 7 5 20 25 43 91 102
0 0 0 0 0 0 0 0 0 0 0 0 0 0 0 0 0 0 0 0 0 0 0 0 0 5 20 7 0 0 0 0 0 0 0 0 0 0 0 0 0 0 1 14 32 36 41 60 85
0 0 0 0 0 0 0 0 0 0 0 0 0 0 0 0 0 0 0 0 0 0 0 3 8 16 9 2 1 0 0 0 0 0 0 0 0 0 0 0 0 0 6 18 11 6 17 6 28
0 0 0 0 0 0 0 0 0 0 0 0 0 0 0 0 0 0 0 0 4 9 10 10 2 9 0 1 0 0 0 0 0 0 0 0 0 0 0 0 0 0 6 9 3 7 0 0 0
0 0 0 0 0 0 0 0 0 0 0 0 0 0 0 0 0 0 4 16 15 12 13 28 24 0 0 0 0 0 0 0 0 0 0 0 0 0 0 0 0 0 8 9 2 1 1 0 0

GFSSGP_con_mucape_036.txt.gz
CAPE
0 0 0 0 0 0 0 0 0 187 403 211 121 171 306 445 294 356 577 595 663 796 668 687 912 1124 1116 1018 943 1004 707 592 548 517 448 326 328 181 103 134 204 8 0 0 0 0 0 0 0
0 0 0 0 0 0 2 0 14 435 421 90 52 36 40 78 582 612 507 738 728 698 763 729 789 1023 1178 1135 1148 1024 714 588 542 426 303 278 137 84 61 34 146 30 0 0 0 0 0 0 0
0 0 0 0 0 0 5 36 467 48 70 57 87 59 38 73 422 418 779 789 758 795 862 1079 964 1110 1222 1219 1169 1026 896 842 727 526 280 156 56 21 14 10 68 26 0 0 0 0 0 0 0
0 0 0 0 0 0 61 553 287 97 54 32 28 19 127 212 219 519 891 769 747 956 955 865 959 1056 1233 1242 1168 1002 892 841 656 614 370 113 12 0 0 13 97 4 0 0 0 0 0 0 0
0 0 0 0 0 0 57 447 253 186 23 7 7 7 191 679 376 595 981 647 909 897 1219 1269 844 1064 1122 1199 994 909 806 743 737 637 496 227 3 0 0 1 0 0 0 0 0 0 0 0 0
0 0 0 0 10 72 183 378 363 197 45 24 12 50 542 938 880 757 549 722 966 1099 1039 1129 887 1060 1113 1138 1067 833 703 715 732 673 566 289 144 120 0 0 0 0 0 0 0 0 19 0 0
0 0 0 26 138 293 459 374 205 116 48 12 22 164 790 968 1144 909 909 924 973 1035 1113 993 1024 929 895 861 725 576 578 638 656 631 559 398 292 258 173 134 70 78 81 69 42 0 0 0 0
0 0 4 158 256 474 464 119 78 70 24 83 146 350 744 1076 993 1003 1075 970 971 1187 980 636 640 628 623 639 544 433 447 475 487 473 289 169 169 193 51 212 164 115 44 42 0 0 0 0 0
0 0 25 259 482 313 209 131 60 23 29 95 171 541 994 1009 829 775 906 756 813 987 592 536 509 501 365 234 367 287 348 367 330 267 142 98 244 221 130 23 52 0 0 0 0 0 0 0 0
0 0 0 0 86 63 82 33 35 46 106 112 195 1057 1144 1067 901 890 817 843 1163 573 514 531 452 376 285 47 176 156 87 304 512 461 481 460 606 506 285 36 0 0 0 0 0 0 0 0 0
0 0 0 0 8 39 85 70 128 147 209 270 234 1307 991 1023 1095 913 1196 800 340 331 233 213 305 228 70 30 153 197 480 642 716 743 711 829 800 857 686 111 18 5 0 0 0 0 0 0 0
0 0 0 0 16 25 59 110 152 278 183 201 241 1350 1312 1063 1352 1173 387 158 140 173 109 74 93 173 136 83 201 409 508 666 786 913 1030 1072 882 445 169 31 0 0 0 0 0 0 0 0 0
0 0 0 0 3 46 76 120 148 254 207 287 866 1291 1044 917 621 146 48 54 91 88 139 143 87 48 114 190 300 431 639 756 885 960 745 519 407 236 25 0 0 0 0 0 0 0 0 0 0
0 0 0 2 27 46 60 131 281 220 369 730 1168 923 379 178 58 18 0 0 63 118 212 322 250 238 181 363 515 574 586 637 747 471 296 100 212 95 0 0 0 2 1 1 1 0 0 0 0
0 0 0 0 13 64 54 93 40 136 380 684 602 410 228 9 0 0 0 29 53 194 319 436 548 476 340 141 118 191 83 125 144 152 139 78 101 68 31 23 6 5 0 0 0 0 0 0 0
0 0 0 12 19 52 14 2 0 100 319 452 395 321 218 82 4 0 16 43 78 318 518 447 176 82 97 83 43 34 12 0 12 55 80 63 46 17 17 17 4 0 0 0 0 0 0 0 0
0 0 0 0 0 12 0 0 0 173 228 438 445 345 220 75 12 32 93 78 110 358 690 397 289 95 77 73 39 4 0 9 25 38 44 31 9 7 9 6 0 0 0 0 0 0 0 0 0
0 0 0 0 0 0 0 0 0 251 202 222 350 370 287 205 154 87 300 238 302 677 649 433 451 172 59 61 0 3 66 16 14 1 0 0 0 0 0 0 0 0 0 0 0 0 0 0 0
0 3 0 0 0 0 0 0 0 49 317 262 249 301 315 254 63 240 484 558 675 689 494 535 139 166 28 0 0 40 4 0 0 0 0 0 0 0 0 0 0 0 0 0 0 0 0 0 0
0 8 34 0 0 2 20 34 0 4 308 351 320 312 307 178 262 396 648 662 594 572 681 340 222 116 13 20 5 0 0 0 0 0 0 0 0 0 0 0 0 0 0 0 0 0 0 0 0
50 64 39 12 0 0 18 66 37 0 4 51 146 307 274 354 497 583 848 1024 694 612 621 583 664 405 48 0 0 0 0 0 0 0 0 0 0 0 0 0 0 0 0 0 0 0 1 0 0
102 11 0 1 25 76 1 124 124 66 0 1 67 163 349 487 583 822 668 743 845 744 734 542 207 38 1 0 0 0 3 3 0 0 0 0 0 0 0 0 0 0 0 1 5 3 7 16 0
78 0 8 8 43 57 23 33 198 31 92 3 10 225 466 507 437 206 81 106 119 157 120 6 0 0 0 0 0 0 0 0 0 0 0 0 0 0 0 0 0 0 9 22 33 30 44 42 40
17 85 97 87 69 64 54 46 3 38 38 73 10 308 317 151 104 28 12 1 0 0 0 0 0 0 0 0 0 0 0 0 0 0 0 0 0 0 1 8 10 28 47 66 83 81 60 66 72
73 68 8 28 64 17 4 2 0 0 0 34 88 249 41 8 3 1 0 0 0 0 0 0 0 0 0 0 0 0 3 1 0 0 0 0 0 10 20 22 25 39 63 84 79 80 70 76 77
27 14 0 0 0 0 0 22 65 0 0 3 75 111 0 0 0 0 0 0 0 0 0 0 0 0 0 0 4 8 10 0 0 0 0 0 1 0 0 0 0 2 9 35 72 74 75 71 76
0 0 0 4 0 2 0 4 4 0 0 5 82 43 1 0 0 0 0 0 0 0 0 0 0 0 0 6 13 10 4 0 0 0 0 0 0 0 0 0 0 1 10 33 66 72 83 79 75
3 0 0 0 0 0 0 0 0 0 0 0 48 41 0 0 0 0 0 0 0 0 0 0 3 4 5 8 0 0 0 0 0 0 0 0 0 0 0 0 0 0 10 36 73 60 53 67 43
0 0 0 0 0 0 0 0 0 0 0 0 30 13 0 0 0 0 0 0 0 0 6 12 11 7 5 2 0 0 0 0 0 0 0 0 0 0 0 0 1 7 21 40 40 25 50 30 19
0 0 0 0 0 0 0 0 0 0 0 0 0 0 0 0 0 0 0 0 2 7 13 13 8 8 0 2 0 0 0 0 0 0 0 0 0 0 0 7 14 24 8 23 32 27 24 6 23

GFSSGP_con_mucape_039.txt.gz
CAPE
0 0 0 0 0 0 0 14 59 451 519 459 317 431 666 791 805 707 488 547 692 616 476 495 892 1029 973 880 878 924 671 596 530 446 357 318 168 129 131 212 174 5 0 0 0 0 0 0 0
0 0 0 0 0 3 65 33 264 631 290 227 86 106 146 686 796 774 625 702 864 654 544 646 744 1026 1117 1104 996 840 610 540 459 342 314 165 107 68 19 5 119 13 0 0 0 0 0 0 0
0 0 0 0 0 10 56 451 701 243 195 111 63 44 31 475 377 536 594 663 701 678 653 895 804 1015 1198 1171 1039 918 802 707 493 465 171 71 20 0 0 21 154 45 0 0 0 0 0 0 0
0 0 0 0 4 16 0 471 169 339 193 42 112 41 53 84 75 414 862 799 727 710 910 625 757 990 1173 1179 1009 731 671 647 614 465 249 15 0 0 0 131 178 0 0 0 0 0 0 0 0
0 0 0 1 2 2 1 578 289 364 270 61 59 36 17 20 4 258 915 810 767 653 839 920 698 963 1117 1136 840 738 656 701 658 529 322 88 0 0 0 11 34 0 0 0 0 0 0 0 0
0 0 1 20 23 52 154 432 288 318 265 72 40 45 465 495 74 14 466 439 493 478 793 875 825 1008 1175 1123 870 737 684 731 677 563 349 107 64 85 11 20 23 23 18 13 0 0 0 0 0
0 0 0 23 105 234 296 237 324 140 29 5 50 245 840 950 560 556 235 28 221 750 877 841 1006 941 823 716 575 497 589 631 658 634 450 337 340 352 311 208 115 94 126 64 5 0 0 0 0
0 0 4 34 198 329 349 372 182 220 129 81 122 126 667 830 1039 330 257 296 541 1043 873 753 663 603 611 573 412 413 468 491 500 374 253 180 141 95 266 339 93 26 29 0 0 0 0 0 0
0 0 20 134 320 353 252 193 66 40 55 67 345 539 1099 1206 1067 802 597 603 859 641 465 432 385 440 323 215 313 335 480 450 340 155 131 47 70 123 200 20 0 0 0 0 0 0 0 0 0
0 0 23 381 153 0 376 135 44 3 0 0 236 959 1456 1358 1116 1036 957 1081 889 382 369 428 426 406 258 25 77 88 129 148 305 269 284 560 371 498 237 17 0 0 0 0 0 0 0 0 0
0 0 7 0 118 19 36 19 13 0 10 61 190 1407 1256 1304 1233 1133 1096 1093 424 356 340 308 336 286 107 178 91 135 315 556 641 653 704 884 580 612 554 302 93 94 0 18 0 0 0 0 0
0 0 0 0 0 30 9 62 93 35 90 169 324 1510 1390 1385 1237 1135 1094 379 158 221 147 137 148 163 86 70 179 327 505 611 701 831 895 838 765 718 492 180 88 57 9 6 0 1 0 0 0
0 0 0 0 0 2 1 74 90 125 122 47 947 1546 1512 1382 1271 884 159 104 199 145 65 11 29 128 313 346 577 580 766 1180 964 1002 1007 893 676 672 327 158 38 8 1 0 0 0 0 0 0
0 0 0 0 11 45 68 125 115 181 132 337 1211 1166 958 998 537 104 74 156 180 97 190 104 99 230 336 687 722 967 1192 1048 879 697 452 328 425 635 212 53 3 9 17 11 0 0 0 0 0
0 0 0 5 3 48 62 137 148 257 238 494 952 687 407 307 67 25 99 207 286 214 404 498 551 566 593 526 423 178 119 132 247 161 107 142 162 88 24 18 18 12 0 0 0 0 0 0 0
0 0 0 1 44 58 64 38 55 181 260 293 282 212 39 5 0 19 59 201 375 568 577 648 596 488 232 70 42 85 35 1 0 1 33 43 48 22 11 4 0 0 0 0 0 0 0 0 0
0 1 2 24 42 17 58 2 41 162 269 294 266 195 73 8 0 4 2 35 364 727 808 592 513 213 48 16 10 5 14 1 1 30 25 21 12 0 0 0 0 0 0 0 0 0 0 0 0
0 2 10 8 0 0 0 3 2 163 244 372 323 241 223 108 25 120 244 149 155 778 808 710 514 337 90 32 40 23 0 0 19 35 2 0 0 0 0 0 0 0 0 0 0 0 0 0 0
0 0 1 3 0 0 0 2 0 164 162 264 404 425 363 311 293 371 512 426 410 1092 842 636 487 207 117 46 1 0 0 0 2 0 0 0 0 0 0 0 0 0 0 0 0 0 0 0 0
0 9 2 6 0 2 0 21 8 71 155 186 263 420 483 503 476 521 770 761 789 1082 863 822 535 177 449 0 20 17 8 0 0 0 0 0 0 0 0 0 0 0 0 0 0 0 1 1 1
3 4 10 66 6 0 74 108 97 70 247 330 338 353 423 553 551 682 909 1015 987 863 721 948 586 601 279 204 7 1 0 0 0 0 0 0 0 0 0 0 0 0 0 0 3 9 12 0 15
40 61 54 56 63 51 64 98 35 149 198 286 370 500 481 512 631 859 1117 1089 1072 952 1039 724 463 351 91 1 0 0 2 8 9 3 10 0 0 0 0 0 0 1 3 9 18 20 31 45 0
29 54 105 84 67 20 102 52 94 212 172 156 236 435 560 649 844 1122 1238 1255 1145 930 726 469 309 45 1 0 0 1 20 23 9 1 0 0 0 4 0 1 5 7 16 27 66 93 78 79 59
128 149 138 101 87 181 133 98 110 190 187 191 184 309 578 798 902 644 688 442 304 413 324 49 6 7 0 0 2 13 18 1 13 4 1 0 0 1 5 8 13 18 18 36 49 63 50 60 70
146 199 277 183 158 167 145 89 61 79 75 103 210 326 613 610 488 208 104 24 20 26 4 0 0 2 3 11 19 3 0 2 2 1 0 0 0 0 0 1 0 0 0 2 21 54 93 67 98
168 141 187 40 50 69 134 2 206 131 29 85 230 373 430 375 275 15 0 0 0 0 0 0 4 11 17 11 0 0 0 0 0 0 0 0 0 0 0 0 0 0 0 5 21 57 110 80 122
144 40 114 87 168 26 0 57 157 37 18 116 287 418 356 276 87 0 0 0 0 0 3 1 14 7 0 0 0 2 8 10 17 0 0 0 0 0 0 0 0 0 0 1 12 48 89 102 84
58 59 39 6 0 0 25 0 131 15 0 52 274 390 277 179 30 0 0 0 0 1 6 9 4 0 0 1 4 6 14 13 0 0 0 0 0 0 0 0 0 0 1 5 18 42 56 60 90
100 22 2 9 13 0 0 23 0 0 0 3 154 301 302 134 16 0 0 1 3 7 8 2 0 1 8 17 7 11 2 0 0 0 0 0 0 0 0 0 0 1 6 12 11 36 43 33 30
6 35 42 8 0 0 7 0 0 0 0 0 13 167 242 112 41 13 2 4 4 0 0 0 5 10 14 20 4 0 0 0 0 0 0 0 0 0 0 0 2 6 6 12 15 15 7 19 12

GFSSGP_con_mucape_042.txt.gz
CAPE
0 0 0 0 0 0 0 0 125 447 575 439 362 518 762 736 864 520 475 467 307 289 391 557 759 881 911 984 967 897 791 492 351 306 353 295 273 263 245 172 109 18 0 0 0 0 0 0 0
0 0 0 0 0 0 0 163 805 554 475 386 241 255 494 725 790 619 636 562 431 402 287 416 753 978 1134 1037 945 821 644 435 451 295 223 256 148 56 0 154 167 19 0 0 0 0 0 0 0
0 0 0 0 0 0 86 535 434 325 288 256 182 90 183 395 499 592 684 562 593 309 491 567 665 862 1087 1024 967 805 663 532 441 265 162 17 0 0 0 225 149 130 0 0 0 0 0 0 0
0 0 0 0 0 0 470 770 345 435 281 183 54 46 119 171 149 637 628 547 507 722 520 410 575 787 1021 967 998 818 616 502 355 235 184 16 0 39 60 239 205 39 0 0 0 0 0 0 0
0 0 0 0 0 0 18 576 498 276 218 183 49 12 0 10 402 793 754 578 492 365 320 351 510 742 937 972 827 690 636 522 386 273 181 150 32 27 55 219 185 59 0 0 0 0 0 0 14
0 0 0 0 0 27 7 566 585 370 210 55 123 122 95 0 1 419 600 398 260 144 249 383 698 791 907 870 725 621 565 497 426 300 223 240 150 173 177 256 250 141 43 0 0 0 0 0 0
0 0 0 0 0 5 361 447 202 28 13 81 5 514 661 95 146 510 169 186 49 144 266 526 670 782 578 425 417 473 495 506 483 386 328 334 338 301 379 361 224 154 108 0 0 0 0 0 0
0 0 0 0 0 294 255 56 184 17 3 5 0 20 433 796 481 18 64 85 7 194 229 451 698 590 438 277 324 348 374 382 337 258 192 142 132 236 377 220 108 51 0 0 0 0 0 0 0
0 0 0 6 164 297 134 0 58 134 28 284 238 778 884 990 513 58 3 122 145 186 392 468 481 445 346 283 310 362 433 358 228 162 145 30 15 43 153 33 8 0 0 0 0 0 0 0 0
0 0 0 101 309 58 5 0 25 0 3 35 511 1303 1304 1011 394 506 168 130 46 185 271 349 406 393 151 44 142 113 140 61 42 72 150 209 421 140 100 0 0 0 0 0 0 0 0 0 0
0 0 0 53 72 28 29 77 161 43 28 29 620 1321 1473 1200 1106 851 640 253 223 237 239 222 309 250 54 33 65 56 106 247 540 559 511 698 739 439 203 67 0 52 0 11 0 7 0 0 0
0 0 0 26 157 78 48 135 1 6 0 0 112 1396 1220 1194 1063 934 605 336 168 172 196 218 172 276 230 86 143 303 492 680 722 776 687 714 690 718 411 171 177 64 9 0 0 0 0 0 0
0 1 2 0 0 31 26 29 2 24 2 14 246 1282 1270 952 1006 928 467 111 118 49 80 81 136 332 315 581 675 543 520 621 560 857 549 431 602 589 357 127 16 0 0 2 0 0 0 0 0
0 4 0 0 0 2 8 12 23 50 35 1253 1386 1341 1140 903 830 251 13 156 125 41 56 50 124 400 578 695 642 507 567 624 501 381 320 361 396 496 223 9 0 0 6 0 0 0 0 0 0
0 0 0 0 0 3 0 16 20 120 150 729 941 816 659 580 260 34 154 149 48 29 10 101 291 644 436 393 309 239 196 55 30 44 82 86 102 117 68 38 8 4 0 0 0 0 0 0 0
0 0 0 0 0 16 45 38 15 122 217 555 641 488 415 253 69 56 172 163 72 210 200 323 516 456 325 277 216 91 45 1 11 3 2 3 6 5 9 23 3 0 0 0 0 0 0 0 0
0 0 0 0 0 13 21 3 37 61 153 204 201 188 177 71 4 63 166 307 331 357 551 620 429 368 199 31 34 41 8 8 0 0 0 1 1 0 0 0 0 0 0 0 0 0 0 0 0
0 0 0 10 11 11 41 10 0 62 184 194 136 52 0 0 0 9 27 217 508 653 534 407 270 116 106 36 11 23 16 5 0 0 0 1 0 0 0 0 0 0 0 0 0 0 0 0 0
0 2 5 2 0 0 0 1 0 25 143 246 191 129 54 12 9 94 182 187 628 803 542 368 292 68 62 59 29 4 3 0 0 0 0 0 0 0 0 0 0 0 0 0 0 0 0 0 0
0 4 40 0 0 0 0 0 0 2 72 268 291 210 203 123 43 347 434 521 920 999 794 488 321 294 34 39 34 0 0 0 0 0 0 0 0 0 0 0 0 0 0 0 0 0 0 0 0
0 26 44 8 1 0 1 0 0 2 12 82 227 343 341 287 375 494 598 724 992 1149 704 548 360 169 173 21 27 0 0 0 0 0 0 0 0 0 0 0 0 0 0 0 0 0 2 0 0
35 30 17 21 19 0 8 35 9 0 10 61 124 192 372 455 595 570 779 893 1241 1127 731 730 545 354 405 149 0 0 0 0 0 0 1 0 0 0 0 0 0 0 0 0 0 0 0 2 0
15 35 65 62 30 75 0 2 16 0 1 73 314 372 408 466 565 631 867 1035 760 747 854 884 688 217 39 0 0 0 15 11 10 10 11 12 6 0 0 0 2 3 3 1 1 7 5 12 22
75 67 88 57 113 85 3 30 30 0 9 6 146 308 449 576 577 830 1014 1104 791 942 991 696 309 100 0 0 7 4 14 3 0 0 1 0 0 0 0 0 0 0 0 0 0 0 0 0 19
24 42 230 19 79 264 42 82 67 21 84 176 123 271 451 634 850 997 945 924 729 557 602 367 63 7 0 0 1 3 0 0 0 5 9 7 0 0 0 0 0 0 0 0 0 0 0 15 37
50 84 155 84 56 255 78 71 164 107 56 102 219 200 547 769 824 542 584 306 286 319 156 31 0 0 0 9 9 1 0 0 1 6 22 18 0 0 0 0 0 0 0 0 0 0 0 9 30
24 105 94 76 315 476 1 0 167 42 38 90 185 331 589 545 421 218 168 64 41 15 0 0 0 0 0 3 0 0 1 2 8 12 11 0 0 0 0 0 0 0 0 0 0 0 12 7 12
0 3 135 44 11 0 0 9 168 20 9 59 289 476 520 401 313 101 1 0 0 0 0 0 9 1 0 0 0 2 7 8 19 27 0 0 0 0 0 0 0 0 0 1 0 0 0 0 2
82 57 0 0 191 199 192 17 0 0 0 4 218 443 524 402 266 80 0 0 0 1 9 1 5 3 0 0 1 10 26 31 33 10 0 0 0 0 0 0 0 0 0 0 0 0 0 1 3
3 23 52 590 32 125 327 11 0 0 0 0 13 248 415 405 259 36 0 0 0 8 7 0 0 0 0 0 11 17 36 36 25 1 0 0 0 0 0 0 0 0 0 0 0 0 7 0 4

GFSSGP_con_mucape_045.txt.gz
CAPE
0 0 0 0 0 0 0 0 640 695 608 491 935 891 874 884 786 470 553 497 314 596 701 796 704 837 924 988 946 819 655 367 155 200 286 194 137 67 42 53 50 57 0 0 0 0 0 0 0
0 0 0 0 0 0 0 114 693 611 523 348 279 916 845 916 897 774 651 651 309 572 602 623 664 862 990 919 822 656 451 256 266 248 181 117 34 1 2 68 112 68 0 0 0 0 0 0 0
0 0 0 0 0 0 0 498 672 574 493 301 224 356 612 713 870 793 548 517 254 358 490 688 753 805 864 877 785 564 450 321 235 161 83 0 9 16 18 183 130 90 0 0 0 0 0 0 0
0 0 0 0 0 0 0 69 363 437 278 223 207 306 367 163 507 666 612 340 319 354 437 539 643 639 957 975 682 542 358 220 163 127 127 23 54 48 43 188 146 15 0 0 0 0 0 0 0
0 0 0 0 0 11 198 283 478 296 190 161 82 40 136 895 787 693 617 535 322 261 314 269 366 565 957 829 657 451 331 231 181 200 205 169 53 42 55 222 166 58 3 0 0 0 0 0 0
0 0 0 0 0 132 586 349 373 254 226 183 76 97 8 490 754 667 438 162 102 139 170 150 310 624 764 660 545 401 300 221 201 249 236 229 192 216 154 233 209 108 38 0 0 0 0 0 0
0 0 0 0 0 198 443 232 155 68 34 4 418 496 153 229 424 551 323 202 115 10 93 130 298 444 455 370 313 262 285 238 241 242 239 238 243 299 363 346 208 87 3 0 0 0 0 0 0
0 0 0 0 0 230 302 255 40 12 1 76 280 420 246 421 168 133 37 25 4 50 106 174 293 322 255 231 234 219 230 209 188 173 165 156 201 254 161 81 128 62 0 0 0 0 0 0 0
0 0 0 0 347 388 201 26 29 0 19 584 838 567 563 346 65 25 18 3 45 101 181 171 255 235 181 178 236 204 228 128 100 99 73 24 8 9 40 0 0 0 0 0 0 0 0 0 0
0 0 0 0 269 91 40 17 22 50 59 489 1102 697 505 334 39 32 7 2 17 106 166 203 296 127 96 139 82 91 77 4 1 36 25 21 26 20 0 0 0 0 0 0 0 0 0 0 0
0 0 0 18 110 63 92 3 36 17 16 118 475 570 511 390 77 64 31 0 112 160 93 310 294 99 0 10 1 0 0 0 0 136 199 192 118 68 36 0 0 0 0 0 0 0 0 0 0
0 0 0 120 112 76 129 67 9 4 10 9 293 410 562 599 341 144 66 59 89 180 161 337 305 3 0 0 1 133 126 169 206 353 321 303 266 231 143 27 13 0 0 0 0 0 0 0 0
0 0 0 233 127 113 40 47 45 51 0 13 92 140 584 885 452 248 97 133 170 177 165 131 27 0 0 9 82 192 289 314 366 315 243 215 272 116 56 3 0 3 0 0 0 0 0 0 0
2 0 2 3 43 91 30 2 19 10 2 41 8 36 531 828 409 425 154 95 126 117 40 132 28 3 219 197 211 274 284 292 280 230 147 214 219 62 11 7 0 0 0 0 0 0 0 0 0
1 0 0 0 39 54 1 0 4 66 212 450 410 638 949 672 392 151 126 49 56 16 0 55 166 331 250 240 230 187 194 213 170 168 98 48 66 86 24 12 1 0 0 0 0 0 0 0 0
0 0 0 0 0 8 0 16 60 209 879 835 991 809 772 353 165 76 64 66 48 12 0 72 325 375 272 257 220 183 145 11 6 1 0 8 26 26 31 43 0 0 0 0 0 0 0 0 0
0 0 0 0 0 20 26 10 7 268 755 682 522 471 393 241 132 51 47 59 24 30 121 393 377 420 309 219 170 109 40 2 2 4 0 0 5 4 1 0 0 0 0 0 0 0 0 0 0
0 0 0 0 6 32 14 10 1 187 517 586 375 327 183 25 55 68 68 117 176 245 298 428 390 370 314 206 117 49 35 22 0 0 0 0 0 0 0 0 0 0 0 0 0 0 0 0 0
0 2 3 0 4 14 8 0 0 39 156 151 163 116 52 0 22 46 104 195 279 373 401 429 408 361 200 55 38 27 22 3 10 8 0 0 0 0 0 0 0 0 0 0 0 0 0 0 0
1 0 0 0 0 2 0 12 4 8 92 69 39 6 3 0 0 2 111 378 424 468 460 462 367 178 26 25 19 22 5 0 0 0 0 0 0 0 0 0 0 0 0 0 0 0 0 0 0
21 31 7 6 7 0 0 0 0 6 20 144 84 50 7 0 0 15 83 586 541 559 613 506 363 225 71 60 19 26 0 0 0 0 0 0 0 0 0 0 0 0 0 0 0 0 0 0 0
65 21 16 5 7 0 3 0 2 0 1 165 205 185 174 90 90 184 302 714 785 771 775 598 490 334 80 36 4 0 0 0 0 0 0 0 0 0 0 0 0 0 0 0 0 0 0 0 0
1 13 7 9 6 13 8 1 1 0 0 0 14 191 191 175 144 216 392 590 868 812 875 650 466 232 171 76 2 0 0 0 0 0 0 0 0 2 0 0 0 0 0 0 0 0 0 0 0
45 1 28 30 10 1 13 2 0 0 1 3 39 179 179 184 203 419 580 884 1003 969 789 498 324 243 257 29 0 0 0 0 0 0 3 8 8 2 4 0 0 0 0 0 0 0 0 0 0
28 41 31 6 3 7 26 0 3 11 7 3 7 50 146 379 444 531 819 796 835 729 629 532 507 364 136 0 0 0 0 0 1 2 12 19 15 1 2 0 0 0 0 0 0 0 0 0 0
32 48 16 0 0 2 30 9 15 3 20 6 38 50 63 440 707 842 946 939 855 727 572 479 457 191 53 2 0 0 0 0 3 8 13 19 13 2 0 0 0 0 0 0 0 0 0 0 0
35 51 58 12 3 27 0 13 13 6 17 127 48 85 486 734 783 863 935 829 754 708 550 395 229 103 1 0 0 0 0 5 15 23 14 13 13 12 0 0 0 0 0 0 0 0 0 0 1
10 0 21 8 0 0 0 3 26 13 72 159 147 406 614 646 639 645 640 562 381 343 307 188 76 39 0 0 0 0 0 8 21 19 6 0 0 20 0 0 0 0 0 0 0 0 0 0 0
20 12 2 0 0 2 19 0 31 0 1 164 247 502 561 525 456 389 298 247 187 184 208 123 22 0 1 0 0 6 18 25 20 19 16 6 1 0 0 0 0 0 0 0 0 0 0 0 0
28 39 52 1 0 2 0 0 0 0 0 0 120 381 440 404 317 245 137 40 0 0 0 0 0 4 5 5 3 36 49 25 34 16 13 13 0 0 0 0 0 0 0 0 0 0 0 0 0

GFSSGP_con_mucape_048.txt.gz
CAPE
1 0 0 0 0 0 0 0 533 718 644 999 962 958 983 965 793 407 618 569 633 775 702 757 784 863 916 968 880 702 413 176 83 100 135 135 81 43 126 125 93 13 0 0 0 0 0 0 0
0 0 0 0 0 0 0 57 254 657 709 841 820 900 823 1002 1014 785 696 614 680 782 656 605 667 809 902 896 793 576 240 136 214 143 58 133 37 21 32 71 71 44 0 0 0 0 0 0 0
0 0 0 0 0 0 0 436 785 669 536 447 415 568 617 919 1034 824 773 680 665 749 524 580 611 749 903 809 651 434 317 271 221 162 82 40 29 36 21 133 104 69 0 0 0 0 0 0 0
0 0 0 0 0 3 0 0 543 564 460 345 429 382 565 780 1022 1018 964 620 551 598 530 574 629 769 797 755 581 391 273 211 169 225 237 122 76 56 57 203 126 32 0 0 0 0 0 0 0
0 0 0 0 6 64 410 327 356 483 285 238 176 143 333 1084 959 934 812 445 473 539 454 388 580 659 723 728 487 329 260 190 230 277 260 228 61 60 92 232 167 77 0 0 0 0 0 0 0
0 0 0 7 1 179 506 442 430 139 138 125 126 115 191 1034 871 756 530 358 199 118 217 317 316 376 456 494 381 287 256 204 246 271 240 231 214 180 168 199 179 75 0 0 0 0 0 0 0
0 0 0 0 0 0 420 402 369 198 30 13 189 156 312 963 784 649 259 170 30 142 107 75 58 271 389 330 278 229 228 206 237 238 215 232 237 272 322 302 176 43 1 0 0 0 0 0 0
0 0 0 0 0 10 402 219 92 53 22 33 137 272 84 698 676 548 312 105 83 61 41 9 53 237 350 327 257 209 215 182 186 164 151 167 190 201 196 183 144 48 0 0 0 0 0 0 0
0 0 0 0 1 212 207 90 36 0 63 450 796 366 239 244 424 398 295 160 137 7 4 2 115 129 207 191 179 192 182 146 142 149 111 25 18 5 0 2 23 4 0 0 0 0 0 0 0
0 0 0 0 22 216 95 14 0 3 0 304 228 328 236 200 64 68 51 27 36 12 12 88 129 188 121 121 95 42 31 8 1 10 7 20 12 15 0 0 14 0 0 0 0 0 0 0 0
0 0 0 0 61 95 5 0 0 0 1 229 271 368 178 79 60 33 55 57 23 37 169 151 196 64 23 21 20 1 0 19 67 81 40 61 45 1 0 0 0 0 0 0 0 0 0 0 0
0 0 0 0 113 88 68 68 9 0 0 525 262 42 88 80 54 71 51 55 78 112 179 274 137 21 1 0 0 1 0 70 184 228 225 197 36 89 105 0 0 0 0 0 0 0 0 0 0
0 9 0 21 58 202 174 62 15 1 39 238 329 55 69 131 63 29 30 58 120 140 174 290 63 7 3 1 0 9 30 135 228 266 293 297 245 71 0 0 0 0 0 0 1 0 0 0 0
17 3 4 100 128 147 219 40 13 30 263 277 143 373 114 74 88 88 75 17 94 110 153 178 41 0 0 5 133 156 197 321 345 318 288 205 236 69 31 3 2 0 0 0 0 0 0 0 0
16 1 13 76 93 119 29 20 6 74 33 149 65 237 283 320 210 175 142 87 185 179 217 323 23 52 56 158 177 225 277 346 294 158 154 139 119 48 38 7 7 3 6 0 0 0 0 0 0
27 0 0 61 118 44 10 0 47 107 155 233 64 169 404 529 447 267 216 243 231 184 165 144 99 63 101 190 256 319 369 230 109 65 66 6 14 27 29 30 23 0 0 0 0 0 0 0 0
17 0 1 0 35 28 3 0 60 137 501 597 639 751 779 621 484 332 282 269 297 103 69 225 232 265 283 292 296 268 225 85 16 11 0 0 0 4 22 11 1 0 0 0 0 0 0 0 0
1 0 0 0 0 15 25 0 23 386 764 831 868 894 698 661 372 349 253 263 168 65 156 264 337 301 302 276 222 179 145 84 19 0 0 0 0 0 3 0 0 0 0 0 0 0 0 0 0
0 0 0 0 0 1 37 13 5 316 831 950 901 709 318 378 186 309 228 172 110 99 190 203 377 393 358 269 208 150 92 21 12 15 15 6 0 2 0 0 0 0 0 0 0 0 0 0 0
5 0 0 0 0 0 8 6 0 648 828 732 499 493 220 137 174 232 221 165 183 245 319 393 394 415 362 248 157 87 34 42 45 27 9 0 0 0 0 0 0 0 0 0 0 0 0 0 0
1 0 0 0 0 2 0 2 0 66 361 484 342 377 286 89 93 125 143 203 280 328 334 452 463 385 372 314 79 31 43 45 0 0 0 0 0 0 0 0 0 0 0 0 0 0 0 0 0
0 0 0 2 1 0 13 0 0 0 9 137 260 234 226 75 62 93 166 314 296 288 344 483 488 436 352 88 27 62 34 0 0 0 0 0 0 0 0 0 0 0 0 0 0 0 0 0 0
0 0 0 1 0 0 0 0 0 0 0 22 119 121 125 108 41 35 300 330 325 335 403 524 552 448 394 172 81 34 12 0 0 0 0 0 0 0 0 0 0 0 0 0 0 0 0 0 0
7 0 0 0 1 0 0 0 0 0 0 0 97 111 129 150 103 71 415 426 440 510 538 562 572 562 387 138 125 0 0 0 0 0 0 0 0 0 0 0 1 0 0 0 0 0 0 0 0
27 22 14 5 1 0 1 0 0 0 0 0 0 54 91 100 156 161 441 642 654 699 693 763 593 477 225 136 6 4 0 0 0 0 1 2 0 6 13 4 0 2 0 0 0 0 0 0 0
14 41 27 0 0 0 1 2 0 4 0 0 0 8 3 150 232 237 550 677 719 829 858 834 624 403 208 222 84 32 0 0 0 1 1 0 11 14 0 0 0 1 3 0 0 0 0 0 0
12 29 38 21 2 12 0 0 19 2 6 64 70 21 1 139 245 335 477 744 823 916 919 670 472 348 240 316 43 3 4 38 20 8 22 57 9 16 6 2 0 0 0 0 0 0 0 0 0
32 14 15 31 0 0 0 0 7 10 29 141 82 52 156 296 416 590 654 686 814 897 710 581 554 610 463 186 48 33 68 71 44 52 47 89 30 0 2 0 2 0 0 0 0 0 0 0 0
10 0 1 1 0 1 0 0 30 11 53 143 97 100 480 644 781 825 910 997 1009 772 584 435 500 484 306 158 98 99 61 74 71 47 55 14 0 4 6 0 0 0 0 0 0 0 0 0 0
6 1 4 33 6 0 0 0 0 0 11 110 107 203 514 592 583 689 875 915 844 713 472 242 223 168 70 57 97 85 61 71 88 35 74 15 16 18 0 0 0 0 0 0 0 0 0 0 0

GFSSGP_con_mucape_051.txt.gz
CAPE
0 0 0 0 0 0 0 0 2 752 765 1034 1059 1012 1013 900 667 367 621 533 819 871 949 923 792 812 848 851 686 452 229 46 16 13 111 148 202 146 139 86 45 38 0 0 0 0 1 73 185
0 0 0 0 0 0 0 0 194 160 1065 1066 830 888 868 1027 1072 797 723 773 889 929 903 782 702 757 840 740 557 354 146 82 79 113 66 146 106 61 84 142 98 66 22 0 0 0 0 0 44
0 0 0 0 0 0 0 0 653 756 1054 497 664 748 788 849 1047 797 811 964 863 908 720 544 570 709 795 673 442 306 248 208 208 230 121 86 51 34 58 183 113 69 17 0 0 0 0 0 0
0 0 0 0 3 0 0 197 123 685 503 399 389 493 686 807 918 995 1061 1061 894 795 589 378 405 653 764 635 493 408 266 209 235 255 252 124 63 74 104 180 122 88 0 0 0 0 0 0 0
0 0 0 0 11 1 624 467 425 458 267 213 133 265 528 1008 898 1047 925 842 623 650 554 256 380 614 708 631 499 355 256 277 320 326 289 254 179 93 169 217 166 99 14 0 0 0 0 0 0
0 0 0 14 4 43 526 493 509 448 226 125 174 184 680 844 901 812 772 472 367 370 396 199 328 364 281 439 373 292 284 351 355 319 290 262 244 230 226 236 181 105 40 5 0 0 0 0 0
0 0 0 6 1 0 294 438 521 257 167 28 43 137 628 551 1024 713 510 393 163 91 2 11 55 184 353 291 289 301 320 346 339 304 282 279 250 262 273 271 193 101 44 0 0 0 0 0 0
0 0 5 0 1 0 250 447 266 313 102 1 39 186 345 569 907 510 446 272 64 18 105 47 55 120 164 188 251 282 328 354 320 319 281 238 255 280 279 217 161 79 2 0 3 0 0 0 0
0 0 3 2 0 5 338 389 146 54 93 324 491 342 177 579 627 155 141 38 1 14 27 48 38 109 107 148 222 268 320 266 224 205 183 78 32 22 0 45 81 1 0 3 0 0 0 0 0
0 0 1 0 0 116 259 207 31 0 437 588 471 220 219 668 518 148 104 102 25 6 3 1 1 49 154 184 166 100 116 80 61 41 26 4 1 0 0 11 23 1 0 0 0 0 0 0 0
0 0 0 0 20 29 165 49 31 61 277 440 432 427 521 476 128 104 89 44 39 40 7 0 4 45 181 140 113 47 45 33 23 16 31 30 23 5 0 0 0 0 0 0 0 0 0 0 0
0 0 0 0 20 46 58 103 43 50 70 395 324 411 281 126 64 76 55 18 21 2 18 104 106 132 120 64 33 8 6 5 26 27 54 63 12 17 0 0 0 0 0 0 0 0 0 0 0
0 3 0 0 70 122 176 128 64 38 488 467 361 77 88 67 61 70 40 7 18 58 144 202 172 80 34 1 0 0 14 81 181 168 200 166 67 92 20 0 0 0 0 0 0 0 0 0 0
24 10 43 116 186 244 218 114 66 356 578 349 257 126 84 118 89 85 75 61 97 120 166 215 193 25 24 1 0 0 25 107 226 310 348 330 176 110 0 0 8 6 0 0 1 0 0 0 0
38 6 126 200 223 225 261 56 16 312 437 230 70 132 98 77 82 94 77 74 156 178 190 306 276 24 3 0 0 10 135 241 354 347 335 262 226 116 26 19 16 19 14 18 0 0 0 0 0
46 11 121 145 206 146 100 3 83 269 299 199 287 240 130 86 138 121 83 37 172 144 142 264 86 11 0 5 20 163 308 411 378 301 206 184 178 105 56 28 33 41 42 1 0 0 0 0 0
20 10 1 143 167 78 75 8 25 107 334 201 273 380 295 192 243 147 59 11 212 174 148 251 101 0 1 25 182 217 325 394 310 250 107 96 38 22 9 29 28 35 0 0 0 0 0 0 0
34 13 6 8 36 68 56 41 92 159 246 336 252 321 557 439 350 346 182 117 280 309 330 359 320 21 37 108 219 301 368 382 281 119 47 2 0 0 13 29 1 0 0 0 0 0 0 0 0
30 2 0 1 4 0 0 7 59 207 662 641 646 573 532 610 528 446 258 234 354 334 271 192 148 86 72 206 290 338 384 306 169 57 7 0 2 19 0 0 0 0 0 0 0 0 0 0 0
0 0 0 0 4 10 0 1 1 154 685 607 577 859 853 718 624 492 344 331 355 372 219 126 111 194 272 354 381 379 266 155 65 22 22 39 48 11 0 0 0 0 0 0 0 0 0 0 0
0 0 0 1 0 2 0 0 0 5 474 705 629 724 930 752 749 656 450 386 280 359 89 149 186 256 311 378 358 294 184 54 40 49 64 81 20 0 0 0 0 0 0 0 0 0 0 0 0
0 0 0 0 0 0 0 0 0 0 258 676 730 685 736 424 622 474 289 373 287 344 120 234 205 278 296 351 372 265 128 63 57 75 40 2 0 0 0 0 0 0 0 0 0 0 0 0 0
0 0 0 0 0 6 0 0 0 0 85 560 689 403 512 234 273 310 345 360 271 253 127 237 202 237 334 389 324 303 197 60 57 18 0 0 0 0 0 0 0 3 0 7 1 0 0 0 0
0 0 0 0 0 0 0 0 0 0 0 0 88 446 298 308 236 172 217 219 192 154 138 219 208 263 281 430 393 274 89 50 53 2 0 0 0 0 1 3 6 19 7 6 3 0 0 0 0
0 0 0 0 0 0 0 0 0 0 0 0 0 11 276 248 249 138 133 176 151 107 134 221 231 329 415 512 403 130 81 14 8 0 0 0 0 0 11 2 18 1 4 7 5 0 0 0 0
0 0 0 0 0 0 0 0 0 0 0 0 0 0 31 117 125 110 213 255 260 202 244 308 359 492 534 422 219 46 3 15 2 1 5 5 5 3 2 8 0 0 0 0 1 0 0 0 0
0 0 0 0 0 0 0 0 0 0 1 4 1 0 16 93 67 84 255 376 379 361 394 423 444 570 484 412 212 109 27 21 29 47 45 39 22 30 29 1 0 11 8 4 0 0 0 0 0
4 0 0 2 0 0 0 0 0 9 35 14 0 0 0 1 52 116 278 449 472 496 539 647 697 718 566 341 199 201 114 69 30 27 37 25 8 1 2 6 0 4 0 0 0 0 0 0 0
0 0 0 0 0 0 0 0 0 12 14 0 0 1 12 26 114 185 357 477 559 602 636 774 765 654 472 215 226 318 154 89 59 29 26 45 1 8 0 1 2 3 14 0 0 0 0 0 0
2 0 0 0 0 0 0 0 0 0 1 0 1 0 143 385 392 480 551 607 632 756 823 953 871 619 552 358 419 267 128 55 42 38 72 23 0 1 4 1 0 4 5 0 0 0 0 0 0

GFSSGP_con_mucape_054.txt.gz
CAPE
0 0 0 0 0 0 0 0 0 15 769 1117 1035 1044 907 813 603 422 595 683 947 1144 905 750 775 869 728 560 422 253 153 81 24 22 130 206 183 144 110 92 56 74 18 59 261 210 193 240 392
0 0 0 0 0 0 0 0 7 388 646 732 707 751 690 980 900 819 709 956 1173 1093 915 697 795 830 622 446 292 179 117 114 121 131 145 193 185 195 193 126 56 65 36 6 91 289 371 268 106
0 0 0 0 0 0 0 0 0 317 627 502 588 572 285 798 1045 970 807 1026 1146 1019 1045 690 633 623 511 357 249 202 187 171 177 232 196 85 149 196 178 118 49 72 40 0 0 0 0 0 14
0 0 0 0 0 0 0 26 474 425 544 459 418 332 440 973 1017 1026 1100 1086 1015 907 827 477 548 530 510 407 374 284 256 249 245 294 312 177 148 115 217 150 83 92 49 0 0 0 0 0 0
0 0 0 0 0 0 349 666 530 542 444 333 288 359 551 848 1072 1169 1068 744 590 627 935 374 432 504 566 536 448 379 333 327 329 379 312 298 260 222 273 221 169 63 52 9 0 0 0 0 0
0 0 0 0 0 0 607 641 590 570 357 239 168 206 588 939 934 1004 1025 706 730 538 346 277 318 194 337 395 333 364 364 377 417 373 320 345 314 288 254 240 194 131 47 23 9 1 0 0 0
0 0 0 0 2 0 56 508 610 548 337 224 193 49 485 749 974 1116 962 654 396 310 136 63 52 25 240 244 298 345 402 399 394 371 352 336 316 276 254 209 154 124 121 84 44 3 0 0 0
0 0 0 0 2 39 322 524 553 628 452 201 297 233 450 518 725 811 642 379 416 151 91 3 43 32 224 211 295 320 357 371 371 347 313 305 336 309 266 182 143 108 81 12 3 0 0 0 0
0 0 1 0 9 1 396 570 396 294 370 553 673 291 426 567 550 520 551 149 74 51 25 0 11 0 177 187 242 325 427 396 333 282 245 99 83 50 1 96 61 113 7 0 0 0 0 0 0
0 0 0 0 0 0 233 538 227 162 581 551 682 618 480 505 483 358 213 150 74 31 24 1 9 35 50 105 102 184 278 198 107 66 38 27 5 0 5 18 38 0 0 0 0 0 0 0 0
0 0 0 0 12 33 126 394 104 236 612 524 561 733 833 372 182 148 116 67 39 15 14 21 6 55 91 75 79 107 125 52 12 16 1 4 0 0 0 0 0 0 0 0 0 0 0 0 0
0 0 4 6 0 27 177 122 141 132 182 500 500 1082 470 252 84 212 94 41 37 11 7 0 0 35 134 106 42 43 32 22 5 0 7 5 0 0 0 0 0 0 0 0 0 0 0 0 0
0 1 1 0 8 96 170 218 182 384 495 621 1018 356 140 185 249 134 98 15 34 0 0 12 35 47 131 82 35 19 2 0 0 45 53 44 0 0 3 11 0 0 0 0 0 0 0 0 0
2 27 71 35 112 206 300 233 195 581 545 1084 681 313 86 108 151 148 112 81 7 1 18 119 87 64 116 37 5 0 0 7 24 76 137 121 44 81 47 22 0 1 8 19 15 5 0 0 0
23 23 126 173 211 289 330 123 44 537 1091 445 209 173 133 105 133 123 79 69 12 19 91 169 203 150 71 0 0 0 0 0 92 222 273 321 165 146 62 22 17 23 29 23 18 1 0 0 0
62 11 60 122 233 189 219 19 119 726 777 391 267 146 151 112 102 117 81 83 80 94 183 253 248 193 37 0 0 0 0 51 201 298 318 371 260 126 87 49 29 21 24 29 6 0 0 0 0
40 14 14 85 198 143 142 13 103 576 340 310 205 137 202 138 120 91 65 52 126 162 182 252 256 269 1 0 0 0 45 169 222 305 241 238 161 145 86 49 27 47 50 11 0 0 0 0 0
28 18 9 11 92 135 60 43 21 418 327 265 178 187 178 167 116 148 102 17 93 183 153 196 246 158 0 0 0 1 100 244 346 333 234 138 144 85 26 12 37 57 6 0 0 0 0 0 0
18 0 0 1 5 26 6 0 0 82 310 202 218 325 345 249 246 248 187 104 93 202 190 125 211 73 0 0 9 76 164 223 314 218 142 129 30 7 26 45 25 0 0 0 0 0 0 0 0
10 2 0 1 0 2 4 8 1 85 233 253 193 215 284 470 429 355 377 209 134 148 291 287 264 323 36 42 53 79 143 243 244 267 181 71 31 39 58 4 0 0 0 0 0 0 0 0 0
6 2 3 0 1 14 1 6 2 16 211 447 417 333 294 466 553 564 485 447 310 171 326 381 379 439 104 49 58 94 198 246 185 172 119 45 47 58 36 0 0 0 0 0 0 0 0 0 0
0 0 0 0 0 0 0 0 0 0 73 579 557 510 507 536 567 598 594 562 469 294 376 475 317 218 65 37 36 161 277 265 224 109 46 47 75 57 0 0 0 0 0 0 0 0 0 0 0
0 0 0 0 0 0 0 0 0 0 0 70 558 564 501 638 672 683 684 628 524 375 407 451 407 145 59 73 156 267 335 279 183 45 48 56 46 3 1 0 0 0 1 0 3 0 0 0 0
0 0 0 0 0 0 0 0 0 0 0 0 20 439 604 566 732 872 743 726 642 501 457 389 413 148 115 141 209 276 279 189 131 38 63 88 3 6 0 0 0 0 6 17 6 3 7 2 4
0 0 0 0 0 0 0 0 0 0 0 0 0 72 485 650 599 684 398 482 486 316 412 345 373 235 164 93 117 220 286 121 94 45 82 91 5 0 0 0 2 10 12 17 1 5 1 0 2
0 0 0 0 0 0 0 0 0 0 0 0 0 0 4 329 636 480 398 294 336 243 304 305 296 250 130 99 81 198 265 274 115 65 28 9 0 4 1 18 12 21 19 3 5 0 3 7 7
0 0 0 0 0 0 0 0 0 0 0 3 0 2 0 0 81 477 460 377 307 198 177 145 171 142 114 124 124 288 331 88 79 10 0 18 21 35 26 2 1 0 0 1 5 1 6 8 0
0 0 0 0 0 0 0 0 0 0 2 0 0 0 0 1 24 101 310 365 310 189 137 168 146 110 144 190 244 337 270 128 60 13 26 38 45 28 20 12 0 14 0 1 0 1 4 2 0
0 0 0 0 0 0 0 0 0 0 5 0 0 0 0 0 10 46 47 135 198 208 203 218 228 251 307 376 471 425 271 208 123 67 80 77 62 52 56 28 0 8 14 3 0 0 0 0 0
0 0 0 0 0 0 0 0 0 0 0 0 1 0 0 47 68 139 194 203 291 321 353 400 408 386 434 644 658 463 350 290 246 134 68 55 62 71 41 0 2 2 10 0 0 0 0 0 0

GFSSGP_con_mucape_057.txt.gz
CAPE
0 0 0 0 0 0 0 0 0 0 88 1080 1268 1184 1023 940 740 619 635 605 1062 970 765 810 875 890 748 654 413 252 176 138 136 241 229 153 129 145 130 152 235 656 461 428 231 465 342 0 0
0 0 0 0 0 0 0 0 1 165 423 724 724 720 593 674 928 660 559 1031 1127 946 803 783 843 779 674 459 280 226 182 220 282 314 244 206 192 171 154 125 197 657 753 491 366 564 52 0 25
0 0 0 0 0 0 0 0 3 462 872 713 624 354 412 746 907 875 852 1107 1157 955 759 748 682 601 504 323 226 204 250 293 328 293 276 301 227 184 173 108 100 245 467 339 352 96 0 5 36
0 0 0 0 0 0 0 0 653 422 629 625 540 450 685 1051 1226 1058 1144 1096 955 757 736 432 486 470 396 318 281 263 269 291 294 226 270 310 276 201 153 114 113 127 168 31 0 0 0 0 0
0 0 0 0 0 0 1 514 577 613 670 520 415 497 886 927 1146 1048 927 649 589 244 521 522 396 418 456 453 334 284 261 304 305 273 286 289 269 236 174 150 133 80 64 66 4 2 0 0 0
0 0 0 0 0 0 206 709 654 643 598 464 515 657 896 976 832 1211 928 593 605 484 387 273 365 224 89 272 343 241 282 319 317 324 325 342 337 254 208 168 144 116 53 10 0 0 0 0 0
0 0 0 1 0 1 20 613 753 645 529 378 377 569 762 1189 903 902 849 652 566 384 263 108 68 1 1 206 392 293 336 357 326 325 320 349 287 205 175 149 150 102 48 13 0 0 0 0 0
0 0 0 2 0 55 244 628 587 653 566 393 665 524 572 922 792 815 745 574 338 338 222 34 0 7 0 126 459 366 334 353 344 309 282 258 266 262 227 135 153 143 94 9 0 0 0 0 0
0 0 1 0 1 15 463 552 466 493 605 796 684 574 685 663 856 735 490 234 170 206 239 255 135 48 10 90 270 456 411 328 303 273 217 105 46 33 1 110 112 25 0 0 0 0 0 0 0
0 0 0 0 0 0 334 497 329 473 812 594 950 766 633 671 623 409 534 45 6 27 11 28 1 0 0 0 19 247 285 231 213 159 120 63 59 37 2 45 6 0 0 0 0 0 0 0 0
0 0 0 0 1 7 33 421 270 371 785 725 612 1150 596 571 548 557 355 48 67 96 62 34 15 2 23 22 90 201 176 140 133 81 83 53 92 44 11 0 0 0 0 0 0 0 0 0 0
0 0 18 3 1 9 16 221 243 270 249 359 654 860 606 575 252 431 67 50 62 48 17 7 23 64 59 96 138 150 129 96 68 80 108 46 16 1 0 0 0 0 0 0 0 0 0 0 0
0 0 15 2 0 17 84 166 247 473 661 720 827 613 662 262 90 129 28 14 58 32 26 11 19 131 115 92 99 96 89 64 79 81 137 19 0 0 2 0 0 0 2 0 0 6 2 0 0
0 20 29 87 15 111 190 266 258 418 682 558 657 714 433 180 93 59 2 14 4 7 15 2 32 127 166 88 64 46 41 34 18 25 119 51 3 2 14 16 2 2 3 2 11 13 0 0 0
0 21 37 152 143 237 330 263 152 544 565 595 673 310 133 412 318 25 16 55 0 0 0 0 18 144 173 60 18 11 9 12 17 29 81 143 48 40 58 46 31 15 8 11 15 3 0 0 0
0 6 24 117 258 257 259 142 103 419 543 545 278 285 254 188 213 157 100 56 1 0 2 100 144 149 156 48 14 6 6 17 100 106 189 150 221 63 61 44 59 52 22 14 38 0 0 0 0
5 0 3 32 185 195 269 70 111 637 527 430 321 228 253 139 183 166 139 75 42 25 70 241 311 212 141 16 0 5 26 125 126 166 325 314 261 119 61 58 39 42 25 9 0 0 0 0 0
10 1 1 1 36 169 141 106 129 635 685 530 213 147 233 270 166 160 97 105 148 95 167 323 300 231 170 0 0 9 33 55 55 208 304 253 142 76 95 42 19 13 0 0 0 0 0 0 0
5 0 1 12 3 122 83 36 2 630 647 491 365 195 196 286 253 145 139 116 162 230 215 285 246 228 244 9 2 0 5 19 171 310 304 167 159 138 49 28 5 2 6 0 0 0 0 0 0
2 7 5 2 1 1 4 18 17 245 568 421 345 238 165 301 353 236 197 149 160 204 266 217 213 246 262 27 22 21 17 17 176 285 239 130 80 55 16 6 12 0 0 0 0 0 0 0 0
0 0 1 1 1 9 2 21 37 26 149 314 268 284 269 402 537 467 262 241 204 190 248 236 203 183 221 64 40 30 21 43 159 223 188 44 100 54 20 23 27 0 0 0 0 0 0 0 0
0 0 0 0 0 0 4 0 4 0 87 214 261 329 278 322 388 628 561 381 330 222 183 244 222 263 235 355 45 32 29 24 162 160 82 51 86 66 54 19 1 0 0 0 0 3 2 2 2
0 0 0 0 0 0 0 2 4 0 0 76 393 550 593 505 481 635 773 700 450 422 275 199 181 401 382 427 400 21 19 29 66 129 64 49 60 54 43 21 0 0 0 0 0 0 8 6 5
0 0 0 0 0 0 0 0 13 0 0 0 0 325 595 605 426 534 723 712 601 605 554 440 264 373 449 364 395 89 34 52 74 90 111 67 27 47 69 0 0 0 0 0 1 2 12 10 1
0 0 0 0 0 0 0 0 6 0 0 0 0 2 341 494 404 370 568 564 650 708 709 600 417 414 508 525 321 81 47 77 156 237 181 198 46 49 52 1 0 0 4 6 8 3 0 0 1
0 0 3 0 0 0 0 0 0 0 0 3 0 0 0 258 387 498 401 526 749 879 818 782 640 489 500 469 452 79 44 95 181 184 198 310 58 50 10 0 3 10 29 4 4 1 0 0 1
0 0 0 0 0 0 0 0 0 0 0 3 0 0 1 0 104 281 647 594 662 758 556 637 657 541 485 412 427 173 74 71 95 129 260 137 39 17 14 12 22 7 22 6 2 1 12 6 1
0 0 0 1 0 0 0 0 0 0 6 1 1 0 0 0 0 0 44 322 656 594 543 441 399 321 341 343 320 298 96 88 197 230 211 58 20 14 25 6 28 53 29 11 2 5 8 1 0
0 0 0 0 0 0 0 0 0 0 0 2 1 0 0 0 4 35 122 159 206 384 455 342 224 186 201 217 213 152 138 189 236 391 65 59 15 2 15 34 40 10 15 12 3 0 4 1 0
0 0 0 0 0 0 0 0 0 0 0 0 0 0 0 2 16 68 94 136 261 331 327 297 277 371 357 270 236 234 264 339 281 158 75 59 10 15 36 49 41 10 0 25 0 1 0 0 0

GFSSGP_con_mucape_060.txt.gz
CAPE
0 0 0 0 0 0 0 0 0 0 287 890 1068 463 748 1261 1220 770 1111 1208 1158 1186 716 908 875 927 937 776 559 369 294 286 267 207 164 169 216 261 322 587 757 737 684 545 248 0 0 0 0
0 0 0 0 0 0 5 0 0 37 466 1306 1373 1298 1026 959 1259 1128 1150 1096 1447 1180 758 655 831 826 755 544 370 300 340 320 281 241 220 240 298 326 579 809 711 951 860 707 62 0 0 0 4
0 0 0 0 0 1 21 0 0 532 899 1308 1247 1227 794 520 839 1270 1411 1280 1526 1319 721 700 714 697 603 456 328 302 324 322 273 278 308 319 327 315 561 771 715 762 1082 611 13 0 0 0 28
0 0 0 0 4 0 0 0 103 400 893 1063 1242 1209 1231 1156 1347 1542 1493 1286 1343 1048 826 427 504 579 550 483 380 395 365 283 284 298 329 336 345 302 332 409 645 932 848 107 0 0 0 0 0
0 0 0 0 0 0 0 25 333 642 1063 1059 1066 1228 1340 1372 1081 1326 1464 1283 484 371 534 530 334 431 516 543 517 464 368 263 294 317 284 296 316 299 258 218 296 280 207 48 0 0 0 0 0
0 0 0 10 0 0 51 252 701 935 1098 1046 1200 1370 1489 1444 975 1211 1023 525 168 151 46 130 118 152 90 99 167 299 342 293 298 287 288 282 286 248 255 195 158 186 199 145 29 2 0 0 0
0 0 1 0 2 0 12 743 909 1039 936 1000 928 952 1324 1612 1066 1056 950 555 327 229 190 158 98 3 1 3 43 154 391 425 373 334 321 269 218 211 233 191 135 108 60 14 0 0 0 0 0
0 0 0 0 0 40 76 674 783 981 1100 753 939 1027 939 932 936 860 682 564 625 528 282 213 137 13 0 6 23 310 435 375 365 372 283 210 217 219 216 164 152 142 79 0 0 0 0 0 0
0 0 9 0 1 72 227 344 705 797 1014 1027 1135 1037 1248 690 1012 936 486 414 491 275 202 213 84 4 0 0 36 197 361 309 287 306 228 81 40 31 10 78 176 89 9 0 0 0 0 0 0
0 0 4 0 0 2 7 287 401 887 1104 1072 1018 998 657 734 609 590 346 252 290 238 122 8 20 43 14 3 3 180 203 253 237 178 144 48 51 38 40 10 5 0 0 0 0 0 0 0 0
0 5 1 0 2 9 6 19 184 518 683 955 1155 946 1056 646 627 246 495 211 48 133 173 202 224 52 0 1 11 42 191 235 230 223 117 120 95 50 7 0 0 0 0 0 0 0 0 0 0
0 0 5 2 0 0 1 44 482 639 774 861 1190 783 1045 636 447 532 330 152 64 36 11 26 1 2 1 4 1 14 51 111 109 142 171 171 124 102 28 0 0 0 0 0 0 0 0 0 0
0 1 11 28 110 9 73 319 694 798 1117 1314 1030 1063 969 644 279 172 78 42 46 46 35 7 8 98 24 53 96 134 130 119 119 174 162 122 107 82 11 0 0 0 0 1 3 1 0 0 0
1 6 32 153 101 121 460 638 572 977 1261 1224 1082 931 627 218 224 76 14 18 67 31 24 5 17 100 100 106 203 143 64 61 144 122 151 144 89 92 4 0 0 4 0 0 0 0 0 0 0
6 26 54 334 318 487 548 639 541 877 1169 848 832 538 643 275 262 180 26 27 7 2 0 40 76 158 164 92 160 91 27 50 20 167 389 111 69 71 0 12 24 23 0 0 0 0 0 0 0
0 13 73 266 403 387 421 140 378 904 1200 943 728 760 531 347 263 177 200 113 33 8 18 45 20 128 212 111 84 65 61 34 43 227 505 615 203 115 19 37 37 14 18 2 0 0 0 0 0
1 73 43 177 388 380 471 202 551 898 1067 855 772 760 685 700 541 230 183 118 45 14 2 6 0 28 435 340 122 112 109 84 141 390 594 758 647 121 42 35 39 11 16 2 1 0 0 0 0
5 40 51 43 168 260 259 153 299 923 958 902 516 620 522 576 602 475 361 207 44 29 35 85 84 203 603 501 282 111 223 189 309 529 685 717 437 110 36 49 31 13 9 0 0 0 0 0 0
17 28 44 50 30 175 130 122 63 689 957 1026 595 395 571 578 532 589 384 422 256 128 201 318 355 484 728 569 220 83 113 142 255 464 615 335 229 59 54 58 17 2 5 2 0 0 0 0 0
33 19 20 14 4 24 63 54 27 154 821 922 864 395 350 468 670 583 557 406 475 272 267 335 504 801 690 495 186 32 40 164 194 419 353 280 113 102 63 57 4 2 4 0 1 0 0 0 0
34 60 35 40 19 24 18 42 31 76 381 681 729 744 406 372 528 710 615 643 556 534 478 411 509 753 633 600 278 102 79 186 275 300 191 99 137 122 85 33 4 2 5 4 0 0 0 0 0
12 12 14 12 23 66 16 23 31 43 186 356 649 920 865 541 515 788 884 789 816 655 566 537 578 704 705 741 438 196 66 61 156 340 226 164 86 73 61 22 7 10 13 1 0 0 0 0 0
5 0 20 31 46 49 38 68 79 1 22 155 452 632 866 869 680 725 1007 1017 960 874 851 739 581 651 733 716 606 416 209 17 180 392 222 74 74 38 47 18 56 74 47 3 0 0 0 1 1
0 13 27 77 76 91 55 50 79 58 30 39 47 374 608 840 923 760 663 1163 1213 1182 1126 1003 857 772 809 826 723 730 577 339 343 127 90 34 47 37 29 44 77 69 33 0 0 0 6 14 2
1 17 129 111 101 104 9 41 68 35 39 29 45 78 147 580 1018 1103 852 1021 1314 1419 1373 1194 1116 963 883 1028 931 908 849 655 194 46 82 52 77 90 108 143 80 59 6 0 0 9 10 4 0
13 53 91 7 31 39 0 20 62 5 0 34 89 71 10 43 709 1073 1071 1112 1246 1437 1473 1353 1140 1219 1021 1046 920 849 707 536 63 29 46 78 158 215 113 94 57 33 0 1 4 8 7 1 0
35 36 24 115 11 92 4 3 4 0 0 47 22 39 103 23 285 711 962 1080 1367 1447 1472 1448 1196 1135 1138 1080 1038 753 401 247 57 7 1 81 137 84 122 59 34 5 6 0 7 0 8 1 4
43 15 59 96 21 9 19 0 18 0 27 0 0 0 40 129 81 234 505 898 1099 1285 1360 1453 1408 1364 1306 1196 882 543 442 298 97 59 79 61 71 133 41 50 25 14 5 23 11 2 0 6 0
22 50 30 49 39 61 16 19 0 0 0 41 75 18 53 154 222 175 199 318 588 916 1009 1086 1118 1126 1148 1064 916 417 402 325 319 150 104 88 158 213 84 46 6 1 21 28 7 0 0 0 0
26 72 85 60 20 31 51 28 0 5 0 0 0 1 57 206 320 291 261 288 417 626 805 913 915 902 896 926 754 461 400 340 208 144 103 93 83 65 44 0 0 0 0 10 8 0 0 0 0

GFSSGP_con_mucape_063.txt.gz
CAPE
0 0 0 0 0 0 0 9 32 13 9 276 532 603 231 5 497 343 113 1627 1707 1477 914 1199 1192 1296 1285 1166 900 644 552 525 486 399 313 367 407 507 592 694 849 946 599 13 0 0 0 0 0
0 0 0 0 0 8 28 19 29 8 337 334 450 809 591 404 1127 990 1253 1796 1770 1405 873 1144 992 1080 1177 935 674 577 600 543 450 360 407 490 606 872 964 848 852 933 486 0 0 0 0 0 0
0 0 0 1 9 27 23 3 14 43 379 650 848 1219 1018 601 759 1324 1700 1871 1825 1312 725 1203 775 872 884 663 555 535 536 431 383 410 561 626 1014 1110 1130 1017 872 859 325 26 29 1 0 0 0
0 0 0 0 0 11 7 3 7 55 295 829 979 1083 1273 1582 1691 1693 1817 1736 1901 1417 538 558 611 626 580 550 587 550 486 371 374 460 592 741 1071 1106 997 916 789 776 315 44 0 0 0 0 0
0 0 0 8 18 37 6 11 285 563 451 699 1022 741 998 1747 1360 1571 1662 1598 1461 695 368 193 370 427 428 561 594 553 469 463 463 512 490 582 663 768 883 918 713 351 229 10 0 0 0 0 0
0 0 1 35 12 8 1 189 168 722 865 1185 1015 813 1557 1547 1128 1128 986 1134 892 398 207 77 62 60 101 204 277 347 435 472 479 451 413 432 371 395 488 381 276 244 175 82 0 0 0 0 0
0 2 21 42 37 16 86 416 646 630 896 923 951 879 1754 1263 963 1044 861 654 376 331 50 27 73 13 11 1 21 178 281 381 452 416 349 325 284 262 290 340 326 256 188 92 0 0 0 0 0
0 0 2 34 31 63 65 310 445 127 442 1037 952 922 1057 967 854 1070 959 448 399 343 105 53 0 5 12 6 0 65 296 425 374 337 309 252 257 228 236 230 231 168 80 3 0 0 0 0 0
0 0 26 38 39 90 101 96 739 631 650 1133 1229 1303 1132 694 815 437 678 397 392 312 229 104 30 20 16 3 0 50 226 269 274 291 246 159 124 59 77 180 213 192 60 0 0 0 0 0 0
0 43 45 7 23 11 21 39 189 177 2 1037 1324 1380 948 580 657 572 370 170 233 157 222 176 100 115 22 0 0 44 105 201 190 187 188 148 148 133 128 129 129 43 0 0 0 0 0 0 0
0 1 20 18 27 19 57 58 1 98 0 590 1010 1180 1332 1004 477 405 302 265 218 124 169 51 73 28 6 4 6 43 106 146 171 238 235 246 221 182 155 38 0 0 0 0 0 0 0 0 0
0 0 5 29 10 5 10 38 74 381 974 1037 1569 1150 788 1115 279 360 217 160 212 153 189 99 44 6 4 2 0 82 151 198 212 186 388 402 279 327 160 4 0 0 0 0 0 0 0 0 0
0 0 14 11 19 69 29 18 251 672 1171 1602 1021 824 648 575 316 122 57 32 131 96 42 27 6 8 1 8 3 43 95 146 216 179 328 392 381 446 155 136 0 0 0 0 0 0 0 0 0
11 3 3 23 28 40 19 160 656 1023 1442 1249 892 695 543 333 256 223 32 13 41 15 5 9 16 5 0 4 66 110 118 78 185 182 280 500 420 432 112 132 1 0 0 0 0 0 0 0 0
0 3 11 20 72 25 90 118 126 1166 1271 1273 1127 973 624 421 315 156 38 5 2 7 5 4 6 96 121 127 201 168 131 81 135 128 287 294 360 385 275 77 10 3 11 0 0 0 0 0 0
0 2 30 7 49 65 108 13 7 924 1071 1057 999 887 849 501 397 158 63 98 6 4 0 2 13 122 178 211 226 110 58 106 195 183 202 323 214 222 169 87 29 21 18 10 0 0 0 0 0
21 22 5 65 49 68 87 45 51 374 753 999 723 712 787 517 273 476 231 123 21 4 10 40 63 89 79 65 107 128 378 137 25 99 290 492 242 288 179 60 28 33 11 2 12 0 0 0 0
27 22 61 42 53 32 38 72 162 503 558 755 676 643 780 562 303 205 111 84 57 65 66 37 17 59 100 265 112 10 66 14 61 131 248 524 696 532 286 101 20 21 14 9 0 0 0 0 0
18 50 46 70 38 23 48 124 77 633 544 718 626 622 611 659 434 326 215 89 72 69 48 26 12 14 149 163 63 23 32 41 54 209 384 579 656 581 474 293 54 24 1 3 0 0 0 0 0
17 69 40 51 15 22 27 100 5 100 575 576 716 423 588 715 580 297 309 156 90 63 61 59 9 18 235 290 212 5 0 1 26 80 412 599 640 475 372 332 46 36 3 0 1 0 0 0 0
26 59 47 51 58 23 17 56 41 14 302 609 740 527 286 556 664 567 333 411 234 168 176 246 277 242 298 291 238 26 5 26 78 123 332 700 656 344 304 270 39 53 15 3 4 3 5 0 0
51 24 2 16 19 49 34 43 33 22 99 396 611 902 578 374 536 822 844 784 735 494 345 314 378 416 487 497 388 188 23 2 50 154 246 377 348 190 150 56 40 56 24 8 3 28 21 0 0
30 5 0 11 84 114 140 38 55 29 1 59 394 854 777 489 414 560 889 1006 937 863 709 721 490 486 589 633 622 513 248 61 87 161 345 402 485 233 78 14 45 59 32 15 33 54 18 1 0
7 0 5 17 95 165 45 109 37 20 5 25 32 216 657 638 431 407 663 924 937 966 1211 960 780 655 718 816 862 894 672 549 149 257 617 619 394 103 20 40 56 64 59 55 42 49 8 0 0
1 17 86 145 114 147 100 34 36 60 7 0 3 26 243 547 746 635 473 801 969 971 1141 1214 1126 851 824 953 1012 1062 1018 997 879 545 532 393 362 35 28 48 68 79 94 15 9 30 0 2 1
24 44 174 117 170 17 24 11 39 12 0 0 25 77 115 178 490 798 829 572 899 1181 1220 1350 1278 1248 1081 1427 1356 1482 1455 1307 1270 568 229 254 202 137 43 48 111 129 35 15 4 28 15 0 0
74 67 93 124 99 70 91 66 23 0 0 0 7 33 159 175 157 542 852 987 790 1110 1562 1895 1451 1329 1331 1694 1809 1866 1802 1586 1458 899 500 79 205 7 25 100 106 67 2 3 27 24 0 0 4
33 75 85 83 108 150 97 111 98 1 40 0 0 2 10 125 209 429 770 1090 1222 1273 1777 2067 1825 1626 1538 1555 1654 1574 1412 1098 1013 794 345 181 98 20 63 68 69 47 21 67 24 14 13 11 2
10 93 73 102 120 187 149 145 52 7 0 0 0 0 2 50 267 391 440 692 1068 1336 1637 1825 1873 1854 1774 1772 1687 1520 947 726 665 547 323 170 136 117 54 19 2 1 10 0 0 7 3 4 0
39 37 82 111 95 77 156 169 69 23 14 0 0 1 13 121 180 374 458 522 617 1021 1330 1634 1704 1794 1762 1746 1682 1191 888 789 807 934 666 191 153 79 81 10 43 30 3 0 0 0 2 0 0

GFSSGP_con_mucape_066.txt.gz
CAPE
0 0 0 0 0 0 0 0 0 0 9 221 101 221 52 51 431 292 296 211 34 49 1031 1555 1498 1534 1544 1392 1139 927 816 745 739 621 617 640 808 959 1061 961 570 364 175 2 0 0 0 0 0
0 0 0 0 0 0 0 0 0 5 69 205 198 69 22 99 1235 702 1015 89 0 21 1060 1712 1358 1406 1473 1252 965 813 770 723 585 575 609 648 791 946 1100 872 391 296 227 0 0 0 0 0 0
0 0 0 0 0 0 0 0 0 0 0 86 76 395 224 994 1369 1242 1686 1156 1067 1380 1392 1735 1296 1224 1326 1051 851 754 678 506 493 579 732 808 952 1043 1091 794 292 348 273 43 0 0 0 0 0
0 0 0 0 0 0 0 0 0 0 143 137 107 136 1157 1203 1370 1294 1404 1853 1475 1362 1084 1116 1158 967 933 823 786 682 506 443 537 673 951 1230 1266 1169 1056 575 369 420 237 12 0 0 0 0 0
0 0 0 0 0 0 0 0 0 1 105 83 9 34 144 116 912 1077 1177 1249 802 891 749 553 552 609 695 812 706 512 488 533 656 880 1131 1206 1299 1042 948 513 365 293 167 0 0 0 0 0 0
0 0 0 0 0 5 0 0 32 14 65 20 46 37 65 677 636 837 952 951 685 647 553 428 258 5 308 376 292 270 407 453 540 708 847 1009 1041 906 680 365 255 180 119 38 0 0 0 0 0
0 0 0 0 3 3 95 35 114 217 154 317 104 81 247 182 493 623 670 661 385 142 120 44 0 43 6 1 60 109 246 293 379 428 405 439 426 386 337 278 237 184 124 52 1 0 0 0 0
0 0 0 0 5 43 22 0 58 13 20 51 394 787 338 159 427 649 508 334 373 265 132 19 0 0 0 45 2 111 233 211 236 240 181 236 294 277 273 251 220 189 109 22 5 0 0 0 0
0 0 0 3 20 72 25 1 10 62 7 119 388 1038 611 445 422 450 509 312 228 211 201 75 0 0 0 0 2 3 337 269 209 174 174 83 111 78 79 172 163 131 74 35 0 0 0 0 0
0 0 0 0 0 0 0 0 6 156 0 0 0 314 565 771 502 394 338 196 122 116 114 19 18 0 0 2 9 0 50 111 116 86 65 61 56 117 120 161 127 88 51 6 0 0 0 0 0
0 0 0 0 0 0 0 0 12 2 0 0 0 321 646 724 424 294 249 163 61 74 92 98 51 30 21 5 3 0 28 90 100 131 129 100 147 109 75 43 15 3 0 0 0 0 0 0 0
0 0 0 0 0 0 0 0 6 130 111 190 347 783 692 776 671 191 210 106 57 50 89 78 33 1 10 4 3 0 2 84 78 216 175 181 169 140 59 19 4 0 0 0 0 0 0 0 0
0 0 0 0 0 0 3 13 12 349 544 902 997 772 915 661 291 36 50 48 35 21 43 20 27 27 9 3 13 4 56 77 150 228 260 219 182 141 84 75 3 0 0 0 0 0 0 0 0
0 2 0 0 0 0 0 4 216 32 21 849 874 663 535 362 114 7 3 8 7 12 23 4 4 15 2 20 2 42 103 157 188 267 362 421 230 250 107 176 7 0 0 0 0 0 0 0 0
0 0 0 0 0 0 0 2 12 4 139 959 804 637 450 309 307 10 3 0 3 16 11 14 0 5 1 1 41 90 83 145 194 230 386 409 411 363 277 118 87 1 0 0 0 0 0 0 0
0 0 0 0 1 2 0 4 5 41 354 659 909 739 511 434 263 30 20 3 8 18 19 17 5 4 8 18 21 111 88 84 156 214 240 347 323 273 267 117 54 1 0 1 0 0 0 0 0
0 0 0 4 7 10 77 3 0 0 11 410 702 695 361 438 142 60 26 12 0 2 2 0 4 0 93 147 121 136 120 138 93 159 271 274 232 212 195 152 32 2 2 3 5 7 0 0 0
2 5 11 6 0 27 23 29 0 1 139 360 452 587 378 401 311 113 98 41 12 0 0 0 0 5 54 153 206 134 68 78 70 73 164 183 69 258 245 68 49 17 0 2 6 0 0 0 0
16 0 9 12 5 20 13 48 92 18 124 672 480 564 540 230 259 263 136 5 0 0 0 0 6 85 108 25 31 4 64 12 0 0 33 345 411 436 288 77 64 25 5 3 0 0 0 0 0
0 0 7 20 7 0 0 13 32 173 111 242 422 435 524 337 285 142 53 2 0 7 51 59 58 120 76 21 0 0 4 5 0 10 44 345 409 445 401 317 169 57 0 0 0 2 0 5 0
0 0 3 43 10 10 1 2 32 2 113 128 456 369 571 556 352 256 148 69 44 3 22 27 37 33 90 80 20 1 3 0 0 8 111 461 503 411 341 264 315 46 10 10 19 18 7 6 11
2 0 7 15 23 26 5 4 53 4 7 149 202 472 255 500 370 258 280 111 80 35 48 42 3 0 51 203 180 84 0 0 0 0 64 507 532 416 318 274 182 71 20 17 31 29 1 4 40
16 0 12 0 4 33 40 31 53 4 10 0 180 470 352 313 466 388 223 316 151 161 110 164 214 125 137 185 245 217 49 7 0 44 56 445 379 281 206 174 176 72 1 18 22 20 30 23 23
5 1 0 0 2 30 30 27 23 20 27 52 156 459 675 387 352 578 608 536 535 425 426 252 333 307 329 413 345 441 181 105 13 55 97 384 314 217 203 156 87 21 1 12 60 50 33 1 1
0 0 9 52 82 144 76 98 119 14 10 15 7 394 580 522 332 313 692 815 781 759 727 654 472 418 389 626 610 420 762 324 289 124 230 427 338 264 177 127 9 16 25 27 50 17 2 0 0
0 0 41 27 0 130 36 67 35 5 1 0 0 11 163 474 582 407 257 821 869 877 961 970 845 674 582 641 909 903 711 956 532 556 491 410 312 168 77 84 11 7 25 71 51 53 0 0 0
14 21 16 41 37 121 2 131 48 4 0 0 0 3 108 136 300 596 615 483 906 900 1074 1186 1072 983 812 752 784 892 1078 865 937 929 597 339 242 192 124 132 37 10 47 58 10 1 0 1 0
0 7 49 80 5 36 10 28 68 7 0 1 0 2 30 122 182 252 643 803 658 1031 1116 1252 1250 1221 1166 1110 1086 1111 1175 1201 1104 1086 889 578 337 266 148 121 105 37 65 70 28 3 0 0 0
0 4 53 59 71 123 220 104 27 2 1 0 8 1 9 67 237 287 499 891 919 914 1127 1476 1476 1362 1295 1183 1190 1121 1417 1206 961 794 636 545 392 237 130 108 131 180 23 1 1 4 3 14 2
4 3 72 142 99 109 132 76 8 15 4 6 0 3 6 7 112 361 502 521 670 1234 1247 1656 1754 1693 1595 1486 1330 1369 1243 953 694 720 537 396 365 315 228 299 208 30 49 27 21 0 16 7 21

GFSSGP_con_mucape_069.txt.gz
CAPE
0 0 0 0 0 0 0 0 0 0 19 115 122 188 123 191 478 654 627 670 974 860 774 585 703 1767 1720 1406 1113 1007 981 970 892 785 790 1073 1147 1014 765 523 255 158 2 0 0 0 0 0 0
0 0 0 0 0 0 0 0 0 0 94 171 96 117 106 1070 1283 1132 789 631 238 180 216 16 3 478 1690 1380 1073 1024 1110 1011 927 852 1064 1191 1141 805 507 282 185 196 5 0 0 0 0 0 0
0 0 0 0 0 0 0 0 0 54 126 94 52 272 820 488 1095 1326 1037 1145 801 88 15 1 68 840 1523 1240 944 960 923 856 834 860 1105 1262 1143 650 438 273 215 173 0 0 0 0 0 0 0
0 0 0 0 0 0 0 0 15 72 70 45 79 169 367 92 773 751 663 1197 1137 866 657 893 749 830 1206 1145 979 850 714 695 721 839 1089 1315 1154 589 455 334 257 180 0 0 0 0 0 0 0
0 0 0 0 0 0 0 3 36 27 121 110 85 104 80 352 533 480 679 808 1224 1080 834 485 437 277 365 1007 962 663 614 646 712 910 1030 1134 938 561 455 318 179 96 0 0 0 0 0 0 0
0 0 0 0 0 0 12 32 114 208 153 176 43 108 142 248 139 207 654 714 851 708 541 417 360 151 27 23 559 487 563 651 918 1006 1066 1022 697 485 403 209 96 79 39 0 0 0 0 0 0
0 0 0 0 0 0 24 36 140 177 127 230 165 5 354 67 15 174 463 482 623 615 457 325 204 91 0 70 37 42 134 684 841 861 813 740 353 285 212 131 109 93 42 0 0 0 0 0 0
0 0 0 0 0 0 27 6 72 63 117 371 392 497 311 85 30 395 473 480 430 402 295 109 4 0 0 5 2 0 112 349 492 517 423 292 144 139 110 82 103 75 32 0 0 0 0 0 0
0 0 0 0 0 6 29 1 46 74 43 8 553 594 302 178 312 297 122 367 507 280 136 18 19 1 0 0 0 34 158 270 289 359 307 246 132 27 26 77 83 86 45 26 0 0 0 0 0
0 0 0 0 0 0 6 17 5 120 79 16 391 438 488 697 575 310 213 225 155 171 187 43 35 0 0 0 0 0 81 78 184 222 230 194 58 25 41 75 76 84 61 32 1 0 0 0 0
0 0 0 0 0 0 0 0 78 39 28 99 12 453 388 665 473 210 233 199 48 17 7 0 12 2 0 0 0 0 33 87 85 83 24 9 12 24 25 15 11 7 2 0 0 0 0 0 0
0 0 0 0 0 0 0 0 159 166 185 426 224 579 582 413 196 200 100 109 52 11 4 6 51 16 16 5 0 0 47 98 48 6 68 14 8 5 1 0 2 7 0 0 0 0 0 0 0
0 0 0 0 0 0 0 14 128 67 56 0 494 529 477 193 86 54 104 77 94 3 133 30 43 12 1 1 11 0 79 49 74 81 79 48 21 1 1 0 0 2 0 0 0 0 0 0 0
0 0 0 0 0 0 0 5 53 0 0 5 597 574 328 204 48 87 17 26 100 30 14 15 12 28 17 8 10 3 35 30 108 125 95 89 52 5 6 0 0 9 2 0 0 0 0 0 0
0 0 0 0 0 0 0 0 0 0 0 139 828 593 472 329 34 0 7 15 57 12 55 17 6 2 7 0 0 4 32 68 130 158 147 128 79 11 15 0 0 5 1 0 0 0 0 0 0
0 0 0 0 0 0 0 0 0 31 277 733 680 521 480 373 149 36 4 4 17 2 6 7 4 2 1 0 2 2 42 62 115 151 139 128 163 47 38 19 3 0 0 0 0 0 0 0 0
0 0 0 0 1 0 8 0 6 33 62 391 634 606 471 524 365 9 2 0 7 6 5 0 11 1 0 0 2 7 22 49 30 62 110 121 143 59 116 22 1 0 0 0 4 0 0 0 0
0 0 0 0 4 11 16 0 32 21 1 49 325 392 555 513 170 8 0 0 1 1 2 12 9 3 2 8 5 1 2 9 4 7 16 76 58 135 79 20 0 0 0 0 3 0 0 0 0
0 1 2 1 0 4 26 14 6 42 72 53 0 227 377 435 196 19 0 0 0 0 0 0 0 0 0 0 0 7 0 1 0 0 21 39 25 120 51 76 55 10 0 0 1 3 0 0 0
0 0 0 5 0 0 1 0 29 15 11 46 122 206 295 425 265 74 17 0 0 0 0 0 0 0 0 0 0 0 0 0 0 0 20 57 34 46 96 83 62 68 16 8 4 7 9 15 11
0 0 0 0 0 4 0 3 18 8 55 121 226 343 336 369 161 123 71 0 0 0 0 0 0 0 0 0 0 0 0 0 0 0 0 94 139 166 232 150 104 79 96 59 1 0 12 23 12
0 0 0 4 5 0 0 0 0 0 9 47 260 368 379 246 150 164 139 1 0 0 0 0 0 0 0 0 0 0 0 0 0 0 0 126 192 257 278 297 201 219 171 118 15 3 20 42 10
0 7 1 7 4 0 0 0 3 0 1 33 155 340 320 306 245 175 193 87 0 0 1 0 0 0 0 0 3 0 0 0 0 0 0 143 197 199 247 307 206 199 221 130 37 24 11 20 4
0 3 0 0 0 0 0 5 0 0 0 5 60 270 327 355 262 267 207 237 62 0 31 0 0 0 0 0 20 29 3 0 0 0 0 44 231 313 297 329 234 161 123 76 67 2 20 33 26
0 0 0 0 0 0 37 12 1 0 0 0 0 185 192 298 291 278 291 319 305 29 0 0 1 9 24 35 33 36 92 48 24 2 0 65 175 358 365 287 192 89 106 108 43 7 21 22 20
0 0 0 0 0 22 8 11 2 12 0 1 1 149 308 379 232 336 334 388 429 384 156 7 13 19 11 28 36 32 52 77 50 52 1 89 180 309 319 181 97 102 87 25 8 12 29 47 44
0 1 1 25 7 1 15 19 13 0 0 0 0 126 292 372 354 237 388 393 459 460 461 354 138 40 61 88 142 209 221 170 266 135 35 84 173 266 279 199 149 96 49 10 51 27 62 18 31
0 7 16 40 0 0 28 27 5 0 0 0 0 0 21 149 344 261 221 482 528 541 531 438 345 282 195 165 184 344 436 335 397 509 177 273 335 232 301 165 75 70 86 93 25 43 8 22 19
0 0 16 32 15 0 25 23 28 0 0 0 0 0 3 29 29 133 287 283 622 644 598 533 534 505 450 360 330 375 495 590 556 464 439 427 358 289 248 175 198 154 69 71 49 17 12 7 9
0 0 4 30 20 23 21 50 7 8 0 0 0 0 0 23 56 95 192 352 469 652 644 694 651 543 482 439 483 493 461 658 461 440 156 161 308 413 504 185 238 113 53 45 13 5 17 1 17

GFSSGP_con_mucape_072.txt.gz
CAPE
0 0 0 0 0 0 0 0 0 0 0 36 53 199 939 890 774 531 946 984 1153 1893 1418 1704 1615 1593 1517 1225 1279 1184 1117 1036 1026 1163 1284 1232 986 775 507 290 167 30 0 0 2 5 6 15 2
0 0 0 0 0 0 0 0 0 3 9 80 122 505 640 905 1010 925 848 977 1092 955 1139 1067 827 587 502 1228 1211 1227 1224 1018 1167 1418 1385 1186 955 688 454 299 96 29 0 0 0 0 0 0 0
0 0 0 0 0 0 0 0 0 32 33 39 71 591 440 331 913 1217 940 662 573 563 467 790 611 252 916 1032 1049 1227 1098 923 1269 1470 1357 1067 854 645 504 218 75 15 0 0 0 0 0 0 0
0 0 0 0 0 0 0 0 0 28 65 105 128 203 240 77 291 630 585 970 843 702 265 47 141 142 267 749 947 1059 975 931 1188 1355 1167 993 820 745 462 191 71 2 0 0 0 0 0 0 0
0 0 0 0 0 0 0 0 25 102 112 154 106 93 73 107 450 360 470 771 1016 763 579 502 91 44 29 9 171 856 819 933 1182 1272 872 782 760 652 386 176 39 0 0 0 0 0 0 0 0
0 0 0 0 0 0 0 47 103 119 167 158 110 101 142 102 6 82 585 621 664 726 687 253 175 37 25 74 7 477 590 779 1052 1034 699 655 635 446 284 119 15 0 0 0 0 0 0 0 0
0 0 0 0 0 0 0 15 100 54 129 179 79 74 233 38 0 123 630 298 882 730 586 264 203 171 13 6 3 81 87 652 894 749 538 482 360 190 131 53 9 0 0 0 0 0 0 0 0
0 0 0 0 0 0 0 11 46 22 78 326 358 362 7 0 32 120 442 346 408 636 585 264 190 190 74 0 0 5 68 355 523 444 350 252 133 77 50 0 0 0 0 0 0 0 0 0 0
0 0 0 0 0 0 0 8 21 24 12 240 452 485 195 62 108 174 228 345 354 297 222 131 56 33 12 0 0 0 10 143 345 314 185 71 0 0 0 3 0 5 0 0 0 0 0 0 0
0 0 0 0 0 0 0 14 4 32 23 3 248 254 300 317 142 135 137 337 497 346 260 105 51 35 1 0 0 0 1 23 155 214 200 52 0 0 0 35 43 38 2 0 0 0 0 0 0
0 0 0 0 0 0 0 24 42 60 94 62 49 201 213 621 101 84 71 121 382 218 226 248 39 1 0 0 0 1 1 19 84 143 146 85 19 5 12 16 11 4 0 0 1 0 0 0 0
0 0 0 0 0 0 0 18 38 40 104 116 40 192 257 173 156 70 72 107 63 6 19 4 1 4 0 0 0 1 0 0 35 42 64 31 0 0 0 0 2 1 0 0 0 0 0 0 0
0 0 0 0 0 0 0 14 17 49 60 82 330 357 300 212 145 71 42 19 57 21 51 3 8 15 12 4 0 0 0 0 0 34 60 0 0 0 0 0 3 3 0 0 0 0 0 0 0
0 0 0 0 0 0 0 0 1 0 0 221 453 325 280 105 26 24 14 16 31 38 41 22 20 24 19 7 4 0 0 0 32 44 5 0 0 0 0 0 1 9 7 0 0 0 0 0 0
0 0 0 0 0 0 0 0 0 0 0 366 362 291 198 137 14 4 7 15 22 14 18 34 34 51 16 5 3 4 1 3 10 45 30 0 0 0 0 0 0 19 9 0 0 0 0 0 0
0 0 0 0 0 0 0 0 0 1 1 408 467 307 222 241 0 1 17 9 14 11 13 10 33 5 21 4 10 8 4 18 26 63 44 24 4 0 0 0 0 5 7 0 0 0 0 0 0
0 0 0 0 0 0 0 0 0 57 267 394 354 282 310 279 110 20 15 2 11 7 0 27 6 5 12 16 1 5 14 27 54 89 60 53 14 0 1 0 0 0 0 0 0 0 0 0 0
0 0 0 0 0 2 0 0 0 23 172 519 449 318 300 209 157 99 0 1 6 6 17 13 26 17 14 11 2 5 16 52 65 72 108 75 85 24 52 12 1 0 0 0 0 0 0 0 0
0 0 0 0 0 11 9 6 9 0 3 152 322 376 409 310 272 57 0 0 0 0 12 19 13 20 21 4 1 0 5 5 20 62 67 100 101 56 45 28 15 3 0 0 0 0 0 0 0
0 0 0 0 0 13 4 2 0 28 11 19 270 196 150 276 369 53 0 0 0 0 0 0 0 0 1 5 3 0 3 0 12 8 6 1 6 37 29 16 22 1 0 0 0 0 0 0 2
0 0 0 0 0 6 8 3 0 3 15 51 147 91 175 199 340 65 16 0 0 0 0 0 0 0 0 0 0 0 0 0 0 0 0 0 7 3 35 52 47 43 29 9 0 0 2 3 16
0 0 0 0 0 1 1 0 0 1 5 1 81 219 180 160 284 144 29 13 0 0 0 0 0 0 0 0 0 0 0 0 0 0 0 0 18 19 15 38 25 47 34 33 23 43 35 18 37
0 0 0 3 3 0 0 0 0 0 0 0 30 289 268 270 283 209 110 82 0 0 0 0 0 0 0 0 0 0 0 0 0 0 0 0 10 49 45 75 81 90 115 112 116 92 35 36 23
0 0 1 0 0 0 0 0 0 0 0 0 3 250 331 359 280 227 150 148 50 0 0 0 0 0 0 0 0 0 0 0 0 0 0 0 12 44 115 110 152 185 251 193 200 102 63 46 19
0 0 0 0 0 0 6 1 3 0 0 0 29 199 317 397 305 238 187 193 164 0 0 0 0 0 0 0 0 0 0 0 0 0 0 0 14 100 133 179 243 276 317 205 201 129 96 73 45
0 0 0 0 0 0 0 0 1 0 0 0 0 93 234 374 354 282 231 227 219 246 0 0 0 0 0 0 0 1 15 0 11 20 16 0 0 35 131 232 314 335 264 208 136 112 92 71 40
0 0 0 0 1 0 0 0 0 0 0 0 0 1 161 318 327 325 269 258 255 263 292 5 0 0 0 0 2 3 2 53 77 99 58 59 78 48 150 233 345 292 234 108 98 155 114 57 32
0 0 17 7 0 0 0 0 0 0 0 0 0 14 40 248 241 292 308 299 295 297 321 360 238 88 2 0 0 41 71 90 112 78 112 108 65 62 114 149 179 296 235 130 152 124 61 66 39
0 3 38 22 13 0 0 0 0 0 0 0 0 5 52 74 100 205 280 312 306 333 342 380 404 370 275 156 65 46 110 123 113 91 48 82 80 61 40 73 70 220 228 107 118 148 61 84 21
0 0 2 8 0 0 1 1 0 0 0 0 0 0 0 11 54 97 184 245 317 317 361 318 372 404 302 221 129 77 71 88 152 191 132 131 72 1 19 164 201 260 147 264 250 43 80 57 7

GFSSGP_con_mucape_075.txt.gz
CAPE
0 0 0 0 0 0 0 0 0 0 0 0 40 294 547 725 456 245 843 985 1012 1588 1595 1611 1572 1698 1587 1492 1425 1402 1538 1574 1499 1314 1139 1031 921 763 552 390 308 316 278 21 22 28 37 17 14
0 0 0 0 0 0 0 0 0 0 0 8 394 491 385 742 666 619 651 762 1134 1719 1423 979 471 927 1507 1505 1433 1364 1437 1724 1643 1451 1158 1040 861 678 483 279 158 313 287 34 25 13 5 2 11
0 0 0 0 0 0 0 0 0 0 0 3 46 323 252 417 991 1021 856 725 792 1517 1047 633 307 103 228 578 424 618 968 1078 1623 1454 1246 1032 788 705 440 149 70 253 251 22 6 0 0 8 0
0 0 0 0 0 0 0 0 0 0 4 37 43 118 167 76 674 834 541 656 521 1172 779 621 224 91 315 628 710 376 585 806 1177 1379 1163 946 850 680 408 113 33 195 191 4 0 0 0 0 0
0 0 0 0 0 0 0 0 0 7 59 51 19 23 86 38 356 181 423 556 944 520 373 543 432 186 204 282 141 577 610 814 952 1235 933 827 772 621 305 66 23 59 18 0 0 0 3 0 0
0 0 0 0 0 0 0 0 13 53 50 39 84 106 138 346 4 230 591 743 1041 745 496 298 228 187 41 29 8 80 325 377 870 977 820 768 582 448 181 37 0 0 0 0 0 0 0 0 0
0 0 0 0 0 0 0 0 0 59 93 83 63 72 139 101 29 178 308 526 610 571 351 259 204 71 17 51 13 62 129 313 601 714 661 495 313 224 97 21 0 0 0 0 0 0 0 0 0
0 0 0 0 0 0 0 0 11 51 59 170 423 514 10 104 97 384 301 258 626 731 491 196 115 70 23 2 36 154 145 148 223 358 464 280 209 138 80 0 0 0 0 0 0 0 0 0 0
0 0 0 0 0 0 0 0 0 70 119 232 403 514 272 315 244 313 370 207 402 180 374 382 115 47 26 0 20 45 106 174 194 234 281 107 92 69 2 0 0 0 0 0 0 0 0 0 0
0 0 0 0 0 0 0 0 0 13 4 8 242 323 205 213 125 124 272 143 373 261 270 85 34 19 2 1 0 0 25 60 103 131 137 80 30 7 2 0 0 0 0 0 0 0 0 0 0
0 0 0 0 0 0 0 0 1 5 0 5 5 88 172 255 87 56 156 186 243 191 178 143 2 0 12 0 0 0 13 59 45 127 63 13 38 6 0 0 0 0 0 0 0 0 0 0 0
0 0 0 0 0 0 0 0 0 1 6 19 17 101 233 450 261 97 27 3 102 68 90 92 83 11 0 0 0 2 4 19 40 118 41 18 17 4 0 0 0 0 1 0 0 0 0 0 0
0 0 0 0 0 0 0 0 0 0 34 48 63 98 116 422 134 56 1 6 20 6 110 46 1 0 1 0 0 0 2 19 46 82 30 0 0 0 0 3 5 0 0 0 0 0 0 0 0
0 0 0 0 0 0 0 0 1 0 25 0 111 132 482 253 74 5 0 1 17 6 20 3 0 0 5 1 1 0 1 1 17 22 0 0 0 0 0 2 2 0 0 0 1 0 0 0 0
0 0 0 0 0 0 0 0 0 0 0 0 203 205 288 56 0 0 1 0 20 25 13 13 20 1 5 3 3 0 4 1 0 14 59 10 0 0 0 0 0 1 2 0 0 0 0 0 0
0 0 0 0 0 0 0 0 0 0 0 0 290 207 73 62 0 0 0 0 2 10 23 17 9 18 19 16 1 4 1 3 17 20 71 2 0 0 0 0 0 9 14 11 0 0 0 0 0
0 0 0 0 0 0 0 0 0 0 0 0 182 168 76 76 24 16 4 0 2 14 2 6 3 6 29 6 9 13 2 11 36 35 47 0 0 0 0 0 0 0 14 3 2 0 0 0 0
0 0 0 0 0 0 0 0 0 0 0 14 280 256 163 168 46 71 45 0 1 2 6 8 11 4 3 6 13 1 18 51 68 49 38 6 0 0 0 0 0 0 0 17 8 6 6 5 0
0 0 0 0 0 0 0 0 0 0 3 38 245 356 200 198 121 106 40 0 1 5 10 0 1 3 0 0 18 27 15 56 59 81 68 30 6 0 0 0 0 0 0 6 8 13 28 20 0
0 0 0 0 0 0 0 0 0 0 0 0 5 269 334 365 230 230 17 0 0 0 0 0 0 5 13 8 4 3 41 69 61 88 65 38 46 13 1 28 10 20 23 7 0 0 3 1 0
0 0 0 0 0 0 0 0 0 0 0 0 0 14 170 256 232 299 33 0 0 0 0 0 0 0 13 15 8 7 28 86 54 66 55 63 32 70 77 55 43 52 39 13 0 0 4 13 15
0 0 0 0 0 0 0 0 0 0 0 0 1 4 11 66 70 274 96 0 0 0 0 0 0 0 0 1 0 3 0 0 0 0 0 1 8 32 57 97 71 77 33 22 13 12 18 34 43
0 0 0 0 0 0 0 0 0 0 0 0 0 0 1 15 50 211 191 21 0 0 0 0 0 0 0 0 0 0 0 0 0 0 0 0 0 16 22 34 59 57 49 55 35 53 34 55 61
0 0 0 0 0 0 0 0 0 0 0 0 0 0 0 53 50 105 193 90 12 0 0 0 0 0 0 0 0 0 0 0 0 0 0 0 0 0 32 56 55 66 99 116 76 91 98 99 88
0 0 0 0 0 0 0 0 0 0 0 0 0 0 0 19 110 109 156 178 34 10 0 0 0 0 0 0 0 0 0 0 0 0 1 0 0 0 5 43 73 67 64 99 119 163 177 144 109
0 0 0 0 0 0 0 0 0 0 0 0 1 0 2 15 112 156 201 205 40 56 4 0 0 0 0 0 0 0 0 0 0 0 10 8 6 2 6 34 29 61 82 122 163 279 248 122 78
0 0 0 0 0 0 0 0 0 0 0 0 9 2 30 56 145 206 258 208 141 94 116 8 0 0 0 0 0 0 0 0 1 23 25 12 1 2 2 53 66 111 129 168 257 127 112 76 99
0 0 0 0 0 0 0 0 0 0 0 0 14 0 13 74 191 247 262 275 210 146 164 154 92 2 0 0 0 0 0 0 8 7 0 1 10 42 47 73 81 108 130 133 171 116 126 96 100
0 0 0 0 0 0 0 0 0 0 0 0 0 0 0 52 126 209 286 304 251 196 199 185 194 199 41 7 0 0 0 0 6 9 8 43 48 59 100 121 84 69 8 9 115 119 164 126 138
0 0 0 0 0 0 0 0 0 0 0 0 0 0 0 15 55 98 205 308 271 273 288 294 271 253 209 129 45 2 0 0 0 2 36 70 11 31 58 48 49 17 0 11 50 79 164 140 89

GFSSGP_con_mucape_078.txt.gz
CAPE
0 0 0 0 0 0 0 0 0 0 0 0 89 35 131 230 146 36 853 1014 1038 1597 1538 1338 1297 1474 1603 1236 1248 1503 1808 1842 1637 1615 1472 1415 1203 956 726 685 593 567 426 49 26 19 16 18 19
0 0 0 0 0 0 0 0 0 0 0 0 78 187 219 448 505 470 538 692 1289 1549 1416 1152 1048 1048 987 857 910 978 1779 1691 1658 1615 1458 1306 1071 804 767 650 515 544 466 61 24 30 15 9 12
0 0 0 0 0 0 0 0 0 0 0 0 0 129 135 149 784 798 723 568 531 1042 1163 948 539 333 337 342 214 663 1302 1518 1560 1444 1394 1272 1009 860 735 544 481 555 612 252 175 70 23 4 10
0 0 0 0 0 0 0 0 0 0 0 0 0 2 51 43 513 760 470 392 577 922 1315 985 423 388 403 315 111 38 641 1147 1389 1307 1274 1137 936 709 525 453 463 524 316 20 20 32 6 2 6
0 0 0 0 0 0 0 0 0 0 0 0 8 3 18 3 190 57 251 272 695 775 668 907 390 218 130 278 96 112 167 817 959 1208 968 941 752 442 323 349 398 222 24 3 13 6 0 0 0
0 0 0 0 0 0 0 0 0 0 4 12 24 12 20 168 7 101 163 344 652 670 552 578 649 428 320 550 711 494 388 599 807 896 837 821 528 291 251 297 166 6 0 19 18 3 0 0 0
0 0 0 0 0 0 0 0 0 0 13 31 57 12 6 92 38 165 105 297 414 514 490 357 412 279 137 110 176 374 504 492 578 619 702 546 302 180 168 113 6 0 5 91 2 0 0 0 0
0 0 0 0 0 0 0 0 0 0 0 41 101 88 0 0 92 45 90 71 276 434 297 265 186 314 104 86 97 101 245 235 288 343 387 344 198 142 50 7 0 0 0 20 0 0 0 0 0
0 0 0 0 0 0 0 0 0 0 1 35 148 254 63 23 9 16 105 100 123 206 298 302 116 85 53 31 109 94 240 148 97 164 218 213 67 28 0 0 0 0 0 0 0 0 0 0 0
0 0 0 0 0 0 0 0 0 0 0 15 57 149 303 113 92 98 54 115 53 215 200 192 245 124 45 55 22 126 52 41 68 103 140 142 41 1 0 0 0 0 0 0 5 14 0 0 0
0 0 0 0 0 0 0 0 0 0 0 0 5 59 188 41 87 49 6 15 99 95 121 112 76 180 120 7 18 41 20 16 2 34 143 66 0 1 0 0 0 0 0 0 1 3 0 0 0
0 0 0 0 0 0 0 0 0 0 0 8 6 26 134 136 77 46 59 2 9 26 135 82 44 2 0 2 19 33 51 8 2 34 56 41 3 0 0 0 0 0 0 0 0 0 0 0 0
0 0 0 0 0 0 0 0 0 0 0 12 12 49 61 53 51 68 1 2 8 3 44 16 16 35 2 0 0 36 13 4 20 30 41 15 6 0 0 4 2 0 0 2 0 0 0 0 0
0 0 0 0 0 0 0 0 0 0 0 39 42 61 106 98 3 7 1 10 3 9 4 6 8 5 0 0 0 7 10 17 46 62 48 16 4 9 17 15 9 4 0 1 0 0 0 0 0
0 0 0 0 0 0 0 0 0 0 0 7 77 43 347 141 55 12 0 19 5 10 8 1 10 6 8 8 0 3 8 6 56 67 17 7 13 10 27 19 6 6 12 7 0 0 0 0 0
0 0 0 0 0 0 0 0 0 0 0 0 38 127 487 182 25 30 1 5 1 18 6 26 7 16 33 4 3 4 4 36 57 75 21 3 3 18 7 1 8 17 23 12 6 1 0 0 0
0 0 0 0 0 0 0 0 0 0 0 0 22 135 254 264 46 35 15 3 3 1 15 8 16 6 2 30 5 3 3 41 42 67 42 12 4 3 15 5 21 27 31 38 22 13 0 0 0
0 0 0 0 0 0 0 0 0 0 0 0 10 168 229 87 95 127 12 0 5 2 12 39 4 5 6 4 2 3 6 17 28 36 44 36 0 0 4 2 2 12 27 33 47 36 15 5 1
0 0 0 0 0 0 0 0 0 0 0 0 0 98 201 179 61 49 24 6 10 6 7 10 10 27 1 3 9 18 0 0 44 36 51 90 4 0 0 0 0 0 0 10 11 18 22 12 0
0 0 0 0 0 0 0 0 0 0 0 0 0 60 271 205 188 91 87 29 2 2 2 0 11 6 5 15 6 2 3 0 10 65 48 57 0 0 0 0 0 0 0 1 3 2 11 17 9
0 0 0 0 0 0 0 0 0 0 0 0 0 0 55 276 269 242 149 56 2 2 5 3 1 13 4 5 4 6 16 33 55 80 87 74 37 34 5 0 0 7 4 7 5 0 4 7 6
0 0 0 0 0 0 0 0 0 0 0 0 0 0 0 48 262 297 210 100 0 0 1 1 1 2 11 6 2 4 5 4 0 42 94 71 71 70 21 8 19 64 37 16 19 11 4 2 0
0 0 0 0 0 0 0 0 0 0 0 0 0 0 0 0 66 192 209 154 0 0 0 0 0 0 0 4 8 6 0 2 4 24 43 64 68 41 60 75 87 84 67 63 57 25 3 2 2
0 0 0 0 0 0 0 0 0 0 0 0 0 0 0 0 0 55 118 205 42 0 0 0 0 0 0 0 0 0 0 0 0 0 0 0 6 19 38 43 69 101 97 64 72 74 40 37 10
0 0 0 0 0 0 0 0 0 0 0 0 0 0 0 0 0 0 83 195 124 12 0 0 0 0 0 0 0 0 0 0 0 0 0 0 0 0 3 17 35 44 49 54 69 76 65 58 53
0 0 0 0 0 0 0 0 0 0 0 0 0 0 0 0 0 0 82 161 184 86 0 0 0 0 0 0 0 0 0 0 0 0 0 0 0 0 0 0 0 8 13 17 29 24 37 87 86
0 0 0 0 0 0 0 0 0 0 0 0 0 0 0 0 0 2 35 162 192 170 74 2 0 0 0 0 0 0 0 0 0 0 0 0 0 0 0 0 0 0 0 0 0 11 21 49 91
0 0 0 0 0 0 0 0 0 0 0 0 0 0 5 1 0 2 17 117 197 225 114 68 58 2 0 0 0 0 0 0 0 0 0 0 0 1 10 1 0 0 0 1 39 47 38 36 101
0 0 0 0 0 0 0 0 0 0 0 0 0 0 2 2 2 15 28 63 160 257 244 142 133 130 54 0 0 0 0 0 0 0 0 0 0 0 1 0 1 39 68 92 53 34 32 22 96
0 0 0 0 0 0 0 0 0 0 0 0 0 0 0 0 0 9 53 94 137 166 263 271 198 164 174 175 36 0 4 0 0 0 0 0 0 0 12 35 52 43 32 44 66 29 28 9 7

GFSSGP_con_mucape_081.txt.gz
CAPE
0 0 0 0 0 0 0 0 0 0 0 0 25 26 78 244 113 48 664 879 1062 1629 1918 1793 1652 1806 1775 1771 2020 2002 2005 1987 1829 1591 1595 1607 1537 1429 1225 968 822 626 378 18 21 27 42 28 32
0 0 0 0 0 0 0 0 0 0 0 0 297 240 217 248 606 421 578 813 930 1695 1688 1798 1577 1681 1671 1733 1755 1977 2117 2004 1805 1754 1712 1595 1447 1246 1119 858 654 555 403 26 20 16 30 22 18
0 0 0 0 0 0 0 0 0 0 0 0 0 73 149 306 741 842 559 540 635 1336 1572 1431 1322 1327 1399 1243 946 1324 1579 895 1568 1802 1737 1488 1338 1305 1120 748 587 481 327 22 26 22 11 10 18
0 0 0 0 0 0 0 0 0 0 0 0 0 0 47 57 641 699 606 581 571 730 1402 1144 1077 1156 1280 1083 982 727 591 815 1047 1602 1606 1418 1336 1276 1009 680 487 502 437 374 25 13 8 10 9
0 0 0 0 0 0 0 0 0 0 0 0 0 0 0 1 96 69 247 207 668 743 1431 994 737 919 730 631 780 630 464 569 683 1314 1397 1257 1262 1143 815 625 585 481 446 329 67 6 2 5 6
0 0 0 0 0 0 0 0 0 0 0 0 0 0 0 56 36 64 75 287 580 571 1191 1027 350 408 460 846 484 318 560 494 781 869 1077 1081 951 851 684 518 287 182 286 245 22 2 1 2 2
0 0 0 0 0 0 0 0 0 0 0 0 0 0 0 20 29 85 279 103 657 727 767 581 527 517 693 466 417 169 269 412 361 695 718 608 530 501 502 228 86 141 255 110 6 0 2 4 1
0 0 0 0 0 0 0 0 0 0 0 2 2 28 34 9 21 85 14 25 540 457 409 532 441 300 154 255 261 340 242 125 239 389 289 227 260 362 141 76 118 210 187 73 2 0 3 3 0
0 0 0 0 0 0 0 0 0 0 0 2 86 140 53 30 9 35 35 44 181 331 348 383 362 357 106 141 118 237 340 204 232 325 194 110 183 118 67 21 151 252 127 21 0 0 0 0 0
0 0 0 0 0 0 0 0 0 0 0 0 57 44 29 9 20 23 30 41 16 169 141 262 344 269 318 230 112 370 102 134 107 175 33 6 25 32 45 30 106 177 77 33 0 0 0 0 0
0 0 0 0 0 0 0 0 0 0 0 0 2 41 23 22 45 45 21 5 1 27 95 121 292 83 92 82 45 143 187 84 75 29 15 12 65 37 7 3 7 64 105 17 0 0 0 0 0
0 0 0 0 0 0 0 0 0 0 0 0 0 33 22 35 46 34 10 7 2 5 39 184 76 111 127 70 41 40 107 46 49 5 19 10 67 17 8 0 0 0 21 80 1 0 0 0 0
0 0 0 0 0 0 0 0 0 0 0 0 3 7 19 20 35 11 1 2 0 1 10 27 76 57 36 31 7 15 31 36 21 1 22 16 4 0 0 0 0 3 6 1 0 0 0 0 0
0 0 0 0 0 0 0 0 0 0 0 0 2 0 16 22 23 7 0 1 10 2 9 2 23 78 31 2 6 23 18 21 5 16 43 11 0 0 0 0 8 9 12 8 0 0 0 0 0
0 0 0 0 0 0 0 0 0 0 0 16 38 30 20 18 5 3 5 3 11 8 5 11 6 29 0 8 16 8 5 3 8 50 40 29 0 0 0 2 26 2 1 0 0 0 0 0 0
0 0 0 0 0 0 0 0 0 0 0 7 42 51 6 11 3 3 1 2 10 3 9 10 17 6 7 0 3 4 13 34 33 65 39 22 3 21 33 34 17 6 5 0 0 0 0 0 0
0 0 0 0 0 0 0 0 0 0 0 0 0 17 2 2 1 2 17 2 5 1 13 6 27 16 7 1 5 10 8 9 21 57 39 23 30 47 40 25 15 14 3 3 4 0 0 0 0
0 0 0 0 0 0 0 0 0 0 0 0 5 28 3 77 2 2 32 0 5 2 7 16 18 10 7 0 4 5 5 18 86 70 31 18 41 38 17 4 6 3 3 25 30 26 13 8 1
0 0 0 0 0 0 0 0 0 0 0 0 1 69 103 120 59 1 0 0 0 5 1 17 17 8 1 1 1 0 6 0 93 63 29 36 22 11 13 0 0 2 7 32 18 37 38 25 20
0 0 0 0 0 0 0 0 0 0 0 0 2 62 161 259 129 26 0 0 0 4 12 0 1 5 1 6 7 3 28 44 52 42 43 37 29 3 0 0 2 0 4 0 21 11 7 16 24
0 0 0 0 0 0 0 0 0 0 0 0 0 17 104 267 172 61 73 53 22 5 4 0 0 3 3 0 5 3 14 21 8 0 0 60 26 2 0 1 1 2 0 1 2 0 0 9 6
0 0 0 0 0 0 0 0 0 0 0 0 0 0 32 206 265 101 132 46 24 0 5 0 5 4 11 1 8 0 0 0 0 0 0 31 29 2 0 13 9 18 4 0 1 8 1 0 1
0 0 0 0 0 0 0 0 0 0 0 0 0 0 0 52 284 165 134 83 18 0 3 0 0 0 0 7 3 0 0 2 14 2 4 68 47 31 8 19 21 27 5 17 24 13 19 2 0
0 0 0 0 0 0 0 0 0 0 0 0 0 0 0 1 142 198 92 108 79 0 2 3 0 0 0 0 0 0 6 10 4 2 62 78 64 42 53 26 7 13 14 26 46 43 39 28 10
0 0 0 0 0 0 0 0 0 0 0 0 0 0 0 0 39 118 36 88 120 4 1 0 2 0 0 0 0 3 0 6 2 18 34 36 35 7 21 23 61 55 43 65 85 68 50 47 47
0 0 0 0 0 0 0 0 0 0 0 0 0 0 0 0 3 90 58 61 117 33 0 0 0 0 0 0 0 0 1 2 2 0 10 3 20 0 0 11 42 43 48 51 57 51 36 27 28
0 0 0 0 0 0 0 0 0 0 0 0 0 0 0 0 0 30 40 30 100 98 0 0 0 5 0 0 0 0 0 0 0 0 0 0 0 0 0 0 0 16 18 33 54 94 49 8 15
0 0 0 0 0 0 0 0 0 0 0 0 0 0 0 0 0 5 30 7 106 147 47 2 0 0 0 0 0 0 0 0 0 0 0 0 0 0 0 0 0 1 25 50 50 38 37 30 32
0 0 0 0 0 0 0 0 0 0 0 0 0 0 0 0 0 4 28 21 61 137 178 67 33 2 0 0 0 0 0 0 0 0 0 0 0 0 0 0 1 14 27 31 23 15 37 49 72
0 0 0 0 0 0 0 0 0 0 0 0 0 0 0 0 0 16 34 32 32 108 180 200 104 68 78 7 0 0 0 0 0 0 0 1 1 0 0 0 2 13 5 9 15 43 58 63 89

GFSSGP_con_mucape_084.txt.gz
CAPE
0 0 0 0 0 0 0 0 0 0 0 0 0 0 5 60 2 27 1202 1236 1299 1462 1773 1717 1702 1840 1944 2167 2041 1877 1950 2036 1935 1686 1475 1658 1718 1692 1549 1326 1111 979 803 213 180 43 22 24 14
0 0 0 0 0 0 0 0 0 0 0 0 0 87 256 18 561 855 1244 1152 1143 1398 1952 1964 1695 1813 1934 1927 1909 1917 2137 2062 1872 1703 1717 1789 1788 1761 1470 1149 804 665 681 114 137 44 32 25 13
0 0 0 0 0 0 0 0 0 0 0 0 0 15 72 80 861 1119 1140 948 1048 1248 1816 2067 1648 1758 1914 1956 1876 1412 1218 1748 1692 1689 1918 1897 1848 1666 1367 958 666 598 519 172 92 37 34 20 16
0 0 0 0 0 0 0 0 0 0 0 0 0 0 78 217 984 1287 829 829 760 1091 1433 1775 1446 1509 1839 1345 1351 755 702 960 827 1073 1206 1823 1712 1575 1222 872 737 564 519 197 25 33 28 13 11
0 0 0 0 0 0 0 0 0 0 0 0 0 0 25 112 450 549 538 406 637 885 1112 1524 1284 1300 1556 1069 720 831 1042 778 678 706 911 1259 1534 1304 1031 814 584 519 323 169 17 12 8 5 1
0 0 0 0 0 0 0 0 0 0 0 0 0 1 42 290 173 286 250 263 534 884 918 1310 1053 1064 900 968 753 544 639 795 710 404 728 1080 1254 1111 898 776 668 568 316 92 13 13 4 2 0
0 0 0 0 0 0 0 0 0 0 0 0 0 0 94 321 256 241 155 263 347 667 931 897 985 874 455 701 417 536 618 680 495 364 479 713 877 772 841 770 625 540 208 7 5 5 5 2 0
0 0 0 0 0 0 0 0 0 0 0 0 0 0 10 429 256 301 288 249 140 283 580 674 875 913 709 628 370 184 413 355 443 438 351 399 411 526 428 366 492 295 144 4 3 3 2 1 0
0 0 0 0 0 0 0 0 0 0 0 0 37 61 365 196 175 215 186 95 128 174 178 460 658 472 213 404 406 284 292 343 242 196 253 168 195 395 208 215 283 193 76 3 0 1 1 0 0
0 0 0 0 0 0 0 0 0 0 0 0 16 119 240 240 249 308 371 523 412 336 215 105 377 275 213 290 209 175 527 234 160 95 200 96 120 165 186 250 209 143 12 0 1 2 0 0 0
0 0 0 0 0 0 0 0 0 0 0 0 0 2 283 260 328 235 320 290 383 42 41 141 138 158 194 194 167 319 1108 545 217 83 77 137 76 123 262 273 259 104 0 0 0 0 0 0 0
0 0 0 0 0 0 0 0 0 0 0 0 0 0 90 235 289 261 356 230 141 5 0 23 42 187 48 67 209 275 505 441 390 80 35 20 18 62 165 213 135 85 22 0 0 0 1 0 0
0 0 0 0 0 0 0 0 0 0 0 0 0 0 83 218 227 334 207 77 50 8 4 0 21 77 40 70 112 66 285 117 51 19 15 7 18 29 70 159 169 117 85 41 6 4 0 0 0
0 0 0 0 0 0 0 0 0 0 0 0 0 11 63 181 278 348 191 20 24 22 2 0 3 20 5 28 76 23 5 18 26 30 2 9 8 27 26 40 28 127 163 94 25 2 0 0 0
0 0 0 0 0 0 0 0 0 0 0 0 0 31 71 190 248 306 140 3 5 6 2 0 6 10 14 6 1 0 18 8 1 3 3 8 51 68 31 2 0 3 20 42 7 10 0 0 0
0 0 0 0 0 0 0 0 0 0 0 0 0 51 115 203 232 283 41 1 7 4 3 0 2 12 5 0 0 12 0 7 6 6 6 51 60 24 8 0 0 1 1 0 0 0 0 0 0
0 0 0 0 0 0 0 0 0 0 0 0 1 64 172 183 184 221 5 2 7 2 6 0 0 10 2 0 1 0 3 2 39 15 34 40 18 3 0 0 0 7 0 0 0 0 0 0 0
0 0 0 0 0 0 0 0 0 0 0 0 0 67 119 142 161 215 2 4 9 7 12 0 2 30 24 1 1 2 2 0 1 34 29 10 0 2 13 7 21 13 0 0 0 0 0 0 0
0 0 0 0 0 0 0 0 0 0 0 0 0 37 120 147 190 300 3 0 0 14 5 0 8 26 12 7 6 2 4 0 0 38 39 34 12 8 15 17 1 4 2 0 0 1 3 1 1
0 0 0 0 0 0 0 0 0 0 0 0 0 35 107 204 357 316 27 13 1 14 9 0 31 0 14 5 6 12 6 1 0 41 58 42 13 0 13 20 0 3 0 6 15 8 15 18 13
0 0 0 0 0 0 0 0 0 0 0 0 0 1 61 216 522 435 211 46 59 19 21 4 0 1 4 3 5 2 8 8 0 107 52 56 47 10 17 8 17 22 77 62 39 5 13 10 4
0 0 0 0 0 0 0 0 0 0 0 0 0 24 55 166 350 583 375 150 98 15 16 19 1 0 2 1 7 0 0 0 0 1 54 63 100 92 25 32 38 90 58 55 80 36 38 29 47
0 0 0 0 0 0 0 0 0 0 0 0 0 0 40 148 367 694 518 272 173 7 9 20 0 4 7 8 5 3 0 0 62 3 0 0 112 116 56 54 57 89 65 78 102 77 94 66 99
0 0 0 0 0 0 0 0 0 0 0 0 0 0 0 63 292 628 597 302 223 3 2 21 0 9 1 9 8 2 0 0 0 3 1 0 81 107 135 76 84 90 78 86 154 182 162 128 141
0 0 0 0 0 0 0 0 0 0 0 0 0 0 0 22 161 552 685 504 193 1 5 4 3 5 0 0 0 2 1 4 0 5 9 3 52 56 135 144 62 82 98 131 217 290 320 307 252
0 0 0 0 0 0 0 0 0 0 0 0 0 0 0 7 125 467 669 652 191 43 1 3 4 6 0 0 27 42 36 12 11 2 0 59 94 115 117 198 223 230 240 280 342 400 433 378 354
0 0 0 0 0 0 0 2 0 0 0 0 0 0 0 0 78 327 561 597 306 146 11 4 5 9 6 3 12 22 38 45 80 42 27 78 140 80 162 188 247 274 351 406 392 356 345 476 480
0 0 0 0 0 0 0 0 1 0 0 0 0 0 0 0 19 246 462 590 417 204 36 3 5 28 56 48 17 17 17 23 27 56 59 81 127 96 94 140 184 222 221 222 250 267 339 393 564
0 0 0 0 0 0 0 0 7 0 0 0 0 0 0 0 17 198 341 478 508 317 98 0 14 35 57 48 65 36 15 12 16 72 84 65 169 84 75 68 89 68 65 98 186 288 319 303 302
0 0 0 0 0 0 0 0 8 0 0 0 0 0 0 0 51 192 256 345 404 422 238 110 48 44 65 51 62 79 55 13 29 89 166 208 161 79 34 40 36 30 28 43 84 165 215 135 51

GFSSGP_con_mucape_087.txt.gz
CAPE
0 0 0 0 0 0 0 0 0 0 0 0 0 0 0 0 0 91 1234 1549 1739 1867 1845 1721 1614 1682 2064 2319 2080 1851 1838 1980 2014 1725 1603 1683 1750 1656 1510 1437 1282 1144 983 449 296 213 119 75 71
0 0 0 0 0 0 0 0 0 0 0 0 0 0 0 0 55 355 1055 1454 1538 1782 2090 2032 1592 1757 1949 2169 1754 1822 2008 2134 1997 1704 1696 1833 1906 1715 1614 1387 1102 1077 1023 395 155 49 55 43 21
0 0 0 0 0 0 0 0 0 0 0 0 0 0 2 4 166 668 1564 1349 1362 1637 1890 2261 1649 1688 2002 1902 1684 1595 1687 1416 1582 1612 1859 1970 2007 1814 1574 1303 1072 1022 942 392 144 75 28 8 16
0 0 0 0 0 0 0 0 0 0 0 0 0 0 4 412 410 1297 1246 1185 1121 1299 1873 1926 1695 1700 1983 1667 1313 1198 861 702 839 1300 1476 1692 1565 1660 1156 981 874 868 926 540 174 87 17 11 7
0 0 0 0 0 0 0 0 0 0 0 0 0 0 12 259 789 937 988 787 1040 1252 1486 1869 1537 1378 1939 1985 1226 678 385 444 126 69 535 970 1102 1302 1078 864 781 795 744 499 161 38 2 0 0
0 0 0 0 0 0 0 0 0 0 0 0 0 0 7 495 422 582 619 536 748 1115 1333 1474 1453 1116 1281 1427 917 551 496 194 156 154 601 637 748 660 755 722 654 525 283 174 80 31 1 0 0
0 0 0 0 0 0 0 0 0 0 0 0 0 0 48 585 358 685 472 506 661 874 1067 1387 1659 1066 936 764 638 522 373 332 501 254 312 249 443 416 538 685 539 417 192 66 16 13 5 0 0
0 0 0 0 0 0 0 0 0 0 0 0 0 0 5 640 736 635 555 531 538 661 913 1102 1431 1439 1056 978 255 240 291 226 221 308 175 139 197 359 399 534 477 273 128 37 13 5 0 0 0
0 0 0 0 0 0 0 0 0 0 0 0 0 0 284 572 464 562 563 419 455 529 689 887 1095 1118 897 916 691 188 192 192 176 140 109 83 168 288 395 343 252 137 57 10 10 4 1 0 0
0 0 0 0 0 0 0 0 0 0 0 0 1 2 42 358 341 496 567 637 701 535 554 546 586 805 955 563 609 481 411 340 386 192 163 124 149 249 367 335 135 74 56 15 8 2 0 0 0
0 0 0 0 0 0 0 0 0 0 0 0 0 0 11 286 352 424 423 427 673 483 306 220 67 220 510 682 464 382 636 402 236 178 117 93 117 125 342 299 238 85 4 0 0 0 0 0 0
0 0 0 0 0 0 0 0 0 0 0 0 0 0 0 0 249 341 387 512 389 276 23 31 0 5 44 67 48 504 828 676 192 55 38 111 90 88 311 314 176 21 5 0 0 0 5 0 0
0 0 0 0 0 0 0 0 0 0 0 0 0 0 0 0 80 285 399 510 298 305 101 55 3 12 52 50 33 118 370 627 159 100 29 73 40 54 99 190 158 27 31 21 2 12 0 0 0
0 0 0 0 0 0 0 0 0 0 0 0 0 0 0 18 143 267 550 401 204 182 37 45 8 0 5 4 61 110 178 291 106 46 23 30 26 19 82 185 159 207 102 67 59 32 0 0 0
0 0 0 0 0 0 0 0 0 0 0 0 0 0 0 21 184 332 573 360 180 155 97 9 10 0 0 9 4 12 68 0 0 8 9 11 14 16 66 152 194 241 220 233 152 47 0 0 0
0 0 0 0 0 0 0 0 0 0 0 0 0 0 1 55 253 365 450 276 147 138 55 7 0 0 2 3 3 1 0 0 8 51 13 10 5 3 0 110 173 237 261 164 86 40 2 0 0
0 0 0 0 0 0 0 0 0 0 0 0 0 0 22 184 323 387 445 211 153 105 29 6 0 2 2 8 1 0 0 1 8 15 2 3 7 0 2 84 114 118 118 102 91 55 39 11 0
0 0 0 0 0 5 0 0 0 0 0 0 0 0 15 245 316 323 388 162 180 66 6 13 1 6 11 2 0 2 0 0 6 4 4 1 3 3 63 52 25 7 0 45 23 33 11 9 0
0 0 0 0 1 0 0 0 0 0 0 0 0 0 0 108 207 321 414 175 231 85 6 5 0 3 29 10 0 1 0 0 2 0 2 3 0 31 50 36 43 5 0 0 9 19 24 0 0
0 0 0 0 0 0 0 0 0 0 0 0 0 0 2 68 212 403 428 168 183 87 7 7 1 3 1 5 6 4 2 1 3 4 0 21 21 37 105 140 62 20 8 8 28 64 7 0 0
0 0 0 0 0 3 0 0 0 0 0 0 0 0 0 26 340 491 549 211 56 54 5 5 0 0 15 0 1 2 8 7 1 0 0 25 27 40 68 206 83 107 84 109 173 140 65 42 5
0 0 0 0 0 0 0 0 0 0 0 0 0 0 0 5 245 606 663 392 233 228 6 21 4 0 0 0 1 0 0 0 1 0 0 0 97 42 2 57 124 98 111 156 188 163 248 221 88
0 0 0 0 0 0 0 0 0 0 0 0 0 0 0 1 84 613 789 545 458 382 6 19 12 1 11 0 3 0 0 0 1 1 0 83 111 102 41 26 146 257 223 299 343 314 196 177 180
1 0 0 0 0 0 0 0 0 1 0 0 0 0 0 0 13 405 805 667 601 351 63 20 19 0 0 0 6 0 0 0 2 4 1 0 51 51 55 70 192 205 303 310 380 343 255 322 338
0 0 0 0 0 0 0 0 8 0 0 0 0 0 0 0 1 343 882 748 649 390 64 19 16 1 0 0 1 0 0 1 4 0 1 2 0 13 59 119 263 254 320 276 291 372 409 455 391
0 0 0 3 0 1 44 0 10 0 0 0 0 0 0 0 0 259 796 806 661 482 75 2 4 12 0 0 0 0 0 0 3 1 4 3 0 0 62 229 241 228 285 315 381 437 559 599 686
0 0 0 0 4 0 11 30 23 0 0 0 0 0 0 0 1 133 558 900 744 570 229 35 4 15 17 4 0 0 1 9 4 2 3 3 7 3 0 226 156 279 337 401 461 542 689 694 802
0 0 0 0 0 0 0 16 15 6 0 0 0 1 0 0 0 106 417 955 865 525 367 138 35 18 16 16 25 28 61 70 70 57 3 38 3 10 97 158 283 289 412 592 504 546 627 613 763
0 0 0 0 16 0 0 53 31 27 6 15 13 0 0 0 0 46 398 782 925 577 494 199 81 39 121 14 16 38 40 158 210 160 52 81 11 66 92 140 246 355 492 531 438 521 517 444 539
1 0 0 0 0 37 47 14 31 38 20 23 0 0 0 7 0 36 432 667 834 716 587 308 97 70 348 321 136 109 35 43 105 375 367 268 160 122 164 180 249 273 279 311 337 398 277 374 424

GFSSGP_con_mucape_090.txt.gz
CAPE
0 0 0 0 0 0 0 0 0 0 0 0 0 0 0 0 0 370 1135 1481 1739 1955 1842 1498 1588 1964 2248 2224 1962 1787 1785 1904 1941 1599 1630 1721 1635 1505 1499 1414 1253 1186 1211 758 590 432 309 83 258
0 0 0 0 0 0 0 0 0 0 0 0 0 0 0 0 42 789 1628 1305 1668 1824 2316 1998 1672 1742 2226 2294 2054 1888 1886 2023 1987 1741 1790 1896 1755 1679 1643 1490 1292 1172 1133 689 500 396 208 99 317
0 0 0 0 0 0 0 0 0 0 0 0 0 0 0 2 110 1049 1598 1274 1271 1737 1975 2106 1727 1604 1902 2201 2046 1984 1880 1651 1624 1775 1892 1981 1885 1825 1759 1405 1195 1255 1177 576 375 287 86 116 172
0 0 0 0 0 0 0 0 0 0 0 0 0 0 0 139 8 1333 1231 1060 1056 1502 1927 1819 1819 1706 1926 1919 2029 1907 1738 1212 842 6 114 1560 1925 1776 1579 1214 1083 1055 1007 577 249 108 46 48 56
0 0 0 0 0 0 0 0 0 0 0 0 0 0 0 77 907 981 1149 911 1055 1480 2005 1903 1563 1604 1913 1964 1859 1758 1226 792 420 115 2 89 1072 1189 989 1012 1040 950 901 538 94 45 38 27 11
0 0 0 0 0 0 0 0 0 0 0 0 0 0 0 230 520 935 1058 768 889 1241 1895 1550 1352 1301 1501 1856 1379 1065 601 414 200 29 0 3 304 484 478 648 746 880 659 421 144 62 35 17 0
0 0 0 0 0 0 0 0 0 0 0 0 0 0 26 255 564 995 767 741 862 930 1255 1704 1374 1089 986 1179 1068 687 630 255 187 46 0 27 197 254 411 369 684 596 405 232 61 31 18 0 0
0 0 0 0 0 0 0 0 0 0 0 0 0 0 5 478 793 625 556 590 797 767 1081 1236 1457 1364 921 922 698 520 459 355 116 152 83 20 154 170 249 275 332 364 239 102 26 0 0 0 0
0 0 0 0 0 0 0 0 0 0 0 0 0 0 96 899 647 556 797 641 707 610 738 719 943 1240 1005 907 470 333 498 366 272 229 98 33 49 89 174 145 188 187 77 32 9 0 0 0 0
0 0 0 0 0 0 0 0 0 0 0 0 0 0 31 460 238 318 419 585 775 657 747 569 1045 1070 935 845 379 291 362 290 108 59 76 27 41 44 137 124 141 123 43 14 8 0 0 0 0
0 0 0 0 0 0 0 0 0 0 0 0 0 0 0 172 247 221 212 272 907 936 505 321 240 232 764 710 457 388 343 116 92 44 55 35 70 100 101 143 69 24 12 3 0 0 0 0 0
0 0 0 0 0 0 0 0 0 0 0 0 0 0 0 0 0 73 108 201 222 614 322 160 220 27 199 361 211 240 215 154 77 59 55 28 97 106 105 89 54 0 0 0 0 0 0 0 0
0 0 0 0 0 0 0 0 0 0 0 0 0 0 0 0 0 0 81 178 380 448 146 0 102 29 0 34 51 36 110 298 85 75 56 24 60 73 92 93 45 0 0 0 0 0 0 0 0
0 0 0 0 0 0 0 0 0 0 0 0 0 0 0 0 0 0 118 302 482 313 98 0 125 11 0 0 13 43 28 135 159 71 51 25 54 42 68 69 65 0 0 0 0 0 0 0 0
0 0 0 0 0 0 0 0 0 0 0 0 0 0 0 0 0 31 190 595 401 195 115 6 59 12 9 0 0 0 56 59 63 70 56 37 8 41 15 27 28 11 22 0 27 0 0 0 0
0 0 0 0 0 0 0 0 0 0 0 0 0 0 0 0 0 77 249 557 208 104 79 0 3 9 15 6 10 20 14 24 22 65 31 46 35 18 6 14 68 34 53 46 29 7 0 0 0
0 0 0 0 0 0 0 0 0 0 0 0 0 0 0 7 11 188 353 415 130 77 50 0 7 12 8 9 0 3 1 2 0 0 3 33 58 38 3 42 77 112 108 63 48 14 7 0 0
0 0 0 0 0 0 0 0 0 0 0 0 0 0 0 15 59 275 392 339 98 106 20 1 9 12 17 0 4 4 0 0 1 6 12 31 18 20 3 6 49 72 75 61 29 19 40 6 2
0 0 0 0 0 0 4 6 0 0 0 0 0 0 0 0 85 372 476 286 205 67 0 0 1 15 4 2 4 0 0 0 0 4 17 7 14 2 5 16 56 96 104 52 22 52 57 0 0
0 0 0 0 0 0 0 0 0 0 0 0 0 0 0 1 35 351 587 270 271 62 0 1 3 0 0 1 0 0 0 0 0 3 7 6 3 3 2 2 0 43 11 3 28 6 0 0 0
0 0 0 0 0 0 0 0 0 0 0 0 0 0 0 6 45 366 631 340 319 62 1 3 4 5 0 0 0 0 0 0 1 9 1 3 4 2 0 0 0 0 0 0 0 0 0 0 0
0 0 0 0 0 0 0 0 0 0 0 0 0 0 0 0 47 365 641 437 219 121 1 16 5 6 0 0 0 0 0 0 5 2 7 0 0 5 4 4 9 0 0 19 2 39 5 23 0
0 2 0 0 0 0 0 0 0 0 0 0 0 0 0 0 0 408 658 594 217 101 3 3 8 4 0 1 0 2 0 7 3 4 0 0 0 0 0 85 71 54 18 31 32 85 165 91 87
8 1 0 0 0 0 0 0 0 0 0 3 0 0 0 0 0 395 766 642 406 212 46 7 6 4 0 0 0 1 2 0 0 0 2 0 0 0 13 38 40 39 44 69 123 106 160 81 72
3 5 0 0 0 0 0 0 0 0 0 4 1 0 0 1 3 81 883 632 469 362 196 14 4 6 0 0 0 4 2 0 0 0 4 7 0 0 70 49 19 45 80 75 175 160 96 110 157
1 16 0 0 0 0 0 0 0 0 0 0 0 0 0 2 7 88 836 713 595 456 190 0 5 6 3 0 2 0 1 0 0 0 2 4 1 0 17 26 46 36 74 116 151 182 211 204 172
14 0 1 0 0 0 13 10 2 5 0 0 0 0 1 0 0 0 731 827 617 519 216 15 4 9 2 0 0 0 0 0 0 0 2 6 6 0 0 15 42 60 97 125 143 125 176 184 250
0 16 0 0 0 0 1 0 0 71 78 0 1 0 6 1 1 3 310 945 680 605 300 20 3 6 5 4 2 2 0 0 5 0 0 8 13 6 0 3 29 32 41 106 118 131 142 208 247
0 0 0 0 0 0 0 0 41 43 19 57 45 36 6 4 1 30 205 985 731 701 380 54 0 5 3 4 17 4 0 0 0 0 0 1 1 8 10 19 14 26 35 55 126 156 157 208 206
2 0 0 0 0 0 0 0 0 0 0 18 35 37 13 0 26 32 241 1028 921 685 414 148 22 7 11 3 1 8 4 22 13 0 0 0 0 0 1 4 6 2 42 44 52 116 146 122 146

GFSSGP_con_mucape_096.txt.gz
CAPE
0 0 0 0 0 0 0 0 0 0 0 0 0 0 0 0 0 1 1010 1398 1344 1227 1233 1724 1817 1812 1768 1763 1644 1631 2001 1915 1931 1824 1698 1684 1664 1593 1480 1414 1405 1506 1488 969 872 1142 940 710 884
0 0 0 0 0 0 0 0 0 0 0 0 0 0 0 445 821 1038 1223 1580 1573 1305 1181 1295 1899 1903 1922 1862 1775 1685 2033 1912 2047 1970 1824 1775 1727 1709 1601 1389 1220 1453 1561 1058 1052 1060 828 867 757
0 0 0 0 0 0 0 0 0 0 0 0 0 0 0 292 937 1001 1141 1698 1752 1656 1602 1372 1585 2059 2005 1935 1894 1856 2088 1989 2021 1437 1159 934 1226 1756 1672 1392 1435 1454 1475 1012 883 927 853 803 438
0 0 0 0 0 0 0 0 0 0 0 0 0 0 0 320 1063 1371 1514 1540 1944 1910 1820 1616 1442 1891 2201 2166 2027 2018 2121 1800 1074 753 520 353 490 442 824 1087 1382 1504 1483 1192 773 998 815 509 259
0 0 0 0 0 0 0 0 0 0 0 0 0 0 69 790 1148 1193 1451 1484 1574 1977 1883 1688 1457 1575 2196 2425 2268 2071 2043 1489 1069 566 246 167 174 201 72 287 638 1102 1319 1225 881 790 574 355 210
0 0 0 0 0 0 0 0 0 0 0 0 0 0 74 902 1079 877 883 1460 1641 1745 1684 1594 1570 1524 1663 2278 2269 2045 1892 1533 1092 726 320 153 98 50 29 6 462 624 782 812 615 476 386 314 102
0 0 0 0 0 0 0 0 0 0 0 0 0 0 377 939 890 858 681 944 1377 1466 1426 1334 1383 1549 1605 1609 1752 2072 1703 1534 1380 820 465 340 158 72 13 64 217 597 610 512 423 350 271 104 3
0 0 0 0 0 0 0 0 0 0 0 0 0 0 624 774 815 613 411 589 838 1050 1065 881 663 605 712 1272 1357 1550 1864 1612 1269 1029 918 315 76 86 42 206 140 408 501 350 293 195 88 4 7
0 0 0 0 0 0 0 0 0 0 0 0 0 0 2 457 719 356 320 252 224 445 834 900 659 508 621 937 1257 1067 1512 1403 1152 788 304 68 3 77 45 139 268 327 272 252 140 91 20 10 0
0 0 0 0 0 0 0 0 0 0 0 0 0 9 313 562 581 308 242 308 314 251 503 665 736 671 705 765 695 1012 922 1007 502 260 97 2 9 8 86 122 214 165 131 158 58 54 0 0 0
0 0 0 0 0 0 0 0 0 0 0 0 0 0 393 474 483 295 116 189 301 243 472 391 481 654 676 553 477 477 846 518 283 144 28 25 43 109 136 135 133 90 83 26 2 27 2 0 0
0 0 0 0 0 0 0 0 0 0 0 0 0 0 274 398 402 197 153 119 164 321 359 331 268 787 760 745 298 331 321 245 117 48 27 17 32 110 82 87 49 46 27 0 0 0 0 2 0
0 0 0 0 0 0 0 0 0 0 0 0 0 0 206 360 413 245 119 149 243 389 454 380 338 287 434 683 342 201 205 237 101 36 27 27 24 25 65 22 21 27 16 0 0 0 0 0 0
0 0 0 0 0 0 0 0 0 0 0 0 0 0 1 170 323 115 57 80 229 349 516 414 326 153 70 286 379 204 139 96 41 20 18 30 18 33 57 3 1 33 1 0 0 0 0 0 0
0 0 0 0 0 0 0 0 0 0 0 0 0 0 0 0 3 1 0 20 124 365 445 324 233 159 39 6 235 284 242 177 13 21 18 25 30 56 20 19 17 17 0 0 0 0 0 0 0
0 0 0 0 0 0 0 0 0 0 0 0 0 0 0 0 0 0 0 16 217 388 356 260 159 106 3 0 25 107 196 180 83 53 61 15 29 30 10 26 16 0 0 0 0 0 0 0 0
0 0 0 0 0 0 0 0 0 0 0 0 0 0 0 0 0 0 0 123 208 283 255 161 164 104 0 0 3 3 3 14 67 49 35 25 18 36 9 7 1 0 0 0 0 0 0 0 0
0 0 0 0 0 0 0 0 0 0 0 0 0 0 0 0 0 0 19 185 250 242 195 235 257 67 0 2 3 4 14 39 45 67 48 29 20 11 20 6 8 0 0 0 0 0 0 0 0
0 0 0 0 0 0 0 0 0 0 0 0 0 0 0 0 0 0 120 180 202 222 246 246 185 26 0 0 3 4 0 41 100 74 55 67 42 20 24 17 5 7 0 0 0 0 0 0 0
0 0 0 0 0 0 0 0 0 0 0 0 0 0 0 0 0 1 234 199 230 228 196 176 159 19 0 0 1 0 1 20 34 47 57 43 14 24 49 35 21 6 5 0 0 0 0 0 0
0 0 0 0 0 0 0 0 0 0 0 0 0 0 0 0 0 9 282 234 242 221 134 150 130 16 0 0 0 1 5 0 0 0 1 6 23 31 21 50 24 5 6 0 5 3 1 0 0
0 0 0 0 0 0 0 0 0 0 0 0 0 0 0 0 0 28 282 220 203 184 179 194 123 18 0 0 1 0 0 0 0 0 0 0 3 25 54 28 23 2 3 0 40 7 4 0 0
0 0 0 0 0 0 0 0 0 0 0 0 0 0 0 0 0 2 248 202 208 185 190 167 80 14 0 0 1 0 0 0 0 0 5 0 3 11 7 12 20 13 5 0 52 4 5 0 0
0 0 1 0 0 0 0 0 0 0 0 0 0 0 0 0 0 3 133 197 247 194 177 144 44 10 0 0 0 0 0 0 0 0 0 0 1 5 10 20 4 4 4 24 61 24 5 3 0
0 0 0 0 0 0 0 0 0 0 0 0 0 0 0 0 0 10 91 227 260 185 174 144 28 3 0 0 1 0 0 0 0 6 1 3 5 4 2 5 2 2 0 0 15 38 52 2 0
0 0 0 0 0 0 11 0 0 2 0 4 0 0 0 0 2 20 102 240 273 198 185 140 14 2 0 0 0 0 0 0 6 5 3 13 4 3 10 0 0 0 0 9 1 5 33 23 0
0 0 0 3 1 0 0 0 0 0 0 1 0 0 0 0 26 81 144 264 297 239 245 200 18 0 0 0 0 0 0 0 5 3 7 6 3 1 0 12 6 3 2 3 1 1 2 30 38
0 0 7 12 0 0 0 0 0 0 0 0 0 0 0 0 218 156 198 275 315 298 330 262 76 0 2 0 0 0 0 0 0 6 0 0 0 5 0 0 7 1 0 0 5 14 19 14 27
0 0 11 2 0 0 0 0 7 0 3 0 0 0 0 0 222 345 330 356 391 440 454 356 149 8 0 0 0 1 0 0 0 0 0 0 2 0 5 0 0 0 0 6 0 4 18 22 20
0 0 0 0 0 0 0 0 20 0 0 0 0 0 0 0 3 473 414 403 419 510 563 450 286 45 15 1 1 1 1 0 0 0 0 0 0 0 11 0 0 0 3 6 30 27 15 12 5

GFSSGP_con_mucape_099.txt.gz
CAPE
0 0 0 0 0 0 0 0 0 0 0 0 0 0 0 0 0 0 552 1078 1258 1102 1503 1463 1577 1715 1708 1737 1740 1937 2084 2036 2026 1990 1952 1972 1981 1964 1913 1755 1565 1628 1197 1243 1226 1327 1188 1071 1088
0 0 0 0 0 0 0 0 0 0 0 0 0 0 0 37 580 714 1217 1294 1246 1062 1538 1532 1527 1689 1808 1715 1818 2069 2142 2028 2029 1970 1976 1998 1967 1951 1927 1831 1751 1612 1315 936 1231 1183 1139 914 993
0 0 0 0 0 0 0 0 0 0 0 0 0 0 0 80 711 812 958 1282 1153 980 1306 1632 1552 1660 1842 1805 1754 2011 2068 2113 1989 1951 1914 1869 1906 1775 1807 1687 1661 1658 1605 1137 1290 1190 996 837 621
0 0 0 0 0 0 0 0 0 0 0 0 0 0 0 299 842 886 1277 1470 1267 1081 1037 1326 1705 1674 1901 1962 1898 2002 1999 1961 1885 1705 1801 1982 1976 1858 1571 1507 1609 1669 1591 1459 1287 972 816 555 382
0 0 0 0 0 0 0 0 0 0 0 0 0 0 0 787 892 1117 1620 1668 1470 1461 1431 1217 1590 1878 2014 2171 2120 2065 1932 1381 1261 1139 1303 1499 1779 1715 1528 1461 1300 1174 1320 1371 1267 925 438 386 233
0 0 0 0 0 0 0 0 0 0 0 0 0 0 105 651 1132 1365 1564 1759 1792 1731 1644 1409 1289 1763 2174 2235 2069 1965 1686 1297 947 638 729 960 1100 1042 1129 1275 1043 1081 1236 1046 829 618 317 400 145
0 0 0 0 0 0 0 0 0 0 0 0 0 0 0 806 1170 1474 1369 1539 1739 1883 1739 1461 1237 1293 1824 2141 2030 1836 1707 1440 1249 819 763 537 316 166 529 732 797 891 739 665 602 405 309 149 35
0 0 0 0 0 0 0 0 0 0 0 0 0 0 55 809 1062 1023 1232 1524 1686 1703 1582 1501 1431 1283 1328 1470 1832 1997 1702 1528 1455 1310 812 554 352 249 252 265 367 586 586 381 361 307 196 25 2
0 0 0 0 0 0 0 0 0 0 0 0 0 0 0 813 882 794 872 1093 1345 1378 1257 1070 969 797 798 1090 1300 1298 1738 1484 1305 1104 890 584 495 456 235 153 320 405 328 258 376 215 46 0 0
0 0 0 0 0 0 0 0 0 0 0 0 0 0 57 843 850 627 492 582 768 918 938 774 533 372 395 666 1114 1065 1045 1389 1135 1158 1005 923 477 157 80 196 357 413 290 281 285 168 31 7 0
0 0 0 0 0 0 0 0 0 0 0 0 0 0 129 548 650 518 171 25 70 281 628 745 588 391 431 631 774 607 821 934 1079 1165 736 472 114 7 85 53 147 175 121 130 140 84 14 10 5
0 0 0 0 0 0 0 0 0 0 0 0 0 0 72 305 504 422 167 23 93 102 241 557 678 466 468 447 447 259 420 405 487 393 533 148 32 15 118 91 33 12 75 99 91 28 15 4 1
0 0 0 0 0 0 0 0 0 0 0 0 0 0 0 77 262 338 346 132 45 152 201 417 456 439 459 387 352 267 173 194 227 232 209 68 19 70 102 113 78 96 57 72 81 41 7 0 0
0 0 0 0 0 0 0 0 0 0 0 0 0 0 0 14 80 143 288 273 55 122 217 395 309 459 635 560 396 167 422 715 164 175 77 26 23 36 97 85 93 82 51 40 74 24 0 0 0
0 0 0 0 0 0 0 0 0 0 0 0 0 0 0 0 5 54 156 250 156 137 210 361 361 339 465 552 423 167 91 185 605 172 55 39 29 34 28 59 34 3 49 50 72 50 0 0 0
0 0 0 0 0 0 0 0 0 0 0 0 0 0 0 0 0 0 41 123 242 150 225 388 394 302 151 86 276 241 125 71 199 141 35 21 27 26 36 49 13 4 57 37 59 58 0 0 0
0 0 0 0 0 0 0 0 0 0 0 0 0 0 0 0 0 0 0 8 61 109 181 374 384 240 118 64 46 117 148 189 86 40 25 27 28 35 45 16 14 12 62 12 15 56 0 0 0
0 0 0 0 0 0 0 0 0 0 0 0 0 0 0 0 0 0 0 0 1 63 148 382 329 220 92 47 0 4 17 52 137 112 35 31 44 47 48 17 14 56 3 6 0 2 0 0 0
0 0 0 0 0 0 0 0 0 0 0 0 0 0 0 0 0 0 0 0 2 70 173 411 294 123 130 0 0 0 2 3 21 103 53 46 49 49 39 38 31 18 4 0 0 1 0 0 0
0 0 0 0 0 0 0 0 0 0 0 0 0 0 0 0 0 0 0 0 0 59 345 346 187 141 107 1 0 0 0 7 8 52 104 66 49 39 30 38 18 5 0 0 0 0 0 0 0
0 0 0 0 0 0 0 0 0 0 0 0 0 0 0 0 0 0 0 0 13 175 337 263 151 141 81 0 0 0 2 2 0 34 45 56 45 21 29 23 25 8 1 0 0 0 0 0 0
0 0 0 0 0 0 0 0 0 0 0 0 0 0 0 0 0 0 0 1 98 172 274 201 170 117 76 0 0 0 0 0 0 0 14 42 46 41 33 46 51 10 9 9 0 3 20 11 8
0 0 0 0 0 0 0 0 0 0 0 0 0 0 0 0 0 0 0 23 110 142 226 194 161 114 80 0 0 0 0 0 0 0 0 0 6 34 25 28 39 13 1 5 2 19 16 8 22
0 0 0 0 0 0 0 0 0 0 0 0 0 0 0 0 0 0 0 3 104 133 224 214 163 159 70 0 0 0 0 0 0 0 0 0 0 0 38 19 25 5 2 6 8 0 50 56 55
0 0 0 0 0 0 0 0 0 0 0 0 0 0 0 0 0 0 0 2 62 170 219 218 190 179 64 0 0 0 0 0 0 0 0 0 1 0 6 5 4 27 18 6 3 1 38 57 6
0 0 0 0 0 0 0 0 0 0 0 0 0 0 0 0 0 0 0 7 20 89 203 223 230 155 60 0 0 1 0 0 0 0 0 0 0 0 5 8 3 7 22 4 0 0 3 27 0
0 0 0 0 0 0 0 0 0 0 0 0 0 0 0 0 0 0 0 9 39 31 230 236 228 149 40 0 0 0 0 0 0 0 0 11 0 0 0 0 17 18 3 0 0 0 0 0 0
0 0 0 0 0 0 0 0 0 3 2 0 1 1 0 0 4 29 7 7 55 59 256 259 217 157 7 2 0 0 0 0 0 0 6 10 5 0 0 0 0 0 0 0 0 0 1 0 49
0 0 0 0 0 0 0 0 22 0 0 0 0 0 0 0 0 135 63 59 25 84 275 281 213 179 5 2 0 0 0 0 0 0 12 0 1 6 29 23 7 6 9 1 2 2 0 0 20
0 0 0 2 0 5 0 0 53 0 10 15 0 0 0 0 0 0 174 214 68 98 322 284 243 242 27 0 0 0 0 0 0 0 0 0 0 0 13 3 26 17 8 0 5 0 0 3 5

GFSSGP_con_mucape_102.txt.gz
CAPE
0 0 0 0 0 0 0 0 0 0 0 0 0 0 0 0 0 0 287 1002 926 1002 1207 1295 1544 1663 1693 1707 1763 1859 2137 2290 2337 2237 2149 2127 2113 2043 1985 1958 1920 2003 2032 1695 1555 1679 1452 1206 1291
0 0 0 0 0 0 0 0 0 0 0 0 0 0 0 0 231 407 931 1121 1138 1111 1240 1327 1513 1645 1746 1797 1858 1973 2170 2311 2283 2292 2267 2247 2225 2119 2101 2088 1639 1801 2033 1851 1460 1543 1397 1299 946
0 0 0 0 0 0 0 0 0 0 0 0 0 0 0 0 504 459 916 1108 1252 1223 1323 1327 1485 1546 1752 1835 1962 2100 2077 2127 2178 2207 2315 2366 2351 2213 2149 1898 1633 1610 1697 1678 1436 1337 1322 1178 913
0 0 0 0 0 0 0 0 0 0 0 0 0 0 0 47 606 541 970 1290 1237 1149 1395 1443 1479 1538 1765 1827 2070 2130 2089 1927 1973 2064 2246 2314 2352 2333 2038 1692 1452 1306 1487 1611 1327 1272 1119 824 596
0 0 0 0 0 0 0 0 0 0 0 0 0 0 0 536 675 900 1184 1276 1012 954 1293 1500 1488 1559 1849 1975 1984 2069 1986 1800 1862 1985 2042 2132 2199 1976 1622 1336 1354 1381 1432 1616 1422 1187 925 605 366
0 0 0 0 0 0 0 0 0 0 0 0 0 0 0 282 916 1308 1288 1259 1086 956 957 1191 1648 1611 1844 1975 1874 1856 1659 1658 1545 1675 1884 2064 2024 1742 1530 1512 1416 1415 1330 1286 1148 770 762 437 224
0 0 0 0 0 0 0 0 0 0 0 0 0 0 0 247 908 1315 1483 1440 1322 1188 1209 1094 1438 1808 1909 1910 1828 1800 1488 1342 1059 1147 1392 1479 1405 1381 1606 1523 1333 976 915 1096 967 734 495 280 207
0 0 0 0 0 0 0 0 0 0 0 0 0 0 0 53 841 1289 1550 1671 1741 1528 1445 1261 1140 1549 1919 1888 1828 1753 1629 1332 1146 694 772 853 768 751 865 992 892 1071 1037 939 633 433 242 165 132
0 0 0 0 0 0 0 0 0 0 0 0 0 0 0 133 943 1308 1339 1516 1663 1768 1599 1364 1182 1129 1281 1639 1825 1804 1618 1474 1331 1158 979 748 384 221 162 311 475 606 470 454 297 194 117 117 50
0 0 0 0 0 0 0 0 0 0 0 0 0 0 18 479 1033 1142 1130 1334 1570 1666 1535 1430 1407 1359 1120 965 972 1552 1702 1618 1382 1382 1184 825 382 124 300 390 247 473 277 241 239 104 102 64 4
0 0 0 0 0 0 0 0 0 0 0 0 0 0 18 466 751 766 705 997 1152 1346 1315 1283 1051 909 783 849 682 1219 1636 1135 1282 1218 1021 858 527 432 431 158 92 118 156 139 152 84 58 51 0
0 0 0 0 0 0 0 0 0 0 0 0 0 0 0 177 516 656 617 587 602 778 928 911 761 464 356 355 986 925 871 737 684 1340 1050 840 766 584 159 58 99 137 103 123 83 59 29 11 0
0 0 0 0 0 0 0 0 0 0 0 0 0 0 0 1 202 402 457 385 237 154 407 562 686 484 307 358 565 733 360 416 459 643 735 891 502 173 42 33 70 114 69 57 12 57 67 6 1
0 0 0 0 0 0 0 0 0 0 0 0 0 0 0 0 3 92 146 223 164 29 5 103 478 580 418 396 354 274 114 215 150 139 171 334 239 78 40 73 47 57 26 26 15 58 118 50 28
0 0 0 0 0 0 0 0 0 0 0 0 0 0 0 0 0 0 1 36 89 182 98 31 271 524 480 363 317 350 480 351 40 106 183 239 199 47 26 43 63 21 14 44 54 110 111 86 63
0 0 0 0 0 0 0 0 0 0 0 0 0 0 0 0 0 0 0 0 1 78 233 52 258 398 330 341 396 307 311 311 408 36 16 153 71 14 33 97 57 14 40 23 61 87 89 75 15
0 0 0 0 0 0 0 0 0 0 0 0 0 0 0 0 0 0 0 0 0 6 85 151 163 409 362 410 419 407 196 355 358 349 152 163 61 33 38 34 43 31 5 32 46 71 85 76 1
0 0 0 0 0 0 0 0 0 0 0 0 0 0 0 0 0 0 0 0 0 0 18 105 95 404 400 282 113 127 90 57 465 360 207 76 32 41 52 46 38 38 5 6 44 87 66 52 2
0 0 0 0 0 0 0 0 0 0 0 0 0 0 0 0 0 0 0 0 0 0 0 54 111 362 385 214 98 52 28 137 178 310 54 47 38 52 32 42 50 40 7 6 3 68 0 53 2
0 0 0 0 0 0 0 0 0 0 0 0 0 0 0 0 0 0 0 0 0 0 0 17 71 338 316 194 93 27 1 3 10 30 87 51 58 38 49 45 8 4 15 5 2 83 78 45 28
0 0 0 0 0 0 0 0 0 0 0 0 0 0 0 0 0 0 0 0 0 0 0 2 29 314 282 178 62 8 1 3 1 16 39 23 47 36 67 47 31 4 2 0 1 76 95 27 27
0 0 0 0 0 0 0 0 0 0 0 0 0 0 0 0 0 0 0 0 0 0 0 0 21 292 281 122 54 3 0 0 0 0 15 25 32 40 89 21 21 21 18 11 2 18 67 31 9
0 0 0 0 0 0 0 0 0 0 0 0 0 0 0 0 0 0 0 0 0 0 0 0 18 306 204 84 34 2 0 0 0 0 0 47 23 8 22 6 59 18 0 0 0 0 1 34 24
0 0 0 0 0 0 0 0 0 0 0 0 0 0 0 0 0 0 0 0 0 0 0 2 95 284 121 78 33 1 0 0 0 0 0 0 1 11 12 9 43 49 8 3 6 0 0 8 23
0 0 0 0 0 0 0 0 0 0 0 0 0 0 0 0 0 0 0 0 0 0 0 5 129 200 98 69 37 0 0 0 0 0 0 0 0 0 3 7 10 6 27 27 0 0 1 50 55
0 0 0 0 0 0 0 0 0 0 0 0 0 0 0 0 0 0 0 0 0 0 0 0 69 144 102 69 32 0 0 0 0 0 0 0 0 0 0 0 21 11 13 14 2 0 0 5 95
0 0 0 0 0 0 0 0 0 0 0 0 0 0 0 5 0 0 0 15 0 0 0 6 62 136 119 102 31 0 0 0 0 0 0 0 0 0 0 10 10 26 9 1 16 2 1 0 32
0 0 0 0 0 0 0 0 0 0 0 0 0 0 0 21 8 0 0 0 0 0 0 6 27 158 135 131 16 0 0 0 0 0 0 0 0 0 0 5 9 3 6 17 6 3 0 0 0
0 0 0 0 0 0 0 0 0 0 0 0 0 0 0 4 3 0 10 26 42 0 0 2 8 156 139 110 0 0 0 0 0 0 0 0 0 0 0 0 0 0 0 0 3 1 4 0 0
0 0 0 0 0 0 0 0 26 0 6 1 5 0 0 0 0 3 5 0 32 108 15 11 15 174 166 93 0 0 0 0 0 0 0 0 0 0 0 0 0 0 0 0 0 0 0 1 0

GFSSGP_con_mucape_105.txt.gz
CAPE
0 0 0 0 0 0 0 0 0 0 0 0 0 0 0 0 0 0 274 1168 1227 1404 1323 1408 1279 1490 1609 1637 1858 2087 2378 2403 2351 2281 2239 2221 2185 2128 2135 2171 2114 2063 2091 1745 1815 1967 1817 1565 1409
0 0 0 0 0 0 0 0 0 0 0 0 0 0 0 0 20 245 796 1170 1297 1391 1385 1587 1329 1542 1694 1686 1875 2184 2497 2525 2457 2410 2385 2356 2315 2233 2275 2159 2144 2137 2145 2052 1703 1750 1526 1593 1380
0 0 0 0 0 0 0 0 0 0 0 0 0 0 0 0 382 367 1085 1330 1321 1273 1311 1546 1437 1500 1734 1762 1839 2189 2335 2379 2393 2388 2500 2514 2408 2346 2183 1945 1696 2041 1951 2177 1860 1657 1654 1303 1124
0 0 0 0 0 0 0 0 0 0 0 0 0 0 0 0 414 421 1164 1445 1467 1339 1299 1247 1482 1508 1722 1892 2001 2069 2224 2141 2227 2323 2493 2529 2523 2428 1943 1845 1809 1694 1579 1929 2050 1712 1433 1079 839
0 0 0 0 0 0 0 0 0 0 0 0 0 0 0 527 650 799 1348 1493 1571 1565 1284 1245 1466 1511 1725 2012 2171 2160 2011 2038 2134 2251 2385 2463 2465 2373 1851 1475 1318 1437 1528 1605 1841 1583 1096 859 678
0 0 0 0 0 0 0 0 0 0 0 0 0 0 0 301 938 1248 1401 1553 1532 1564 1630 1770 1461 1493 1618 1786 1952 1972 1821 1727 1976 2115 2200 2347 2301 2010 1651 1402 1309 1127 1409 1539 1496 1238 898 676 502
0 0 0 0 0 0 0 0 0 0 0 0 0 0 0 104 893 1444 1381 1352 1302 1308 1452 1887 1874 1795 1631 1665 1622 1733 1708 1634 1716 1885 1835 1885 1754 1420 1523 1259 1250 1433 1210 1225 1293 1013 685 517 331
0 0 0 0 0 0 0 0 0 0 0 0 0 0 0 0 713 1299 1399 1471 1425 1272 1311 1446 2020 1976 2126 2136 1600 1672 1382 1569 1486 1554 1635 1688 1513 1274 1087 1245 1266 1302 1167 985 980 813 565 358 275
0 0 0 0 0 0 0 0 0 0 0 0 0 0 0 46 546 1233 1374 1240 1285 1141 1347 1344 1560 2012 1927 2226 2109 1583 1429 1376 1196 1177 1344 1350 1403 1290 1128 1096 804 819 867 1158 894 602 414 257 243
0 0 0 0 0 0 0 0 0 0 0 0 0 0 45 200 844 1329 1278 1349 1273 1371 1312 1295 1373 1576 1927 1833 2149 1698 1759 1514 1382 1176 1286 1328 1012 1062 1040 763 506 744 624 683 501 353 300 212 145
0 0 0 0 0 0 0 0 0 0 0 0 0 0 0 244 653 1281 1220 1310 1343 1393 1249 1491 1313 1307 1354 1539 1703 1693 1514 1328 1422 1244 1160 868 757 420 523 601 536 727 541 914 201 171 143 82 67
0 0 0 0 0 0 0 0 0 0 0 0 0 0 0 0 377 918 1162 1043 1069 1121 1158 1681 1373 1232 1212 1199 1245 1189 1215 1190 1336 1175 1113 1112 1045 544 295 232 315 365 727 635 139 241 90 41 78
0 0 0 0 0 0 0 0 0 0 0 0 0 0 0 0 0 332 828 829 697 831 1079 1004 1314 1242 1017 718 733 917 736 752 1267 888 842 1032 885 555 482 288 307 444 580 596 73 86 86 48 67
0 0 0 0 0 0 0 0 0 0 0 0 0 0 0 0 0 3 383 552 423 377 602 695 830 910 589 312 567 542 417 994 1103 892 508 844 903 563 326 426 242 303 214 275 66 52 69 11 51
0 0 0 0 0 0 0 0 0 0 0 0 0 0 0 0 0 0 9 313 419 406 340 298 554 694 566 436 506 685 794 922 641 565 365 369 383 580 400 172 272 145 71 67 54 61 6 8 34
0 0 0 0 0 0 0 0 0 0 0 0 0 0 0 0 0 0 0 2 37 149 145 100 109 427 484 304 334 511 323 227 154 144 75 85 75 95 142 155 50 42 63 17 44 10 8 7 61
0 0 0 0 0 0 0 0 0 0 0 0 0 0 0 0 0 0 0 0 0 0 46 97 113 230 269 340 380 421 247 214 180 92 6 46 110 171 137 103 38 35 30 26 4 5 9 3 101
0 0 0 0 0 0 0 0 0 0 0 0 0 0 0 0 0 0 0 0 0 0 0 39 153 192 144 325 393 257 255 279 143 73 221 51 2 81 89 49 46 36 22 5 2 4 7 17 93
0 0 0 0 0 0 0 0 0 0 0 0 0 0 0 0 0 0 0 0 0 0 0 9 75 119 50 276 311 273 180 274 41 479 87 107 308 126 56 55 33 53 41 2 6 6 0 24 84
0 0 0 0 0 0 0 0 0 0 0 0 0 0 0 0 0 0 0 0 0 0 0 1 26 18 130 240 347 346 157 49 51 117 3 132 96 41 49 65 53 47 34 45 8 5 0 56 61
0 0 0 0 0 0 0 0 0 0 0 0 0 0 0 0 0 0 0 0 0 0 0 0 2 2 103 198 361 309 149 66 15 112 62 74 54 54 47 41 14 33 5 3 8 2 19 0 17
0 0 0 0 0 0 0 0 0 0 0 0 0 0 0 0 0 0 0 0 0 0 0 0 4 3 33 228 379 308 157 68 0 1 29 27 55 54 39 34 32 5 0 0 4 2 0 0 0
0 0 0 0 0 0 0 0 0 0 0 0 0 0 0 0 0 0 0 0 0 0 0 0 2 56 18 216 349 272 169 53 0 1 0 8 34 48 41 14 30 4 5 13 19 9 0 0 0
0 0 0 0 0 0 0 0 0 0 0 0 0 0 0 0 0 0 0 0 0 0 0 3 0 33 16 143 310 268 146 30 0 1 0 0 17 30 14 3 16 7 8 6 1 4 3 2 0
0 0 0 0 0 0 0 0 0 0 0 0 0 0 0 0 0 0 0 0 0 0 4 6 0 24 23 104 298 261 115 30 0 1 1 0 0 7 23 1 14 6 3 5 12 8 4 0 0
0 0 0 0 0 0 0 0 0 0 0 0 0 0 0 0 0 0 0 0 0 0 0 7 1 10 17 79 309 199 98 9 1 3 0 0 0 0 5 7 9 5 13 16 8 12 11 0 19
0 0 0 0 0 0 0 0 0 0 0 0 0 0 0 0 0 0 0 0 0 0 2 9 3 8 2 196 268 156 110 0 2 0 0 0 0 0 0 0 0 13 1 17 9 1 4 3 0
0 0 0 0 0 0 0 0 0 0 0 0 0 0 0 0 0 0 0 0 0 0 9 0 2 31 6 213 197 139 117 0 0 0 0 0 0 0 0 0 0 18 2 23 20 15 2 1 0
0 0 0 0 0 0 0 0 0 0 0 0 0 0 0 0 0 0 0 0 0 0 16 0 2 3 16 121 206 160 49 0 0 0 0 0 0 0 0 0 0 9 7 1 5 2 2 1 0
0 0 0 0 0 0 0 0 0 0 0 0 0 0 0 0 0 0 0 0 0 0 19 32 0 0 14 37 231 183 4 0 0 0 0 0 0 0 0 0 0 0 3 7 0 0 0 5 5

GFSSGP_con_mucape_108.txt.gz
CAPE
0 0 0 0 0 0 0 0 0 0 0 0 0 0 0 0 0 0 447 1062 1051 1174 1513 1241 955 1363 1600 1744 1937 2172 2154 2258 2330 2277 2263 2321 2354 2375 2331 2215 2181 2186 2259 2025 1844 1924 1945 1750 1664
0 0 0 0 0 0 0 0 0 0 0 0 0 0 0 0 0 203 797 1216 1130 1368 1752 1683 1073 1383 1653 1819 2086 2351 2442 2481 2457 2441 2464 2483 2469 2410 2404 2311 2178 2199 2327 2252 1975 1994 1924 1696 1470
0 0 0 0 0 0 0 0 0 0 0 0 0 0 0 0 4 146 413 1283 1251 1336 1747 1913 1130 1448 1667 1729 2044 2346 2533 2437 2454 2498 2593 2596 2565 2552 2494 2353 2200 2324 2393 2092 1987 1926 1856 1580 1282
0 0 0 0 0 0 0 0 0 0 0 0 0 0 0 4 63 124 955 1193 1259 1334 1608 1604 1162 1452 1712 1789 2048 2317 2421 2382 2392 2436 2634 2703 2658 2630 2378 2080 2165 1986 1994 2219 2280 2011 1623 1284 1011
0 0 0 0 0 0 0 0 0 0 0 0 0 0 0 109 494 399 1081 1315 1189 1394 1639 2084 1390 1460 1754 1936 1986 2205 2182 2285 2324 2458 2569 2617 2615 2296 2080 1922 2001 1936 2086 2016 1960 1838 1350 1068 941
0 0 0 0 0 0 0 0 0 0 0 0 0 0 0 404 827 697 1386 1710 1530 1763 1959 2129 1547 1503 1618 1880 1946 1874 2000 2118 2254 2398 2457 2549 2309 1983 1884 1692 1826 1707 1776 1711 1764 1466 1012 960 840
0 0 0 0 0 0 0 0 0 0 0 0 0 0 0 30 1093 1355 1550 1971 2221 2032 2136 2363 2249 1965 1470 1536 1742 1770 1734 1973 2098 2142 2313 2353 2135 1611 1590 1610 1470 1106 1429 1252 1486 1244 845 807 618
0 0 0 0 0 0 0 0 0 0 0 0 0 0 0 0 1344 1504 1529 1939 2285 1975 2035 2293 2314 2221 2073 2151 1465 1640 1608 1599 1975 2056 2177 2052 1823 1490 1312 1325 1083 1020 1388 1179 1366 913 660 642 524
0 0 0 0 0 0 0 0 0 0 0 0 0 0 0 85 1135 1654 1590 1676 1994 1796 1757 2030 2174 2206 2129 2223 1917 1467 1537 1301 1505 1840 1952 1838 2079 1768 1600 1157 949 1077 1039 1079 943 714 669 435 418
0 0 0 0 0 0 0 0 0 0 0 0 0 0 0 46 585 1283 1514 1437 1662 1827 1736 1749 2019 2120 2226 2043 2413 2277 2179 1913 2185 1913 1885 2031 1683 1588 1257 990 686 748 593 705 751 660 535 288 197
0 0 0 0 0 0 0 0 0 0 0 0 0 0 0 0 1 407 868 1162 1148 1409 1634 1662 2048 2172 2186 2127 1958 2267 2238 2343 2316 2214 2132 2045 1712 1581 1487 1612 1003 1002 642 610 854 436 477 166 121
0 0 0 0 0 0 0 0 0 0 0 0 0 0 0 0 0 0 76 668 933 1197 1528 1819 1830 2154 2171 1973 1929 1986 2012 2295 2027 2188 2038 1931 1678 1582 1436 1527 1013 874 760 835 835 281 426 207 85
0 0 0 0 0 0 0 0 0 0 0 0 0 0 0 0 0 0 0 9 513 1346 1661 1785 1586 2145 2081 2113 1740 1649 1882 1858 1744 1725 1866 1790 1435 1435 1269 987 899 887 828 1005 417 676 171 116 56
0 0 0 0 0 0 0 0 0 0 0 0 0 0 0 0 0 0 0 0 270 887 1464 1747 1653 1965 2066 2113 1486 1643 1612 1445 1730 1653 1435 1578 1621 1140 1443 1147 773 817 924 974 573 623 326 117 65
0 0 0 0 0 0 0 0 0 0 0 0 0 0 0 0 0 0 0 0 122 452 730 1430 1937 2022 2134 1885 1464 1485 1279 1214 1465 1144 1410 1295 1222 1296 1180 1214 873 1027 664 617 494 128 182 86 14
0 0 0 0 0 0 0 0 0 0 0 0 0 0 0 0 0 0 0 0 0 6 167 753 1052 1644 2041 1721 1313 879 767 942 721 707 1158 909 814 1069 1022 945 754 520 609 179 69 61 9 58 8
0 0 0 0 0 0 0 0 0 0 0 0 0 0 0 0 0 0 0 0 0 0 0 192 906 1124 1678 1732 1297 801 778 684 1039 725 458 220 534 707 550 695 282 214 18 30 59 13 17 24 21
0 0 0 0 0 0 0 0 0 0 0 0 0 0 0 0 0 0 0 0 0 0 0 0 207 833 1027 1771 1281 571 678 838 781 842 649 655 509 292 465 492 210 99 47 45 20 18 10 7 11
0 0 0 0 0 0 0 0 0 0 0 0 0 0 0 0 0 0 0 0 0 0 0 0 19 567 774 1003 632 449 299 604 511 708 544 583 379 490 151 191 153 94 35 25 20 2 0 27 2
0 0 0 0 0 0 0 0 0 0 0 0 0 0 0 0 0 0 0 0 0 0 0 0 109 521 763 562 413 501 385 419 359 424 641 306 306 215 27 82 64 38 20 16 11 4 0 2 9
0 0 0 0 0 0 0 0 0 0 0 0 0 0 0 0 0 0 0 0 0 0 0 0 116 404 711 677 467 458 421 287 316 266 355 289 165 69 41 79 44 49 15 26 1 15 4 0 4
0 0 0 0 0 0 0 0 0 0 0 0 0 0 0 0 0 0 0 0 0 0 0 2 67 302 539 628 379 553 522 291 319 203 86 123 59 25 30 31 41 46 25 20 30 1 3 6 0
0 0 0 0 0 0 0 0 0 0 0 0 0 0 0 0 0 0 0 0 0 0 31 41 91 231 200 476 478 585 771 682 546 397 160 19 172 40 29 15 30 14 17 3 1 0 3 5 0
0 0 0 0 0 0 0 0 0 0 0 0 0 0 0 0 0 0 0 0 0 0 0 204 165 135 52 142 561 582 926 702 285 81 34 5 35 20 12 4 14 12 17 2 2 2 1 0 0
0 0 0 0 0 0 0 0 0 0 0 0 0 0 0 0 0 0 0 0 0 0 0 95 159 69 13 23 575 464 822 486 309 154 21 4 3 16 36 1 24 1 6 4 1 3 0 0 3
0 0 0 18 0 0 0 0 0 0 0 0 0 0 0 0 0 0 0 0 0 0 0 13 152 15 5 14 338 289 259 451 225 87 5 7 12 26 3 2 19 2 7 3 1 7 1 0 0
0 0 9 0 0 1 0 0 0 0 0 0 0 0 0 0 0 0 0 0 0 0 0 2 66 5 9 10 255 54 249 296 193 72 3 11 11 19 38 8 6 13 6 5 4 3 5 8 3
0 0 0 0 0 0 0 0 0 9 12 8 0 0 0 0 3 0 0 0 0 0 0 0 85 5 9 1 136 31 338 306 153 33 7 13 0 7 0 34 4 4 11 6 12 6 7 6 2
0 0 0 0 0 0 0 0 0 8 1 0 0 6 26 37 3 5 4 0 0 0 0 3 8 1 2 1 55 143 386 257 140 9 10 0 8 9 0 43 0 0 0 14 10 2 27 7 9
0 0 0 0 0 0 0 0 46 25 5 11 32 52 54 21 14 10 3 0 0 0 2 3 129 8 6 0 100 237 372 234 119 9 0 0 0 0 0 0 0 0 0 4 14 0 10 11 9

GFSSGP_con_mucape_111.txt.gz
CAPE
0 0 0 0 0 0 0 0 0 0 0 0 0 0 0 0 0 26 396 777 362 995 1315 1217 1222 1567 1583 1671 1819 2036 2204 2250 2264 2301 2324 2362 2408 2461 2462 2359 2276 2401 2442 2076 1933 1887 1852 1711 1703
0 0 0 0 0 0 0 0 0 0 0 0 0 0 0 0 0 196 585 570 398 1035 1458 1438 1104 1543 1748 1919 2107 2171 2327 2378 2394 2395 2453 2503 2495 2573 2542 2353 2151 2340 2487 2265 1988 2030 1907 1910 1582
0 0 0 0 0 0 0 0 0 0 0 0 0 0 0 0 0 3 505 311 514 939 1404 1757 1074 1388 1702 1934 2157 2291 2353 2392 2425 2424 2560 2629 2604 2617 2539 2236 2134 2360 2572 2515 2120 2046 1993 1754 1407
0 0 0 0 0 0 0 0 0 0 0 0 0 0 0 0 0 15 487 432 485 828 1122 1542 1088 1344 1672 1944 2205 2404 2394 2302 2328 2389 2612 2685 2712 2700 2536 2227 2244 2513 2642 2641 2416 2099 1692 1357 1208
0 0 0 0 0 0 0 0 0 0 0 0 0 0 0 0 4 169 506 635 574 919 1580 1886 1146 1399 1718 1888 2162 2334 2326 2278 2337 2429 2523 2631 2695 2684 2305 2222 2297 2238 2212 2173 1994 1744 1407 1200 1080
0 0 0 0 0 0 0 0 0 0 0 0 0 0 0 3 6 411 833 833 836 1242 1815 2395 1320 1424 1630 1797 1893 2046 2167 2253 2306 2368 2494 2571 2564 2368 2203 2132 2112 1936 1987 2021 1816 1533 1263 1075 1003
0 0 0 0 0 0 0 0 0 0 0 0 0 0 0 0 33 566 1007 1100 1328 1616 2065 2592 2123 1701 1389 1527 1662 1683 1913 2093 2204 2306 2367 2319 2225 1955 1934 1948 1588 1721 1849 1727 1725 1317 1017 984 879
0 0 0 0 0 0 0 0 0 0 0 0 0 0 0 14 914 1128 1022 1368 1570 1774 1954 2497 2496 2161 1998 1817 1485 1557 1599 1819 2010 2166 2206 2030 1690 1689 1470 1414 1322 1490 1364 1601 1498 1066 818 726 568
0 0 0 0 0 0 0 0 0 0 0 0 0 0 0 0 592 1082 1008 1220 1726 1581 1705 2091 2293 2291 2352 2240 1850 1444 1536 1452 1768 1873 1726 2020 1956 1757 1649 1351 1057 821 871 1249 1199 842 727 522 389
0 0 0 0 0 0 0 0 0 0 0 0 0 0 0 0 129 918 963 1115 1494 1487 1338 1601 1950 2000 2097 1853 2332 1981 2012 1994 1774 1879 2230 2490 1875 1794 1633 1324 909 871 858 660 852 511 404 386 547
0 0 0 0 0 0 0 0 0 0 0 0 0 0 0 0 0 200 534 480 1087 1299 1102 1035 1869 2079 2035 1630 1926 2056 2157 2142 2104 2097 2107 2137 2186 2265 1812 1936 1748 1497 643 740 609 554 633 629 425
0 0 0 0 0 0 0 0 0 0 0 0 0 0 0 0 0 0 40 234 324 870 1187 1150 1435 2018 2381 1689 1597 1731 2411 2221 2316 2293 3022 2586 2391 2119 1882 1513 1533 1580 1048 863 955 1197 1006 680 444
0 0 0 0 0 0 0 0 0 0 0 0 0 0 0 0 0 0 0 0 0 231 823 1320 1576 2089 2330 2400 1817 1907 2549 2156 2341 2127 2265 2290 1987 1940 1655 1696 1452 1223 953 1011 995 1040 945 640 299
0 0 0 0 0 0 0 0 0 0 0 0 0 0 0 0 0 0 0 0 0 5 340 1401 1855 2207 2257 2266 2363 2215 2376 2323 2158 2067 2035 2404 2228 2057 2127 1922 1681 1544 1258 1169 1270 1165 795 496 276
0 0 0 0 0 0 0 0 0 0 0 0 0 0 0 0 0 0 0 0 0 0 26 1339 1989 2569 2335 2228 2126 2024 1814 1827 2112 1822 2112 2111 2105 2088 1896 1616 1595 1580 1317 1145 1081 1007 968 658 157
0 0 0 0 0 0 0 0 0 0 0 0 0 0 0 0 0 0 0 0 0 0 4 254 1288 2129 2276 2605 2335 2029 1606 1674 1626 1729 1818 1744 1911 1939 1566 1434 1342 1453 1390 1210 880 723 412 181 65
0 0 0 0 0 0 0 0 0 0 0 0 0 0 0 0 0 0 0 0 0 0 0 11 1019 1605 2266 2695 2369 2362 1848 1543 1453 1343 1129 1390 1229 1589 1287 1303 1513 1456 970 792 596 133 114 58 55
0 0 0 0 0 0 0 0 0 0 0 0 0 0 0 0 0 0 0 0 0 0 0 0 74 1132 1735 2175 2609 2040 1548 1367 1309 1196 1144 1230 1226 1024 1232 1083 1260 988 373 119 84 40 53 18 35
0 0 0 1 0 0 0 0 0 0 0 0 0 0 0 0 0 0 0 0 0 0 0 0 0 221 1366 1347 1867 2212 1264 1031 1045 1386 1215 1045 917 820 687 898 652 376 28 75 53 33 2 14 22
0 0 0 0 0 0 0 0 0 0 0 0 0 0 0 0 0 0 0 0 0 0 0 0 0 0 258 965 1331 1772 1013 1016 1004 1046 1291 1073 1033 694 607 625 325 48 74 62 43 8 8 23 7
0 0 0 0 0 0 1 0 0 0 0 0 0 0 0 0 0 0 0 0 0 0 0 0 0 4 232 789 1315 1000 819 1048 1000 837 1025 995 898 593 721 539 153 34 48 22 18 17 19 1 9
0 0 0 0 0 0 0 1 0 0 0 0 0 0 0 0 0 0 0 0 0 0 0 2 0 45 213 814 1132 773 739 542 636 785 790 823 804 663 404 314 18 24 108 20 2 14 5 3 1
0 0 0 0 0 0 0 0 0 0 0 0 0 0 0 0 0 0 0 0 0 0 0 0 130 135 222 571 1073 952 616 877 1028 959 895 851 634 371 452 170 4 143 25 26 2 9 14 3 6
0 0 0 0 0 0 0 0 0 0 0 0 0 0 1 2 0 0 0 0 0 0 0 0 83 276 261 563 833 986 697 1233 1132 1210 1031 837 590 571 242 97 15 16 27 20 9 1 13 0 0
0 0 0 0 0 3 0 0 0 0 0 0 4 8 0 2 0 0 0 0 0 0 0 0 0 178 342 483 461 795 759 1301 1426 1380 1020 528 357 321 144 7 7 4 6 30 6 4 0 4 6
0 0 0 0 0 4 0 0 0 0 0 31 22 35 4 0 0 0 1 1 0 0 0 0 0 0 274 305 143 438 592 820 1154 945 624 311 156 179 13 4 4 1 2 4 2 14 5 2 0
0 0 0 0 0 0 0 1 12 1 27 52 30 3 1 1 6 17 10 5 0 0 0 0 0 0 90 266 140 317 447 638 1053 1088 751 252 95 22 40 14 16 17 2 0 0 0 3 3 0
3 3 0 0 0 0 0 0 0 0 32 49 13 6 1 3 22 7 14 5 0 0 0 0 0 0 32 175 68 151 302 719 898 882 393 169 37 20 21 7 0 3 2 5 7 6 0 0 0
0 0 0 2 0 0 0 0 67 21 29 58 64 51 22 32 23 31 12 8 1 0 0 0 0 0 142 71 21 43 278 400 672 567 251 155 7 14 20 36 10 0 0 2 0 9 23 6 3
0 0 17 0 0 0 0 1 17 85 85 82 94 82 119 126 12 4 12 12 7 0 0 0 0 8 51 6 15 56 202 174 508 313 247 7 17 11 10 21 0 0 0 1 15 13 13 6 3

GFSSGP_con_mucape_114.txt.gz
CAPE
0 0 0 0 0 0 0 0 0 0 0 0 0 0 0 0 30 195 397 749 1266 1044 1029 1089 1279 1546 1656 1677 1839 2031 2198 2129 2131 2150 2196 2199 2270 2295 2309 2232 2268 2326 2604 2269 2123 1938 1779 1797 1671
0 0 0 0 0 0 0 0 0 0 0 0 0 0 0 0 49 310 525 539 1200 1258 1182 1123 1213 1493 1675 1755 2006 2203 2329 2234 2214 2244 2291 2310 2352 2402 2355 2253 2152 2406 2558 2266 2102 2067 2003 1919 1679
0 0 0 0 0 0 0 0 0 0 0 0 0 0 0 0 0 146 467 526 1066 1152 1344 1241 1161 1393 1706 1841 2059 2163 2247 2174 2250 2256 2388 2466 2494 2479 2441 2182 2070 2458 2667 2545 2245 2190 1932 1728 1470
0 0 0 0 0 0 0 0 0 0 0 0 0 0 0 24 0 280 285 401 823 1043 1646 792 1050 1353 1732 1966 2204 2224 2227 2074 2148 2220 2386 2543 2617 2552 2406 2059 2074 2556 2771 2399 2654 1852 1632 1472 1322
0 0 0 0 0 0 0 0 0 0 0 0 0 0 0 0 0 203 340 456 1026 1743 1656 1109 1012 1349 1720 2039 2287 2327 2192 2118 2130 2244 2357 2451 2558 2447 2241 2001 2101 2208 2190 2141 1888 1839 1483 1287 1230
0 0 0 0 0 0 0 0 0 0 0 0 0 0 0 0 5 271 737 1153 1601 2743 2263 1322 1173 1355 1541 1867 2022 2084 2084 2079 2103 2177 2248 2436 2431 2024 2158 2029 2074 1966 1929 2046 1681 1535 1338 1176 1098
0 0 0 0 0 0 0 0 0 0 0 0 0 0 0 0 111 548 940 1553 2020 2608 2751 1810 1579 1433 1307 1354 1538 1844 2000 2059 1911 2099 2072 2263 2100 1751 1743 1906 1850 1590 1676 1539 1433 1264 1128 1071 996
0 0 0 0 0 0 0 0 0 0 0 0 0 0 0 2 323 632 875 1103 1843 2192 2885 2326 2022 1723 1612 1437 1261 1512 1735 1949 1951 2073 1914 2177 1974 1708 1558 1575 1494 1418 1481 1356 1434 1048 943 915 785
0 0 0 0 0 0 0 0 0 0 0 0 0 0 0 55 896 743 1100 1203 1695 1895 2154 2557 2313 2019 1899 1731 1445 1273 1437 1651 1854 1983 1985 1972 1973 1789 1672 1443 1209 1264 1182 1156 1354 917 724 684 551
0 0 0 0 0 0 0 0 0 0 0 0 0 0 0 0 324 804 668 1217 1812 1756 1653 2176 2266 2207 2197 1824 1739 1638 1602 1513 1712 1917 1900 1660 2077 1839 1537 1370 979 922 759 869 869 652 670 522 237
0 0 0 0 0 0 0 0 0 0 0 0 0 0 0 0 0 603 561 701 1582 1671 1337 1418 2251 2482 2216 1593 2062 1851 1909 1720 1637 1771 1955 2009 1959 1765 1397 1382 1021 914 629 626 511 313 409 537 489
0 0 0 0 0 0 0 0 0 0 0 0 0 0 0 0 0 1 241 385 657 1320 1260 1055 1943 2427 2289 1844 1959 1942 1756 1924 1775 1768 1788 2041 2039 1872 1737 1452 1297 1110 796 576 563 537 441 646 377
0 0 0 0 0 0 0 0 0 0 0 0 0 0 0 0 0 0 0 22 155 651 1184 1012 1517 2232 2462 2506 1713 1900 2110 2022 1950 1952 1983 1947 2080 1854 1735 1536 1381 1110 969 690 623 627 717 520 364
0 0 0 0 0 0 0 0 0 0 0 0 0 0 0 0 0 0 0 0 0 16 810 1257 1334 2133 2369 2350 2321 1777 2540 2037 2066 2000 2013 2383 2123 1819 1606 1534 1365 1259 1128 933 682 718 610 560 412
0 0 0 0 0 0 0 0 0 0 0 0 0 0 0 0 0 0 0 0 0 0 10 1442 1715 2271 2454 2514 2236 2365 1965 2296 1883 2050 1989 2116 2154 2000 1650 1520 1454 1260 985 790 703 612 590 463 298
0 0 0 0 0 0 2 0 0 0 0 0 0 0 0 0 0 0 0 0 0 0 0 1441 1650 2445 2417 2401 2342 1988 1978 2086 2159 1872 1673 1764 2059 1959 1577 1376 1310 1234 882 746 689 584 381 295 150
0 0 0 0 0 0 1 0 0 0 0 0 0 0 0 0 0 0 0 0 0 0 0 119 1846 2736 2570 2335 2494 2258 1993 1912 1611 1885 1816 1682 1757 1818 1485 1448 1310 1204 808 606 488 429 367 218 120
0 0 0 0 0 0 0 0 0 0 0 0 0 0 0 0 0 0 0 0 0 0 0 205 1592 2110 2692 2393 2266 2500 2078 1750 1557 1496 1488 1426 1693 1567 1415 1100 1282 1188 836 491 365 250 296 133 120
0 0 0 0 0 0 0 0 0 0 0 0 0 0 0 0 0 0 0 0 0 0 0 0 110 1684 2088 2201 2444 2297 2233 1812 1416 1322 1223 1089 1114 1582 985 901 957 740 478 317 156 92 97 45 62
0 0 2 6 2 2 0 0 0 0 1 0 0 0 0 0 0 0 0 0 0 0 1 3 0 0 761 1635 1611 2031 2081 1834 1449 1139 1224 1163 1169 1105 1155 874 564 539 298 53 102 18 18 30 17
0 0 4 0 4 0 0 0 0 0 0 0 1 0 0 0 0 0 1 3 12 2 19 0 0 1 43 2 1103 1439 1715 1726 1492 944 681 1286 1078 860 679 535 403 292 220 374 3 37 14 6 2
0 0 0 8 12 0 0 0 0 0 0 0 0 0 0 0 0 0 2 10 13 4 23 0 31 31 34 376 428 1324 1276 1250 1036 812 568 1006 1206 984 730 522 411 241 1 9 68 39 5 2 0
1 7 20 1 0 0 0 0 0 0 0 0 0 0 0 0 0 0 4 8 3 0 4 9 37 112 92 316 546 1184 1022 870 544 369 398 1181 1192 1092 1014 743 359 69 0 0 4 34 1 0 29
9 11 9 0 0 0 0 2 0 0 0 0 0 0 6 8 3 1 2 0 0 8 27 13 0 0 195 328 577 1163 947 733 492 570 456 740 1024 1157 948 717 246 5 2 33 7 12 1 4 3
30 25 0 0 0 0 0 1 0 0 1 0 1 5 128 49 7 0 0 0 13 24 44 21 0 0 0 486 315 999 1034 816 665 787 787 610 1008 1064 955 317 147 6 8 3 21 10 2 6 14
14 0 0 0 0 0 0 0 0 0 0 0 29 147 97 24 38 15 45 24 14 0 0 0 0 0 0 0 324 397 957 806 756 854 1001 833 754 1009 785 264 53 3 6 23 15 10 21 5 10
10 3 1 0 1 26 0 0 1 0 4 37 91 68 25 37 76 64 43 7 0 0 0 0 0 0 0 0 0 341 280 455 501 905 991 1039 735 826 655 115 88 7 6 8 4 8 39 4 0
11 2 1 0 0 0 4 0 1 0 80 57 17 21 64 55 83 29 0 0 0 0 0 0 0 0 0 0 0 123 97 177 357 607 825 1070 739 155 135 59 14 6 29 7 5 7 0 12 6
11 1 0 0 0 0 0 0 1 1 82 27 5 80 169 154 95 7 1 0 0 0 0 0 0 0 0 0 0 74 29 95 259 434 664 840 516 219 139 4 11 22 2 1 0 0 5 3 4
2 3 18 0 0 0 0 0 27 38 96 102 288 218 118 16 7 9 0 0 0 0 0 0 0 0 0 0 42 70 5 12 165 445 770 690 590 177 131 1 3 5 3 5 7 9 4 9 2

GFSSGP_con_mucape_117.txt.gz
CAPE
0 0 0 0 0 0 0 0 0 0 0 0 0 0 0 7 193 156 1108 826 769 899 1097 1200 1278 1457 1520 1643 1709 1876 1970 2052 2063 2052 1992 2060 2118 2159 2110 2141 2269 2613 2709 2359 2077 1936 1898 1655 1624
0 0 0 0 0 0 0 0 0 0 0 0 0 0 0 23 396 732 847 760 772 806 985 1058 1185 1381 1526 1647 1788 1975 2189 2175 2125 2150 2150 2203 2233 2238 2221 2117 2028 2324 2566 2548 2192 2012 1924 1666 1542
0 0 0 0 0 0 0 0 0 0 0 0 0 0 0 62 288 272 930 903 671 886 915 1090 1133 1342 1553 1753 1900 2014 2121 2058 2087 2148 2286 2315 2360 2367 2329 2004 2016 2482 2593 2514 2248 2187 2004 1632 1360
0 0 0 0 0 0 0 0 0 0 0 0 0 0 0 111 215 491 1097 802 834 1067 943 956 1108 1294 1600 1862 1965 2012 1925 1667 1987 2093 2335 2426 2505 2502 2243 1895 2082 2609 2686 2705 2573 2381 1828 1337 1209
0 0 0 0 0 0 0 0 0 0 0 0 0 0 0 175 158 555 1029 860 1113 1167 703 867 1074 1341 1688 2027 2057 1978 1624 1640 1961 2062 2277 2400 2450 2319 2065 1820 2016 2099 2065 2555 2199 1988 1500 1214 1089
0 0 0 0 0 0 0 0 0 0 0 0 0 0 0 180 118 251 804 1124 1426 1014 719 872 1106 1330 1663 1960 1976 1906 1823 1876 1947 2047 2122 2285 2208 2019 1956 1788 1870 1932 1901 1703 1675 1546 1329 1156 1061
0 0 0 0 0 0 0 0 0 0 0 0 0 0 8 106 96 170 989 1899 1666 1209 781 927 1101 1193 1456 1641 1814 1834 1821 1856 1910 2017 2073 2143 2037 1846 1880 1771 1823 1587 1384 1373 1317 1179 1114 1052 983
0 0 0 0 0 0 0 0 0 0 0 0 0 0 0 80 262 600 1233 2095 2091 1518 1011 964 994 1016 1064 1301 1603 1728 1778 1833 1706 1907 1813 2077 1915 1575 1648 1701 1612 1541 1241 1220 1172 1047 993 982 907
0 0 0 0 0 0 0 0 0 0 0 0 0 0 291 281 346 795 1045 1746 2454 2076 1466 1239 1130 1021 958 953 1271 1494 1656 1779 1538 1833 1372 1786 1844 1575 1466 1468 1299 1378 1147 1096 942 770 906 915 720
0 0 0 0 0 0 0 0 0 0 0 0 0 31 505 692 484 685 991 1163 1652 2233 2003 1551 1354 1213 1160 1214 1029 1119 1346 1549 1708 1847 1403 1825 1866 1652 1435 1312 1178 1195 1053 994 839 688 621 738 415
0 0 0 0 0 0 0 0 0 0 0 0 0 0 0 127 765 587 827 1253 1446 1581 2042 1955 1782 1537 1431 1499 945 965 1028 1228 1449 1659 1754 1625 1669 1700 1459 1215 1025 896 868 742 682 546 296 464 324
0 0 0 0 0 0 0 0 0 0 0 0 0 0 0 0 14 723 592 1095 1449 1512 1530 2070 1986 1800 1765 1729 1672 1100 1148 1087 1125 1485 1753 1435 1628 1557 1404 1244 995 816 688 563 532 307 270 473 281
0 0 0 0 0 0 0 0 0 0 0 0 0 0 0 0 0 0 563 598 1406 1477 1358 1627 1827 1880 1964 1582 1741 1505 1383 1377 1381 1324 1450 1826 1589 1531 1301 1164 1040 954 820 693 553 436 355 367 417
0 0 0 0 0 0 0 0 0 0 0 0 0 0 0 0 0 0 0 2 303 1474 1459 1198 1585 1916 1802 1611 1663 1674 1587 1652 1733 1469 1406 1243 1740 1716 1424 1164 1105 971 908 834 686 498 350 464 392
0 0 0 0 0 0 0 0 0 0 0 0 0 0 0 0 0 0 0 0 1 31 1353 1239 1436 1697 1688 1440 1703 1532 1738 1728 1708 1603 1640 1478 1589 1800 1535 1302 1147 1068 944 849 634 511 462 388 305
0 0 0 0 0 0 0 0 0 0 0 0 0 0 0 0 0 0 0 0 0 0 212 1112 1236 1834 2072 1696 1492 1729 2020 1878 1813 1933 1802 1909 1882 1775 1586 1350 1190 1063 954 831 682 601 498 401 325
0 0 0 0 0 0 0 0 0 0 0 0 0 0 0 0 0 0 0 0 0 0 0 926 1331 1719 1990 2174 1760 1494 1700 2149 2051 1789 1770 1689 1915 1867 1734 1456 1235 1114 923 667 484 400 332 305 279
0 0 0 0 0 0 0 0 0 0 0 0 0 0 0 0 0 0 0 0 0 0 0 611 1332 1804 1983 2096 2071 1950 1611 1619 1934 1897 1789 1648 1498 1587 1730 1574 1406 1085 907 733 554 486 413 289 226
0 0 0 0 0 0 0 0 0 0 0 0 0 0 0 0 0 0 0 0 0 0 0 69 1998 1866 1961 2135 2089 2148 2000 1760 1574 1490 1785 1643 1437 1354 1514 1573 1305 1261 929 656 555 459 704 220 99
0 0 0 0 0 5 14 20 0 0 0 0 0 0 0 0 0 0 0 0 0 0 0 2 1817 2319 2102 2065 1932 1814 2174 2177 2071 1650 1303 1513 1512 1262 1149 1834 1542 1364 1090 741 409 506 197 324 152
0 1 0 0 0 42 34 15 0 0 0 0 0 0 0 0 0 0 0 0 0 0 0 0 0 1233 2290 2216 2185 2015 1813 2005 2144 1964 1603 1363 1171 1132 980 950 1599 1233 826 443 446 372 201 20 8
0 22 6 0 4 40 21 17 2 0 0 0 0 0 0 0 0 0 0 0 0 0 0 0 0 0 0 160 1635 1862 1873 1982 1945 1835 1667 1368 1121 1225 826 753 1215 1081 661 228 9 65 22 26 20
0 1 0 4 44 25 13 24 3 6 3 0 0 0 0 0 0 0 0 0 0 2 3 15 2 1 0 0 0 914 1251 1321 1546 1786 1718 1645 1480 1135 1243 1170 673 587 494 278 27 3 169 14 15
0 57 30 40 54 31 16 8 0 0 0 0 0 0 0 0 0 2 3 11 0 0 0 0 0 0 0 0 0 799 947 1007 1083 1114 971 780 558 803 1069 1120 1112 977 291 158 38 1 5 18 11
19 29 89 35 53 0 5 1 0 0 0 5 0 1 0 0 6 32 8 0 0 0 0 0 0 0 0 0 0 0 503 864 890 848 671 582 305 367 732 763 1032 973 790 425 23 9 16 6 1
2 127 6 0 0 0 0 0 0 0 0 0 0 1 12 13 24 9 22 7 0 0 0 0 0 0 0 0 0 0 0 343 858 794 553 428 327 440 514 872 812 1056 783 635 3 9 18 14 8
26 73 76 55 45 2 0 0 0 0 2 7 0 1 59 83 84 53 11 5 0 0 0 0 0 0 0 0 0 0 0 0 499 634 447 575 807 784 845 807 989 1112 773 442 62 9 54 6 8
34 42 9 40 33 46 52 0 0 3 16 16 31 39 24 42 34 4 1 11 8 6 0 0 0 0 0 0 0 0 0 0 166 460 302 404 668 1024 967 631 973 857 871 421 7 32 9 7 3
44 13 12 16 30 16 10 3 4 3 25 13 32 2 3 1 0 1 1 2 11 7 0 0 0 0 0 0 0 0 0 0 0 257 136 418 697 877 940 623 485 634 396 169 14 6 10 18 7
22 2 0 7 12 17 27 0 0 98 67 115 10 5 0 9 20 28 16 13 3 0 0 0 0 0 0 0 0 0 1 19 0 32 121 326 593 789 1201 753 268 140 49 28 6 4 19 2 0

GFSSGP_con_mucape_120.txt.gz
CAPE
0 0 0 0 0 0 0 0 0 0 0 0 0 0 2 24 26 65 842 940 846 952 1003 1139 1279 1492 1689 1772 1640 1710 1837 1929 1908 1927 1884 1930 1970 2060 2230 2342 2424 2499 2374 2027 1952 1906 1723 1739 1748
0 0 0 0 0 0 0 0 0 0 0 0 0 0 0 343 574 961 1097 993 859 986 1015 1080 1187 1391 1548 1678 1748 1827 2022 2003 2020 2012 2018 2081 2087 2052 2153 2245 2348 2568 2581 2151 2023 1919 1729 1690 1698
0 0 0 0 0 0 0 0 0 0 0 0 0 0 0 345 859 829 845 762 884 991 1025 1052 1161 1300 1482 1567 1766 1894 2007 1940 1954 2006 2176 2238 2268 2196 2076 1885 2044 2189 2405 2483 2111 2012 1716 1558 1373
0 0 0 0 0 0 0 0 0 0 0 0 0 0 41 404 749 700 732 643 755 864 917 1049 1127 1274 1558 1765 1861 1975 1912 1806 1825 1954 2181 2339 2383 2299 1990 1755 2105 2377 2484 2593 2415 2079 1670 1232 1168
0 0 0 0 0 0 0 0 0 0 0 0 0 0 20 366 576 676 519 682 722 756 851 981 1110 1374 1688 1975 2011 1904 1794 1757 1785 1973 2123 2295 2357 2265 1827 1664 2086 2249 2442 2324 2134 1847 1391 1149 1086
0 0 0 0 0 0 0 0 0 0 0 0 0 0 16 345 785 482 485 783 726 578 798 944 1148 1466 1729 1899 1882 1673 1352 1662 1754 1929 2043 2202 2167 2008 1749 1622 1864 1865 2075 2039 1842 1506 1292 1079 1025
0 0 0 0 0 0 0 0 0 0 0 0 0 0 78 615 736 588 711 1021 599 537 722 922 1182 1481 1719 1781 1788 1603 1529 1681 1756 1867 1974 2018 1855 1786 1645 1575 1705 1715 1657 1621 1532 1252 1159 1050 988
0 0 0 0 0 0 0 0 0 0 0 0 0 0 190 482 688 1052 1316 1089 591 572 660 833 1097 1370 1583 1705 1774 1733 1727 1737 1750 1805 1916 1903 1727 1667 1626 1511 1542 1436 1337 1386 1264 1144 1076 1016 943
0 0 0 0 0 0 0 0 0 0 0 0 0 0 80 237 763 1643 1716 1517 981 678 599 738 909 1095 1282 1522 1693 1748 1737 1707 1738 1813 1873 1901 1717 1584 1627 1523 1450 1306 1100 1128 1041 956 970 959 897
0 0 0 0 0 0 0 0 0 0 0 0 0 30 55 270 995 1391 1652 1783 1496 1018 705 659 765 824 961 1169 1493 1575 1639 1581 1485 1668 1277 1570 1762 1490 1437 1495 1423 1224 1042 950 804 725 867 922 816
0 0 0 0 0 0 0 0 0 0 0 0 1 114 197 476 759 1069 1414 1776 1814 1524 1050 910 737 724 739 872 1128 1264 1490 1884 1709 1658 1164 1403 1785 1590 1375 1270 1266 1103 1067 875 777 535 628 819 738
0 0 0 0 0 0 0 0 0 0 0 0 0 158 264 539 536 793 982 1340 1682 1923 1651 1157 894 816 830 901 716 832 944 1176 1393 1584 1422 1376 1760 1697 1421 1239 1118 1014 957 798 680 421 446 466 497
0 0 0 0 0 0 0 0 0 0 0 0 0 24 431 428 532 581 819 1017 1313 1718 1860 1645 1127 957 969 1143 614 664 740 868 953 1268 1583 1525 1553 1549 1541 1275 1033 912 794 711 602 433 316 284 367
0 0 0 0 0 0 0 0 0 0 0 0 0 0 3 348 697 617 735 971 1210 1387 1539 1735 1624 1263 1131 1180 1195 887 755 734 744 829 1188 1466 1280 1349 1423 1359 1103 972 824 677 591 526 434 414 405
0 0 0 0 0 0 0 0 0 0 0 0 0 0 0 0 0 324 512 846 1203 1309 1426 1620 1750 1650 1454 1297 1577 1491 1258 1038 943 924 1022 1252 1586 1450 1390 1217 1163 1148 1018 944 857 827 744 515 404
0 0 0 0 0 0 0 0 0 0 0 0 0 0 0 0 0 0 0 0 825 1250 1353 1475 1687 1735 1737 1624 1502 1554 1450 1406 1355 1313 1187 1250 1388 1765 1649 1382 1214 1080 1016 1022 961 843 705 509 395
0 0 0 0 0 0 0 0 0 0 0 0 0 0 0 0 0 0 0 0 0 114 1267 1388 1537 1672 1840 1775 1554 1427 1527 1703 1720 1635 1499 1436 1276 1279 1768 1689 1486 1292 1120 1028 918 806 632 514 411
0 0 0 0 0 0 0 0 0 0 0 0 0 0 0 0 0 0 0 0 0 0 0 886 1185 1497 1793 1757 1613 1604 1562 1606 1646 1690 1861 1710 1486 1425 1637 1660 1543 1230 1086 1020 988 877 672 650 487
0 0 0 0 0 0 0 0 0 0 0 0 0 0 0 0 0 0 0 0 0 0 0 397 794 1306 1687 1810 1736 1553 1794 1917 1953 1951 1899 1769 1782 1829 1919 1840 1577 1397 1137 1014 899 756 608 512 575
0 0 0 0 0 0 0 0 0 0 0 0 0 0 0 0 0 0 0 0 0 0 0 441 982 1348 1662 1842 1914 1746 1419 1581 1904 2101 2039 1772 1667 1719 1853 1804 1701 1439 1571 1180 954 876 993 642 382
0 0 0 0 0 3 30 70 0 0 0 0 0 0 0 0 0 0 0 0 0 0 213 1187 1602 1785 1800 1862 2056 1986 1697 1576 1561 1690 1733 1735 1751 1587 1470 1306 1350 1232 1357 1384 977 650 639 378 364
0 0 0 0 0 0 90 0 0 0 0 0 0 0 0 0 0 0 0 0 0 0 208 1488 2075 1979 1942 1992 1949 1758 1590 1585 1968 1877 1668 1609 1509 1534 1470 1297 1164 991 1281 1468 1308 940 819 545 282
0 0 0 1 0 38 57 117 0 1 0 0 0 0 0 0 0 0 0 0 0 0 0 5 206 653 792 765 601 1561 2021 1726 1560 1808 1886 1836 1544 1406 1383 1248 1386 822 658 1267 1518 1088 674 54 126
19 0 13 7 6 17 15 68 0 22 1 1 0 0 0 1 1 4 0 0 0 6 12 13 16 16 20 6 7 7 187 700 1514 1638 1771 1657 1594 1565 1104 1188 1101 684 934 708 1168 1021 451 50 19
38 8 0 0 10 32 38 87 5 8 0 11 7 13 13 24 59 8 0 4 11 17 17 12 9 2 0 0 0 0 1 2 95 646 1280 1548 1318 1351 1251 1179 900 836 801 886 967 750 595 432 1
84 0 0 0 25 17 38 31 0 0 0 4 10 18 12 0 0 7 0 0 0 0 0 5 0 0 0 0 0 0 0 0 0 28 398 788 772 856 782 514 665 850 845 1014 814 464 309 592 9
21 0 0 5 28 13 15 1 0 59 6 0 0 1 5 10 2 0 0 0 0 0 1 0 0 0 0 0 0 0 0 0 0 0 6 376 778 502 311 268 330 496 802 638 837 771 769 343 6
146 2 75 2 6 15 109 6 49 208 64 40 8 5 0 0 0 0 0 0 0 9 15 8 8 2 0 0 0 0 0 0 0 0 0 64 487 451 233 383 442 518 446 682 793 823 652 315 8
20 15 11 27 23 7 35 187 198 202 101 94 82 37 4 0 8 9 15 11 14 25 26 22 3 0 0 0 0 0 0 0 0 0 0 4 212 406 377 432 601 819 657 679 669 741 664 114 4
12 17 5 6 3 0 23 107 58 100 129 87 81 22 28 21 18 21 22 30 36 1 0 0 0 0 0 0 0 0 0 0 0 0 0 2 82 279 283 328 583 894 814 414 535 736 277 0 4